Date StartTime U_cm/s V_cm/s W_cm/s Ustd_cm/s Vstd_cm/s Wstd_cm/s Uvar_(cm/s)^2 Vvar_(cm/s)^2 Wvar_(cm/s)^2 KE_(m/s)^2 TurbulentKE_(m/s)^2 HorizWindSpeed_cm/s FrictionSpeec_cm/s DragCoef SpeedOfSound_m/s SonicTemperature_C Pressure_mb 
01/19/2014  00:00:00     -121.179      -57.417      -11.633       21.685       17.745       11.112      470.230      314.882      123.481        0.951        0.045      134.093        4.673        0.001      331.949        0.293      866.948
01/19/2014  00:01:00     -114.383      -46.064      -20.044       13.890       19.029       13.153      192.940      362.115      172.995        0.817        0.036      123.310       10.689        0.008      331.889        0.196      866.945
01/19/2014  00:02:00     -110.611      -31.280      -11.328       19.136       18.689       13.273      366.201      349.295      176.181        0.712        0.045      114.949        9.409        0.007      331.891        0.197      866.937
01/19/2014  00:03:00      -99.528      -30.184      -12.750       16.245       14.973       11.818      263.888      224.184      139.673        0.580        0.031      104.004       10.977        0.011      331.895        0.204      866.929
01/19/2014  00:04:00      -87.569       -1.802      -13.024       27.746       19.457       15.910      769.867      378.560      253.129        0.462        0.070       87.587       17.562        0.040      331.813        0.068      866.922
01/19/2014  00:05:00      -96.130       -8.799      -15.781       18.813       14.920        9.713      353.929      222.598       94.334        0.512        0.034       96.532        9.621        0.010      331.854        0.137      866.918
01/19/2014  00:06:00      -95.424        2.979      -19.008       19.516       11.564        9.848      380.855      133.718       96.974        0.504        0.031       95.471        7.549        0.006      331.870        0.163      866.915
01/19/2014  00:07:00      -76.397       -3.238      -13.647       16.317       11.417       10.074      266.254      130.354      101.487        0.327        0.025       76.466        7.068        0.009      331.919        0.244      866.909
01/19/2014  00:08:00      -55.998      -16.272      -12.073        6.949        8.825        6.881       48.287       77.875       47.346        0.186        0.009       58.315        5.267        0.008      332.010        0.394      866.902
01/19/2014  00:09:00      -31.097      -28.677       -8.539       12.350       12.974        9.094      152.518      168.335       82.697        0.113        0.020       42.301        6.175        0.021      332.239        0.773      866.894
01/19/2014  00:10:00      -34.961      -16.089      -15.700       14.780       12.364        8.522      218.462      152.865       72.629        0.109        0.022       38.485        6.890        0.032      332.389        1.019      866.884
01/19/2014  00:11:00       -5.541       -8.169       -1.667       19.980       19.055       13.536      399.188      363.095      183.218        0.052        0.047        9.871        8.507        0.743      332.572        1.321      866.872
01/19/2014  00:12:00      -40.618      -17.472       -3.139       17.135       14.878       12.980      293.619      221.349      168.481        0.132        0.034       44.217        7.432        0.028      332.096        0.536      866.862
01/19/2014  00:13:00      -25.356        3.515      -13.769       27.823       18.069       13.773      774.128      326.487      189.692        0.107        0.065       25.599       11.103        0.188      332.305        0.881      866.871
01/19/2014  00:14:00      -33.276      -12.082       -6.718       10.747       13.044        8.659      115.498      170.141       74.973        0.083        0.018       35.401        5.536        0.024      332.033        0.432      866.872
01/19/2014  00:15:00       -2.866       -2.361        2.610       21.116       13.216       13.638      445.876      174.658      186.002        0.041        0.040        3.713       10.050        7.324      332.289        0.854      866.862
01/19/2014  00:16:00      -10.546       -9.405       14.892       20.923       14.545       10.460      437.768      211.547      109.409        0.059        0.038       14.130       11.403        0.651      332.332        0.925      866.855
01/19/2014  00:17:00      -24.237      -12.643       -7.473       15.633        9.300       10.211      244.398       86.493      104.261        0.062        0.022       27.336        6.938        0.064      332.160        0.644      866.844
01/19/2014  00:18:00      -30.672      -17.518      -11.961       11.812        7.800        7.158      139.531       60.832       51.243        0.082        0.013       35.322        3.435        0.009      332.219        0.739      866.847
01/19/2014  00:19:00      -48.985      -32.593      -13.298       10.055        9.118        7.605      101.112       83.136       57.834        0.194        0.012       58.838        3.368        0.003      332.034        0.436      866.853
01/19/2014  00:20:00      -66.720      -28.665      -13.064        9.576       10.908        8.520       91.707      118.984       72.592        0.286        0.014       72.617        3.245        0.002      331.922        0.250      866.852
01/19/2014  00:21:00     -108.170      -26.477      -14.638       23.149       15.696       10.017      535.856      246.359      100.340        0.675        0.044      111.363        5.694        0.003      331.828        0.095      866.843
01/19/2014  00:22:00     -118.974      -27.757      -12.554       22.913       13.361       11.370      524.989      178.509      129.284        0.796        0.042      122.169       10.831        0.008      331.865        0.156      866.838
01/19/2014  00:23:00     -101.328      -28.864       -9.819       18.906       14.316       10.380      357.436      204.961      107.740        0.593        0.034      105.359        9.113        0.007      331.873        0.167      866.839
01/19/2014  00:24:00      -86.899      -35.375      -13.784        7.780        7.233        8.148       60.535       52.310       66.392        0.459        0.009       93.823        1.949        0.000      331.900        0.213      866.845
01/19/2014  00:25:00      -81.949      -30.485      -13.172       10.592        8.863        7.983      112.199       78.554       63.734        0.404        0.013       87.436        4.218        0.002      331.888        0.194      866.842
01/19/2014  00:26:00      -81.701      -36.248      -15.398        6.747        6.637        5.614       45.528       44.045       31.514        0.417        0.006       89.381        2.039        0.001      331.817        0.079      866.845
01/19/2014  00:27:00      -90.124      -34.205      -11.985        9.557        7.140        6.632       91.330       50.979       43.985        0.481        0.009       96.397        3.572        0.001      331.855        0.141      866.842
01/19/2014  00:28:00      -96.795      -30.528      -10.285        6.844        7.129        5.745       46.846       50.821       33.006        0.527        0.007      101.495        1.887        0.000      331.836        0.110      866.837
01/19/2014  00:29:00      -89.310      -36.820      -10.757        9.454       10.527        9.887       89.369      110.822       97.760        0.487        0.015       96.602        5.249        0.003      331.738       -0.052      866.841
01/19/2014  00:30:00      -94.401      -40.093      -10.488       10.096       11.272        8.315      101.920      127.050       69.142        0.546        0.015      102.562        4.135        0.002      331.720       -0.081      866.842
01/19/2014  00:31:00     -106.882      -27.826      -14.810       10.649       13.913       10.806      113.393      193.572      116.760        0.642        0.021      110.444        4.171        0.001      331.821        0.083      866.846
01/19/2014  00:32:00     -105.180      -22.554       -9.417       19.505       13.380       10.297      380.427      179.033      106.037        0.616        0.033      107.571        6.434        0.004      331.845        0.124      866.851
01/19/2014  00:33:00      -95.097      -20.862      -12.717       25.229       13.003       12.074      636.522      169.066      145.782        0.530        0.048       97.359        4.226        0.002      331.805        0.056      866.837
01/19/2014  00:34:00      -53.272      -14.466       -8.151       14.418       11.007        8.597      207.875      121.152       73.912        0.176        0.020       55.201        6.212        0.013      331.857        0.141      866.819
01/19/2014  00:35:00      -57.847       -7.180      -10.855       17.231       12.251        9.991      296.902      150.095       99.816        0.203        0.027       58.291        4.985        0.007      331.970        0.330      866.803
01/19/2014  00:36:00      -64.878      -22.478      -12.996       10.984       16.689       11.887      120.652      278.512      141.311        0.271        0.027       68.662        4.549        0.004      331.896        0.206      866.792
01/19/2014  00:37:00      -83.474       -6.955      -16.305       14.415       12.913       11.506      207.790      166.744      132.393        0.389        0.025       83.763        7.798        0.009      331.805        0.057      866.793
01/19/2014  00:38:00      -72.362       -5.266      -19.059       12.371       17.371        9.034      153.046      301.762       81.610        0.308        0.027       72.553        8.265        0.013      331.972        0.332      866.800
01/19/2014  00:39:00      -56.642       -0.577      -12.436       15.801       10.070       10.285      249.660      101.400      105.784        0.191        0.023       56.645        6.610        0.014      331.883        0.187      866.802
01/19/2014  00:40:00      -54.819        9.771      -10.932        8.111        8.423        6.573       65.785       70.952       43.207        0.170        0.009       55.683        2.841        0.003      332.073        0.499      866.803
01/19/2014  00:41:00      -55.123        3.935       -6.894        8.753       11.608        7.933       76.619      134.752       62.926        0.169        0.014       55.263        6.753        0.015      332.154        0.634      866.798
01/19/2014  00:42:00      -40.588        5.460       -5.098       14.490       15.966        8.171      209.969      254.910       66.773        0.112        0.027       40.953        7.243        0.031      332.244        0.779      866.805
01/19/2014  00:43:00       -2.197        4.335       -0.239       16.348        7.805        8.002      267.260       60.920       64.038        0.021        0.020        4.860       10.335        4.522      332.417        1.065      866.802
01/19/2014  00:44:00       -0.911       14.555        4.281       11.767        9.611        7.183      138.452       92.369       51.592        0.026        0.014       14.583        5.631        0.149      332.434        1.093      866.793
01/19/2014  00:45:00      -24.380        0.345       -8.608       32.760       21.911       10.221     1073.242      480.102      104.478        0.116        0.083       24.383        6.924        0.081      332.164        0.650      866.786
01/19/2014  00:46:00      -74.436       -8.339      -12.014       10.989        9.026        9.103      120.763       81.469       82.863        0.302        0.014       74.901        3.637        0.002      331.776        0.010      866.783
01/19/2014  00:47:00     -101.686        6.210      -15.969       20.022       13.526       13.115      400.861      182.954      172.001        0.569        0.038      101.875        4.063        0.002      331.672       -0.161      866.773
01/19/2014  00:48:00      -75.582      -23.375      -14.379       12.691       17.690        9.938      161.051      312.933       98.773        0.352        0.029       79.114        9.072        0.013      331.603       -0.275      866.771
01/19/2014  00:49:00      -85.095      -12.265      -10.295       32.082       19.634       12.978     1029.284      385.495      168.427        0.454        0.079       85.974       14.822        0.030      331.558       -0.350      866.765
01/19/2014  00:50:00     -104.853       -2.937      -19.572       19.037       18.773       10.384      362.419      352.416      107.818        0.610        0.041      104.894        8.831        0.007      331.611       -0.263      866.759
01/19/2014  00:51:00     -128.284        5.975      -19.870       21.522       12.461       10.586      463.183      155.268      112.067        0.881        0.037      128.423        6.963        0.003      331.621       -0.246      866.759
01/19/2014  00:52:00      -89.941      -12.764      -13.320       20.616       17.192        9.814      425.032      295.579       96.305        0.462        0.041       90.843        8.042        0.008      331.589       -0.297      866.761
01/19/2014  00:53:00      -67.914      -25.800       -8.810       22.177       19.472       12.160      491.834      379.148      147.855        0.319        0.051       72.650        9.811        0.018      331.615       -0.256      866.765
01/19/2014  00:54:00      -64.649      -37.014      -14.067       25.101       23.000       15.562      630.071      528.984      242.190        0.357        0.070       74.495       16.397        0.048      331.638       -0.217      866.758
01/19/2014  00:55:00      -86.871      -31.301      -16.584       19.690       11.849       11.550      387.677      140.401      133.408        0.473        0.033       92.338        9.138        0.010      331.681       -0.145      866.765
01/19/2014  00:56:00     -106.910      -22.160      -17.097       12.639       14.468        9.417      159.739      209.322       88.689        0.634        0.023      109.183        7.678        0.005      331.712       -0.097      866.765
01/19/2014  00:57:00      -96.133      -23.699      -13.184       11.341       10.091        9.799      128.613      101.830       96.026        0.515        0.016       99.011        6.550        0.004      331.814        0.072      866.759
01/19/2014  00:58:00      -84.529      -15.643      -13.823        8.092        7.612        6.599       65.487       57.948       43.551        0.387        0.008       85.964        2.501        0.001      331.865        0.156      866.758
01/19/2014  00:59:00      -72.092       -8.748      -15.541       14.923       11.111       10.021      222.705      123.451      100.418        0.298        0.022       72.621        8.396        0.013      331.814        0.071      866.751
01/19/2014  01:00:00      -72.810      -14.713      -11.419       23.171       14.656       11.011      536.894      214.802      121.245        0.326        0.044       74.281        5.154        0.005      331.837        0.108      866.760
01/19/2014  01:01:00      -24.266      -11.151       -2.304       11.155       16.035       10.914      124.441      257.115      119.119        0.061        0.025       26.706        8.982        0.113      331.787        0.025      866.759
01/19/2014  01:02:00      -54.480      -15.171       -9.086       14.265       15.674        9.071      203.500      245.683       82.291        0.191        0.027       56.553        7.056        0.016      331.824        0.087      866.746
01/19/2014  01:03:00      -36.647        7.050       -5.921       11.417        6.296        5.526      130.356       39.639       30.535        0.081        0.010       37.319        4.535        0.015      332.204        0.715      866.738
01/19/2014  01:04:00        6.378       -2.309        3.196       14.053        5.967        5.893      197.474       35.611       34.733        0.016        0.013        6.783        5.820        0.736      332.284        0.847      866.732
01/19/2014  01:05:00       37.537       11.490        3.494        8.432        8.738        4.913       71.096       76.349       24.134        0.086        0.009       39.256        2.421        0.004      332.558        1.298      866.713
01/19/2014  01:06:00       32.047       19.197        9.345        7.226        6.092        5.418       52.211       37.107       29.351        0.080        0.006       37.357        3.395        0.008      332.359        0.968      866.693
01/19/2014  01:07:00       28.300        6.913        5.802       10.187        8.149        7.037      103.781       66.400       49.516        0.055        0.011       29.132        4.856        0.028      332.452        1.123      866.689
01/19/2014  01:08:00       -2.684       -6.946        4.147       14.738       12.401        6.337      217.223      153.795       40.152        0.024        0.021        7.447        7.908        1.128      332.397        1.033      866.689
01/19/2014  01:09:00      -34.376      -28.369        0.684       16.196       10.804       10.452      262.314      116.734      109.246        0.124        0.024       44.570        9.180        0.042      331.806        0.059      866.704
01/19/2014  01:10:00      -76.548      -14.546       -9.332       10.164       10.567        8.088      103.305      111.669       65.412        0.322        0.014       77.917        5.294        0.005      331.533       -0.392      866.715
01/19/2014  01:11:00      -93.469       -5.772       -8.577       27.674       16.055       16.689      765.878      257.754      278.535        0.507        0.065       93.647       16.407        0.031      331.648       -0.202      866.722
01/19/2014  01:12:00     -113.011        1.039      -21.611        7.830        8.430        7.389       61.310       71.063       54.601        0.671        0.009      113.016        3.928        0.001      331.796        0.043      866.718
01/19/2014  01:13:00     -101.059       -6.397      -14.089       10.659        5.554        7.430      113.606       30.851       55.205        0.533        0.010      101.261        2.529        0.001      331.840        0.115      866.716
01/19/2014  01:14:00      -72.957       -8.509       -9.485        8.098        8.930       10.232       65.580       79.739      104.684        0.287        0.013       73.452        5.860        0.006      331.845        0.125      866.718
01/19/2014  01:15:00      -67.812      -15.400      -13.143        8.078        8.966        6.510       65.257       80.385       42.383        0.260        0.009       69.539        4.045        0.003      331.614       -0.256      866.712
01/19/2014  01:16:00      -53.719      -27.517      -14.418        8.618        7.364        6.692       74.263       54.223       44.788        0.201        0.009       60.357        5.298        0.008      331.584       -0.306      866.723
01/19/2014  01:17:00      -52.281      -41.091      -11.998       13.889       10.847        8.284      192.915      117.660       68.630        0.247        0.019       66.496        4.698        0.005      331.589       -0.298      866.726
01/19/2014  01:18:00      -72.410      -24.481      -11.792       11.142       11.251        8.571      124.155      126.578       73.464        0.315        0.016       76.436        4.572        0.004      331.528       -0.399      866.734
01/19/2014  01:19:00      -84.506      -22.364      -14.292       12.551       12.148        9.362      157.519      147.576       87.649        0.412        0.020       87.415        8.144        0.009      331.503       -0.441      866.738
01/19/2014  01:20:00     -104.306      -23.238      -13.333       17.905       16.205       10.842      320.585      262.593      117.546        0.615        0.035      106.863        7.353        0.005      331.435       -0.553      866.740
01/19/2014  01:21:00     -135.432      -17.937      -20.282       13.008       14.865       10.929      169.197      220.969      119.443        0.979        0.025      136.615        8.492        0.004      331.540       -0.381      866.734
01/19/2014  01:22:00     -141.586      -21.918      -23.832       17.282       15.174       16.686      298.675      230.255      278.421        1.095        0.040      143.273       10.657        0.006      331.356       -0.681      866.730
01/19/2014  01:23:00     -136.276      -42.998      -19.129       13.376       22.990       10.701      178.919      528.557      114.504        1.080        0.041      142.898        8.107        0.003      331.297       -0.779      866.725
01/19/2014  01:24:00      -64.314      -40.708       -5.782       48.608       27.506       27.652     2362.702      756.602      764.614        0.485        0.194       76.114       29.344        0.149      331.271       -0.821      866.730
01/19/2014  01:25:00      -66.191      -46.525      -10.076       40.968       23.781       21.406     1678.364      565.553      458.230        0.467        0.135       80.906       19.157        0.056      331.230       -0.890      866.744
01/19/2014  01:26:00     -133.268      -51.532      -13.524       23.552       24.106       17.830      554.676      581.117      317.905        1.103        0.073      142.884       12.994        0.008      331.276       -0.811      866.759
01/19/2014  01:27:00     -116.654      -60.616       -8.995       21.937       24.772       17.869      481.233      613.646      319.301        0.939        0.071      131.463        7.946        0.004      331.261       -0.838      866.762
01/19/2014  01:28:00     -100.402      -62.971       -9.128       24.218       27.631       16.978      586.521      763.483      288.236        0.788        0.082      118.516       12.693        0.011      331.255       -0.847      866.767
01/19/2014  01:29:00      -97.257      -37.852       -7.396       27.535       29.004       14.228      758.204      841.215      202.429        0.637        0.090      104.363       15.351        0.022      331.266       -0.830      866.765
01/19/2014  01:30:00      -94.485      -42.160       -6.648       21.518       17.833       12.955      463.023      318.026      167.823        0.585        0.047      103.465        6.819        0.004      331.312       -0.754      866.782
01/19/2014  01:31:00     -102.629      -43.099       -8.937       20.766       15.316        8.523      431.211      234.584       72.644        0.660        0.037      111.312        5.602        0.003      331.422       -0.574      866.798
01/19/2014  01:32:00     -101.902      -34.287      -12.248       18.077       18.431       12.739      326.791      339.686      162.291        0.627        0.041      107.516        8.326        0.006      331.444       -0.539      866.808
01/19/2014  01:33:00     -102.015      -43.535       -9.045       12.103       13.145        9.779      146.476      172.779       95.627        0.640        0.021      110.916        8.104        0.005      331.520       -0.412      866.813
01/19/2014  01:34:00      -96.357      -34.948      -11.533        9.478        9.059       10.054       89.824       82.062      101.091        0.546        0.014      102.499        4.030        0.002      331.517       -0.416      866.826
01/19/2014  01:35:00     -113.700      -51.478       -8.628       15.150       19.203       13.685      229.515      368.770      187.285        0.822        0.039      124.811       11.153        0.008      331.495       -0.454      866.837
01/19/2014  01:36:00     -104.600      -51.697       -3.523       28.860       21.632       17.692      832.896      467.940      313.016        0.762        0.081      116.678       16.783        0.021      331.410       -0.594      866.846
01/19/2014  01:37:00      -93.386      -30.174       -4.399       31.204       26.544       17.037      973.669      704.602      290.254        0.581        0.098       98.139       15.957        0.026      331.330       -0.723      866.847
01/19/2014  01:38:00      -64.827      -34.784       -2.363       27.115       25.611       18.578      735.236      655.935      345.156        0.358        0.087       73.569       16.090        0.048      331.423       -0.573      866.834
01/19/2014  01:39:00      -72.311      -50.734        2.024       22.397       20.888       13.553      501.634      436.300      183.672        0.446        0.056       88.333        9.749        0.012      331.420       -0.577      866.836
01/19/2014  01:40:00      -84.998      -69.096       -5.629       30.859       22.506       19.264      952.270      506.504      371.093        0.693        0.091      109.539       18.296        0.028      331.355       -0.683      866.853
01/19/2014  01:41:00     -107.333      -61.169      -12.864       26.583       20.693       16.688      706.679      428.205      278.497        0.842        0.071      123.540        8.910        0.005      331.237       -0.877      866.867
01/19/2014  01:42:00     -135.012      -22.485      -15.490       22.276       16.328       12.514      496.224      266.589      156.612        0.995        0.046      136.872        8.145        0.004      331.326       -0.732      866.876
01/19/2014  01:43:00      -96.321      -19.107       -5.305       27.427       15.769       13.886      752.268      248.670      192.826        0.543        0.060       98.198       14.838        0.023      331.319       -0.743      866.873
01/19/2014  01:44:00     -120.541      -32.394       -3.390       21.416       13.846       12.629      458.654      191.703      159.479        0.820        0.040      124.818        8.704        0.005      331.427       -0.566      866.870
01/19/2014  01:45:00     -125.937      -26.868       -8.518       18.862       16.305       14.104      355.775      265.862      198.935        0.874        0.041      128.772       10.143        0.006      331.399       -0.611      866.876
01/19/2014  01:46:00     -100.756      -38.419       -6.567       21.175       13.741       11.475      448.388      188.827      131.666        0.622        0.038      107.832       10.963        0.010      331.417       -0.583      866.875
01/19/2014  01:47:00      -72.708      -21.656       -5.539       13.423       10.480       11.220      180.169      109.834      125.891        0.310        0.021       75.865        9.377        0.015      331.545       -0.370      866.866
01/19/2014  01:48:00      -69.531      -21.753       -9.345        6.896        9.047        7.482       47.557       81.843       55.985        0.279        0.009       72.854        3.610        0.002      331.790        0.033      866.847
01/19/2014  01:49:00      -82.374      -27.886      -11.913       17.121       13.343        8.224      293.139      178.048       67.627        0.412        0.027       86.966        7.075        0.007      331.726       -0.072      866.835
01/19/2014  01:50:00     -107.900      -53.143       -7.162       15.538       11.231        7.497      241.436      126.142       56.206        0.747        0.021      120.277        3.489        0.001      331.583       -0.309      866.840
01/19/2014  01:51:00     -110.121      -65.334       -5.335       13.389       16.652        9.720      179.273      277.285       94.487        0.849        0.028      128.043        5.776        0.002      331.597       -0.285      866.850
01/19/2014  01:52:00     -109.985      -34.106       -7.972       18.354       13.305       11.488      336.875      177.021      131.969        0.698        0.032      115.152       10.557        0.008      331.683       -0.144      866.862
01/19/2014  01:53:00     -106.389      -18.966      -12.951       18.801       18.499        8.599      353.465      342.228       73.942        0.631        0.038      108.066        6.070        0.003      331.640       -0.213      866.860
01/19/2014  01:54:00     -137.239       -4.939      -19.393       12.776       11.128        9.176      163.225      123.840       84.196        0.980        0.019      137.327        3.189        0.001      331.550       -0.362      866.867
01/19/2014  01:55:00     -140.406      -24.503      -21.705       14.255       14.553       11.322      203.201      211.803      128.188        1.066        0.027      142.528        5.803        0.002      331.460       -0.512      866.881
01/19/2014  01:56:00     -110.748      -31.928      -11.061       16.000       14.242       11.877      256.007      202.846      141.070        0.700        0.030      115.259        7.672        0.004      331.409       -0.594      866.899
01/19/2014  01:57:00     -111.431      -31.057      -13.688       10.512       10.026        8.550      110.500      100.516       73.108        0.693        0.014      115.678        5.023        0.002      331.537       -0.384      866.910
01/19/2014  01:58:00     -108.016      -33.290      -14.143       16.998       13.602       15.344      288.943      185.016      235.450        0.684        0.035      113.029       11.614        0.011      331.459       -0.512      866.914
01/19/2014  01:59:00     -100.423      -29.557       -4.120       18.495       16.827       13.214      342.069      283.137      174.613        0.589        0.040      104.683        9.672        0.009      331.340       -0.709      866.922
01/19/2014  02:00:00      -61.159      -13.063       -2.212       25.218       15.463       12.252      635.968      239.093      150.116        0.247        0.051       62.538       12.025        0.037      331.315       -0.749      866.927
01/19/2014  02:01:00      -79.905      -18.155       -4.796       13.389       14.279       10.754      179.278      203.900      115.659        0.362        0.025       81.941        7.081        0.007      331.386       -0.633      866.919
01/19/2014  02:02:00      -93.356      -18.682       -5.203       19.511       18.513       11.925      380.678      342.722      142.210        0.498        0.043       95.207        8.895        0.009      331.364       -0.670      866.904
01/19/2014  02:03:00     -138.661      -13.782      -11.302       24.363       14.382       13.706      593.548      206.852      187.846        1.027        0.049      139.344       11.539        0.007      331.178       -0.976      866.911
01/19/2014  02:04:00     -127.325      -17.496      -10.540       25.644       16.146       15.136      657.617      260.686      229.088        0.889        0.057      128.521       12.769        0.010      331.131       -1.052      866.926
01/19/2014  02:05:00      -93.820      -20.647       -7.580       37.817       32.495       16.748     1430.160     1055.907      280.484        0.603        0.138       96.065       18.494        0.037      331.260       -0.839      866.940
01/19/2014  02:06:00      -66.425      -22.099       -3.873       33.126       32.906       20.235     1097.318     1082.789      409.462        0.375        0.129       70.004       14.157        0.041      331.320       -0.740      866.948
01/19/2014  02:07:00      -31.915      -17.810        1.172       46.559       30.243       15.869     2167.784      914.613      251.830        0.234        0.167       36.548       19.539        0.286      331.333       -0.719      866.945
01/19/2014  02:08:00      -34.009       -2.166       -1.206       34.599       16.511       16.325     1197.068      272.624      266.520        0.145        0.087       34.078       15.227        0.200      331.359       -0.676      866.939
01/19/2014  02:09:00      -77.482      -29.460      -11.004       13.461       23.655       14.897      181.207      559.543      221.926        0.398        0.048       82.894       10.213        0.015      331.386       -0.632      866.940
01/19/2014  02:10:00      -97.240      -30.660       -9.824       26.576       26.009       14.657      706.308      676.484      214.836        0.604        0.080      101.959       11.027        0.012      331.259       -0.842      866.936
01/19/2014  02:11:00     -103.731      -21.307       -4.919       35.347       37.957       19.254     1249.432     1440.768      370.706        0.715        0.153      105.897       16.694        0.025      331.176       -0.977      866.929
01/19/2014  02:12:00      -77.413        0.368       -1.097       37.675       29.772       16.834     1419.394      886.384      283.367        0.429        0.129       77.414        9.859        0.016      331.139       -1.038      866.936
01/19/2014  02:13:00      -49.150        5.326       -7.684       17.874       14.451       10.704      319.466      208.821      114.573        0.157        0.032       49.438       10.480        0.045      331.434       -0.553      866.932
01/19/2014  02:14:00      -55.757       -3.480      -11.220        7.484       23.614        7.575       56.011      557.616       57.376        0.196        0.034       55.865        7.982        0.020      331.682       -0.145      866.931
01/19/2014  02:15:00      -69.920      -44.454      -14.451       22.710       18.937       11.994      515.731      358.618      143.866        0.405        0.051       82.855        9.145        0.012      331.360       -0.674      866.931
01/19/2014  02:16:00      -91.440      -31.974      -15.204       19.069       17.076       13.733      363.637      291.587      188.604        0.523        0.042       96.869        7.778        0.006      331.283       -0.802      866.937
01/19/2014  02:17:00      -79.716      -10.362      -15.787       11.562       17.707       16.227      133.669      313.533      263.329        0.371        0.036       80.387       12.046        0.022      331.244       -0.867      866.946
01/19/2014  02:18:00      -71.305      -13.919       -7.982       12.138       21.539        9.756      147.330      463.915       95.182        0.302        0.035       72.651        9.905        0.019      331.261       -0.839      866.940
01/19/2014  02:19:00      -90.062      -31.589      -17.447       12.448       15.156       11.988      154.951      229.702      143.706        0.497        0.026       95.441        8.354        0.008      331.123       -1.065      866.947
01/19/2014  02:20:00      -92.503      -18.483      -17.920       11.444       14.528        8.434      130.957      211.075       71.129        0.482        0.021       94.331        5.220        0.003      331.107       -1.091      866.956
01/19/2014  02:21:00      -79.595       -6.749      -15.838       14.588       16.510        9.787      212.815      272.590       95.779        0.361        0.029       79.881        7.042        0.008      331.145       -1.029      866.962
01/19/2014  02:22:00      -55.615       -4.631      -12.261       14.588       11.628       11.859      212.801      135.213      140.633        0.188        0.024       55.808       10.201        0.033      331.209       -0.924      866.950
01/19/2014  02:23:00      -55.925      -12.773      -14.778       12.804        9.030        7.011      163.951       81.537       49.159        0.190        0.015       57.365        5.830        0.010      331.295       -0.782      866.943
01/19/2014  02:24:00      -49.277      -25.647      -13.065       13.987        9.337        6.856      195.647       87.185       47.006        0.179        0.016       55.552        1.588        0.001      331.230       -0.891      866.944
01/19/2014  02:25:00      -79.534      -23.714      -12.568       16.984       15.348       10.954      288.460      235.569      119.995        0.384        0.032       82.994        4.831        0.003      331.109       -1.088      866.951
01/19/2014  02:26:00     -110.904      -27.925      -14.398       25.959       21.582       13.043      673.864      465.775      170.116        0.730        0.065      114.366       16.143        0.020      331.050       -1.184      866.957
01/19/2014  02:27:00     -108.365      -32.990      -18.553       18.641       18.211       15.175      347.500      331.625      230.272        0.704        0.045      113.276        7.846        0.005      331.006       -1.257      866.965
01/19/2014  02:28:00      -92.038      -17.949      -16.066       20.396       17.942       15.443      416.006      321.918      238.489        0.501        0.049       93.772       11.988        0.016      330.950       -1.349      866.958
01/19/2014  02:29:00     -102.238      -31.060      -19.552       16.314       21.563       13.047      266.151      464.968      170.225        0.635        0.045      106.852       10.100        0.009      331.025       -1.227      866.953
01/19/2014  02:30:00      -63.883      -15.339       -8.382       31.165       17.279       11.990      971.276      298.559      143.750        0.290        0.071       65.699       12.143        0.034      331.006       -1.257      866.939
01/19/2014  02:31:00      -72.419      -11.062      -12.585       17.613       14.761       10.259      310.203      217.881      105.237        0.308        0.032       73.259        8.673        0.014      331.070       -1.154      866.932
01/19/2014  02:32:00      -66.257      -17.950       -2.273       16.298       17.192        9.776      265.612      295.553       95.570        0.269        0.033       68.645        9.144        0.018      331.147       -1.025      866.931
01/19/2014  02:33:00      -72.556      -20.917      -10.781       14.503       13.436       11.797      210.333      180.516      139.175        0.317        0.027       75.511        8.851        0.014      331.140       -1.036      866.939
01/19/2014  02:34:00      -71.242      -21.436      -12.935       11.896        9.299        7.872      141.503       86.478       61.971        0.300        0.014       74.398        3.138        0.002      331.151       -1.019      866.951
01/19/2014  02:35:00     -117.280      -23.281      -13.287       13.263        7.001        8.724      175.899       49.009       76.101        0.739        0.015      119.568        3.639        0.001      331.077       -1.142      866.940
01/19/2014  02:36:00     -133.801      -30.292      -14.339       14.909       14.946       12.322      222.271      223.385      151.822        0.981        0.030      137.187        7.113        0.003      331.080       -1.136      866.945
01/19/2014  02:37:00      -99.815      -35.856       -3.269       22.754       19.969       14.333      517.749      398.742      205.426        0.619        0.056      106.060       12.255        0.013      331.088       -1.123      866.952
01/19/2014  02:38:00      -88.690      -27.890       -0.585       23.962       20.086       13.832      574.198      403.435      191.327        0.491        0.058       92.972       11.792        0.016      331.117       -1.075      866.954
01/19/2014  02:39:00      -77.397      -24.476       -3.405       26.001       17.161        8.573      676.026      294.505       73.497        0.382        0.052       81.175        7.701        0.009      331.048       -1.189      866.951
01/19/2014  02:40:00      -91.508      -16.330      -10.549       13.951       11.282        8.489      194.633      127.294       72.056        0.457        0.020       92.953        6.743        0.005      331.160       -1.003      866.950
01/19/2014  02:41:00      -78.806      -25.954       -0.367       21.340       15.721       13.986      455.399      247.140      195.607        0.389        0.045       82.970       12.056        0.021      331.144       -1.028      866.955
01/19/2014  02:42:00     -101.356      -23.565       -2.538       26.081       16.720       12.046      680.221      279.558      145.103        0.597        0.055      104.059       12.488        0.014      331.045       -1.192      866.963
01/19/2014  02:43:00      -87.525        1.340       -3.618       29.441       22.388       17.449      866.762      501.209      304.460        0.467        0.084       87.536       16.237        0.034      330.951       -1.345      866.968
01/19/2014  02:44:00     -117.518       -2.134      -12.728       22.717       19.855       14.717      516.061      394.211      216.576        0.755        0.056      117.537        9.557        0.007      330.836       -1.536      866.974
01/19/2014  02:45:00      -81.189       -8.911        2.410       49.295       38.713       28.806     2430.017     1498.714      829.796        0.572        0.238       81.676       26.401        0.104      330.888       -1.450      866.979
01/19/2014  02:46:00     -100.184       -8.610       -7.069       41.589       29.556       23.642     1729.636      873.582      558.926        0.666        0.158      100.553       20.965        0.043      330.929       -1.382      866.975
01/19/2014  02:47:00     -105.156      -17.982      -10.628       20.714       16.883       12.807      429.078      285.035      164.015        0.619        0.044      106.682       10.717        0.010      330.937       -1.372      866.982
01/19/2014  02:48:00     -119.583      -34.852       -9.728       34.972       25.624       19.138     1223.045      656.613      366.272        0.893        0.112      124.558       19.336        0.024      330.860       -1.497      867.000
01/19/2014  02:49:00     -106.776      -37.837       -6.045       28.908       33.844       19.991      835.670     1145.392      399.656        0.762        0.119      113.281       15.968        0.020      330.770       -1.644      867.002
01/19/2014  02:50:00      -50.894      -23.604        1.843       24.602       18.072       14.092      605.252      326.591      198.572        0.214        0.057       56.101       13.982        0.062      330.765       -1.653      866.999
01/19/2014  02:51:00      -26.049       -4.363      -16.050       13.033       15.354        9.634      169.851      235.738       92.805        0.073        0.025       26.412        8.288        0.098      331.022       -1.230      867.001
01/19/2014  02:52:00      -13.023        0.981       -2.395       13.443        9.071        6.152      180.713       82.289       37.845        0.024        0.015       13.060        6.406        0.241      331.231       -0.886      866.998
01/19/2014  02:53:00      -21.721      -18.099       -6.928        7.260        6.641        5.569       52.712       44.102       31.017        0.049        0.006       28.273        2.261        0.006      331.103       -1.097      867.018
01/19/2014  02:54:00      -26.297      -11.711       -5.646        7.208        6.386        5.855       51.961       40.784       34.279        0.049        0.006       28.787        2.163        0.006      330.963       -1.328      867.031
01/19/2014  02:55:00      -18.595      -12.378      -11.185       11.870        7.463        5.481      140.908       55.690       30.044        0.043        0.011       22.338        2.571        0.013      331.054       -1.179      867.038
01/19/2014  02:56:00      -34.928      -13.154       -2.194       11.061        8.295        6.618      122.347       68.806       43.794        0.082        0.012       37.322        3.429        0.008      330.921       -1.396      867.040
01/19/2014  02:57:00        2.949        6.622       -0.773       12.047       10.979        4.710      145.133      120.536       22.186        0.017        0.014        7.249        3.221        0.197      331.055       -1.177      867.026
01/19/2014  02:58:00       31.381       19.031        3.554        8.265        6.159        6.944       68.316       37.929       48.224        0.076        0.008       36.701        4.305        0.014      331.133       -1.049      867.007
01/19/2014  02:59:00       39.483       17.269       -3.625        4.900        5.494        4.086       24.006       30.183       16.695        0.097        0.004       43.094        2.183        0.003      331.091       -1.120      866.973
01/19/2014  03:00:00       12.482       -2.282       -1.552       12.988        9.238        6.512      168.677       85.345       42.402        0.023        0.015       12.689        3.068        0.058      331.102       -1.101      866.989
01/19/2014  03:01:00      -26.757      -11.808        2.975       21.496       16.175       11.030      462.098      261.633      121.669        0.085        0.042       29.247       10.723        0.134      330.962       -1.330      866.983
01/19/2014  03:02:00      -73.733      -17.875       -9.361       15.520        8.878        9.880      240.858       78.813       97.616        0.313        0.021       75.869        6.595        0.008      330.685       -1.784      866.986
01/19/2014  03:03:00      -73.061      -23.059       -8.479       16.515       14.116        7.813      272.750      199.265       61.049        0.324        0.027       76.614        2.957        0.001      330.670       -1.809      866.998
01/19/2014  03:04:00      -77.845       -4.147       -4.603       13.899       10.383        7.713      193.169      107.803       59.491        0.323        0.018       77.955        6.676        0.007      330.721       -1.725      866.999
01/19/2014  03:05:00      -75.395       -4.020      -10.617       12.582        9.577        8.381      158.314       91.726       70.234        0.307        0.016       75.502        5.505        0.005      330.895       -1.439      866.974
01/19/2014  03:06:00      -55.199        5.374       -6.099        9.672        5.660        5.086       93.546       32.035       25.866        0.163        0.008       55.460        5.131        0.009      330.996       -1.274      866.942
01/19/2014  03:07:00      -40.207      -14.008       -8.176       10.414       11.093        5.710      108.458      123.058       32.609        0.107        0.013       42.577        4.758        0.012      330.967       -1.321      866.928
01/19/2014  03:08:00      -70.392      -31.419       -5.871       11.809       10.111        9.688      139.460      102.228       93.866        0.316        0.017       77.086        3.230        0.002      330.920       -1.396      866.943
01/19/2014  03:09:00      -85.082      -35.330       -7.890        9.202       11.361        8.211       84.671      129.077       67.415        0.442        0.014       92.126        4.372        0.002      330.844       -1.523      866.956
01/19/2014  03:10:00      -78.220      -14.590       -9.903       12.812       11.330        8.518      164.150      128.362       72.557        0.340        0.018       79.569        7.220        0.008      330.737       -1.699      866.969
01/19/2014  03:11:00      -65.028      -10.087       -5.488       18.898        9.904       10.780      357.121       98.087      116.211        0.247        0.029       65.805        9.678        0.022      330.749       -1.680      866.983
01/19/2014  03:12:00      -55.400        2.780       -4.431       24.309       12.100       11.457      590.931      146.422      131.259        0.198        0.043       55.470       11.077        0.040      330.820       -1.563      866.986
01/19/2014  03:13:00      -64.545        4.498       -8.905       10.945        8.898       10.679      119.797       79.181      114.047        0.229        0.016       64.701        3.931        0.004      330.919       -1.398      866.985
01/19/2014  03:14:00      -65.478        4.160       -6.843       12.725        5.988        8.466      161.926       35.859       71.666        0.231        0.013       65.610        7.517        0.013      330.998       -1.272      866.971
01/19/2014  03:15:00      -60.174       -4.076       -7.316       11.235        8.394        6.855      126.217       70.461       46.996        0.197        0.012       60.312        5.959        0.010      331.016       -1.242      866.959
01/19/2014  03:16:00      -63.649       -7.215       -9.164       10.216       12.577        9.430      104.376      158.186       88.924        0.227        0.018       64.057        6.383        0.010      330.969       -1.318      866.954
01/19/2014  03:17:00      -61.319      -24.010      -11.349        9.328       11.234        8.341       87.019      126.212       69.572        0.237        0.014       65.852        6.513        0.010      330.738       -1.697      866.950
01/19/2014  03:18:00      -69.692      -17.007      -10.800       12.532       14.169        8.177      157.044      200.766       66.871        0.284        0.021       71.737        4.496        0.004      330.703       -1.754      866.953
01/19/2014  03:19:00      -63.337      -20.710       -9.923       17.780       17.616       11.433      316.134      310.322      130.716        0.265        0.038       66.637        7.308        0.012      330.673       -1.803      866.962
01/19/2014  03:20:00      -58.536      -17.364       -2.744       32.462       15.085       14.113     1053.799      227.551      199.185        0.261        0.074       61.057       10.905        0.032      330.582       -1.952      866.964
01/19/2014  03:21:00      -99.974       -4.955      -10.712       28.801       13.287       10.372      829.498      176.549      107.585        0.562        0.056      100.097        7.293        0.005      330.656       -1.831      866.965
01/19/2014  03:22:00     -120.275        1.894      -14.451       12.920       14.429        9.122      166.923      208.186       83.208        0.757        0.023      120.290        4.294        0.001      330.643       -1.851      866.977
01/19/2014  03:23:00     -131.174       -5.273      -15.056       23.432       15.894       15.916      549.037      252.617      253.311        0.926        0.053      131.280       11.631        0.008      330.567       -1.978      866.990
01/19/2014  03:24:00     -110.219       -9.868       -9.656       27.996       17.906       16.485      783.751      320.639      271.764        0.686        0.069      110.660       15.095        0.019      330.543       -2.016      866.998
01/19/2014  03:25:00      -84.510      -16.466       -1.990       24.010       21.629       18.137      576.485      467.829      328.936        0.439        0.069       86.099       15.598        0.033      330.502       -2.084      866.991
01/19/2014  03:26:00      -89.797       -1.231       -6.715       19.880       17.019       14.728      395.233      289.663      216.915        0.451        0.045       89.806       12.228        0.019      330.552       -2.000      866.973
01/19/2014  03:27:00      -82.116       -7.473       -6.499       24.063       18.310       13.892      579.038      335.250      192.986        0.397        0.055       82.456       11.916        0.021      330.572       -1.969      866.953
01/19/2014  03:28:00      -75.211       -1.647       -1.452       23.659       14.505       11.356      559.766      210.404      128.966        0.328        0.045       75.229       11.594        0.024      330.659       -1.828      866.943
01/19/2014  03:29:00      -49.951       -7.430       -6.198       22.661       11.180        9.165      513.532      124.993       83.997        0.166        0.036       50.500       11.240        0.050      330.681       -1.790      866.940
01/19/2014  03:30:00      -65.290      -29.914       -5.607       15.182       18.498        8.617      230.499      342.190       74.254        0.292        0.032       71.817        3.920        0.003      330.711       -1.741      866.947
01/19/2014  03:31:00      -64.706      -35.183      -10.354       13.773       13.072       12.394      189.695      170.884      153.617        0.302        0.026       73.653        6.155        0.007      330.673       -1.802      866.941
01/19/2014  03:32:00      -74.388      -26.029       -8.719       18.990       16.036       13.552      360.628      257.162      183.647        0.354        0.040       78.810        6.260        0.006      330.586       -1.946      866.916
01/19/2014  03:33:00      -80.565       -1.097       -9.733       25.075       21.225       16.290      628.754      450.511      265.370        0.397        0.067       80.573       13.236        0.027      330.534       -2.033      866.876
01/19/2014  03:34:00      -24.019       -7.333        0.314       21.329        9.532        9.914      454.940       90.863       98.290        0.064        0.032       25.113        8.559        0.116      330.497       -2.093      866.851
01/19/2014  03:35:00      -67.511      -14.011      -15.998       15.235       10.818        9.688      232.110      117.021       93.850        0.273        0.022       68.950        8.916        0.017      330.479       -2.123      866.846
01/19/2014  03:36:00      -66.697      -15.673       -5.691       14.371       16.144       14.259      206.524      260.642      203.305        0.270        0.034       68.513        8.596        0.016      330.428       -2.206      866.849
01/19/2014  03:37:00      -56.178      -10.628      -13.188       16.568       14.182       12.445      274.497      201.135      154.887        0.204        0.032       57.174        5.446        0.009      330.480       -2.121      866.849
01/19/2014  03:38:00      -40.263      -14.434       -8.793       15.489       12.026        7.474      239.923      144.631       55.858        0.117        0.022       42.773        4.537        0.011      330.616       -1.897      866.835
01/19/2014  03:39:00      -28.187        7.553       -3.849       10.308        6.480        5.818      106.260       41.995       33.851        0.052        0.009       29.181        2.701        0.009      330.766       -1.651      866.800
01/19/2014  03:40:00      -42.110       -7.905       -4.598       19.389       11.344        7.057      375.919      128.687       49.795        0.121        0.028       42.845        5.572        0.017      330.771       -1.642      866.772
01/19/2014  03:41:00      -58.994      -21.664      -16.683       15.987        7.168        8.758      255.572       51.376       76.711        0.231        0.019       62.846        4.126        0.004      330.473       -2.132      866.764
01/19/2014  03:42:00      -59.974      -24.631      -12.581       19.557       13.276       11.988      382.483      176.265      143.701        0.253        0.035       64.835        3.736        0.003      330.617       -1.895      866.758
01/19/2014  03:43:00      -71.181      -28.745      -12.990       17.682       14.097        8.637      312.652      198.714       74.593        0.332        0.029       76.766        6.074        0.006      330.524       -2.048      866.755
01/19/2014  03:44:00      -80.568      -35.295      -19.717       12.672       13.133        9.544      160.575      172.478       91.096        0.427        0.021       87.960        3.606        0.002      330.276       -2.453      866.734
01/19/2014  03:45:00      -87.709      -46.511      -23.232       16.742       21.783       14.061      280.289      474.509      197.723        0.567        0.048       99.278        8.660        0.008      330.282       -2.445      866.714
01/19/2014  03:46:00      -88.551      -24.484      -23.374       16.295       28.436       13.326      265.538      808.633      177.585        0.512        0.063       91.873       14.078        0.023      330.287       -2.435      866.699
01/19/2014  03:47:00      -70.018      -15.689       -9.050       27.452       20.084       20.598      753.602      403.374      424.261        0.341        0.079       71.754       17.817        0.062      330.283       -2.443      866.701
01/19/2014  03:48:00      -82.150      -19.301      -10.974       21.532       24.076       16.630      463.630      579.645      276.569        0.428        0.066       84.387       12.047        0.020      330.290       -2.430      866.693
01/19/2014  03:49:00      -85.707       -5.010       -8.335       36.995       22.976       15.307     1368.622      527.900      234.318        0.479        0.107       85.853       17.742        0.043      330.356       -2.323      866.674
01/19/2014  03:50:00      -86.178        2.897      -14.014       33.645       16.235       14.142     1132.001      263.561      200.001        0.461        0.080       86.227       14.841        0.030      330.398       -2.256      866.666
01/19/2014  03:51:00     -100.317      -41.685      -16.881       13.454       17.364       10.631      181.011      301.499      113.028        0.634        0.030      108.633        5.630        0.003      330.324       -2.374      866.666
01/19/2014  03:52:00     -100.859      -16.581       -9.826       35.204       24.034       14.659     1239.331      577.642      214.894        0.629        0.102      102.213       14.397        0.020      330.282       -2.444      866.665
01/19/2014  03:53:00      -69.810       12.162       -7.780       28.071       28.480       20.082      788.003      811.086      403.293        0.354        0.100       70.862       14.869        0.044      330.285       -2.440      866.670
01/19/2014  03:54:00      -54.073        6.276      -12.356       17.103       17.855        9.856      292.511      318.812       97.148        0.191        0.035       54.436        7.761        0.020      330.387       -2.272      866.670
01/19/2014  03:55:00      -39.998        0.976       -7.507       11.326       10.309        7.327      128.269      106.268       53.683        0.097        0.014       40.010        6.241        0.024      330.659       -1.826      866.655
01/19/2014  03:56:00      -41.194      -11.449       -7.233        9.648       10.981        6.090       93.076      120.577       37.089        0.107        0.013       42.755        4.283        0.010      330.728       -1.712      866.650
01/19/2014  03:57:00      -52.586      -27.825      -15.775       15.638       15.444       12.792      244.562      238.511      163.639        0.222        0.032       59.494        5.593        0.009      330.494       -2.097      866.656
01/19/2014  03:58:00      -90.860      -32.167      -10.552       17.819       17.583       19.050      317.523      309.175      362.895        0.520        0.049       96.386        6.844        0.005      330.430       -2.201      866.674
01/19/2014  03:59:00     -108.854      -11.554      -21.849       25.398       15.536       10.680      645.055      241.382      114.067        0.673        0.050      109.465        4.309        0.002      330.303       -2.411      866.670
01/19/2014  04:00:00     -108.365        7.162      -14.350       23.255       14.428       11.150      540.813      208.160      124.326        0.644        0.044      108.601        8.734        0.006      330.357       -2.322      866.642
01/19/2014  04:01:00      -57.901      -11.824      -11.702       12.853       13.122       11.891      165.204      172.194      141.387        0.205        0.024       59.096        7.909        0.018      330.472       -2.135      866.623
01/19/2014  04:02:00      -56.595      -34.757      -12.937       17.837       14.038       11.724      318.153      197.068      137.449        0.262        0.033       66.416        5.155        0.006      330.510       -2.071      866.636
01/19/2014  04:03:00      -54.848      -31.721      -13.059       29.418       13.707       14.041      865.437      187.874      197.156        0.272        0.063       63.360       16.101        0.065      330.374       -2.294      866.646
01/19/2014  04:04:00      -89.109      -23.836      -17.685        9.459       11.900        9.469       89.480      141.613       89.654        0.457        0.016       92.242        4.445        0.002      330.512       -2.068      866.637
01/19/2014  04:05:00     -103.622      -22.295      -19.181       14.721       17.089       10.915      216.717      292.049      119.146        0.612        0.031      105.994        8.188        0.006      330.296       -2.422      866.615
01/19/2014  04:06:00      -77.617      -34.474      -27.282       25.336       31.429       11.503      641.922      987.780      132.327        0.486        0.088       84.928        8.391        0.010      330.384       -2.276      866.605
01/19/2014  04:07:00      -72.091      -26.389      -15.043       29.474       31.584       13.579      868.744      997.561      184.381        0.408        0.103       76.769       10.170        0.018      330.345       -2.340      866.586
01/19/2014  04:08:00      -65.909      -13.731       -5.414       11.610       13.416       11.482      134.801      179.976      131.829        0.250        0.022       67.324        8.948        0.018      330.695       -1.766      866.565
01/19/2014  04:09:00      -78.678      -34.144      -11.103       16.556        9.898        7.596      274.097       97.978       57.699        0.395        0.021       85.768        4.729        0.003      330.530       -2.037      866.573
01/19/2014  04:10:00     -130.233      -36.035      -16.750       21.475       15.713        9.680      461.171      246.889       93.707        0.967        0.040      135.127        9.272        0.005      330.245       -2.506      866.592
01/19/2014  04:11:00     -132.076      -55.973      -19.018       17.975       24.007       15.514      323.089      576.314      240.697        1.104        0.057      143.447        7.712        0.003      330.177       -2.617      866.603
01/19/2014  04:12:00     -146.050      -16.592      -21.697       21.366       18.442       13.851      456.503      340.109      191.845        1.153        0.049      146.989       10.887        0.005      330.163       -2.640      866.604
01/19/2014  04:13:00     -116.040      -34.548      -18.421       24.789       22.801       12.746      614.511      519.867      162.462        0.815        0.065      121.074        9.818        0.007      330.197       -2.585      866.598
01/19/2014  04:14:00     -100.607      -32.378      -14.410       38.232       22.208       13.219     1461.693      493.202      174.739        0.675        0.106      105.688        8.735        0.007      330.195       -2.588      866.597
01/19/2014  04:15:00     -149.002      -43.437      -19.598       26.425       21.967       16.758      698.292      482.532      280.815        1.297        0.073      155.204       12.116        0.006      330.183       -2.607      866.597
01/19/2014  04:16:00     -155.283      -47.356      -15.519       16.019       17.796       14.569      256.606      316.695      212.258        1.369        0.039      162.344        6.846        0.002      330.231       -2.527      866.607
01/19/2014  04:17:00     -130.251      -32.974       -8.731       20.024       25.108       14.785      400.970      630.437      218.585        0.969        0.062      134.360       11.063        0.007      330.295       -2.424      866.628
01/19/2014  04:18:00     -129.729      -30.628       -9.113       33.727       24.204       19.989     1137.511      585.833      399.544        0.999        0.106      133.295       17.717        0.018      330.327       -2.372      866.642
01/19/2014  04:19:00     -112.298      -24.047       -6.160       42.892       23.192       19.563     1839.724      537.880      382.716        0.799        0.138      114.844       24.422        0.045      330.273       -2.459      866.641
01/19/2014  04:20:00     -113.249      -17.836       -4.158       51.471       36.230       26.658     2649.276     1312.602      710.628        0.892        0.234      114.645       31.290        0.074      330.246       -2.504      866.648
01/19/2014  04:21:00     -122.098      -21.201       -3.345       45.733       28.702       27.563     2091.534      823.808      759.695        0.952        0.184      123.925       27.162        0.048      330.243       -2.510      866.666
01/19/2014  04:22:00     -107.839        0.979       -8.550       25.322       23.618       17.356      641.210      557.797      301.237        0.660        0.075      107.843       10.329        0.009      330.225       -2.538      866.656
01/19/2014  04:23:00      -89.417      -14.250       -4.747       45.895       34.776       23.783     2106.367     1209.370      565.640        0.605        0.194       90.545       26.813        0.088      330.310       -2.399      866.627
01/19/2014  04:24:00     -130.662        3.614       -3.973       58.333       37.343       24.970     3402.683     1394.517      623.520        1.126        0.271      130.712       26.582        0.041      330.369       -2.301      866.615
01/19/2014  04:25:00     -148.252      -26.037       -1.331       52.857       36.797       31.857     2793.834     1354.051     1014.864        1.391        0.258      150.521       31.136        0.043      330.307       -2.406      866.617
01/19/2014  04:26:00     -144.119      -24.139       -7.096       53.349       38.810       27.896     2846.086     1506.183      778.168        1.327        0.257      146.126       27.444        0.035      330.256       -2.487      866.629
01/19/2014  04:27:00     -118.335       -7.408       -2.357       51.354       32.880       24.421     2637.185     1081.117      596.396        0.919        0.216      118.567       22.927        0.037      330.268       -2.469      866.618
01/19/2014  04:28:00      -82.393      -15.870        0.855       69.050       31.601       26.462     4767.879      998.633      700.235        0.675        0.323       83.907       34.251        0.167      330.216       -2.553      866.595
01/19/2014  04:29:00      -79.213      -28.756       -1.908       52.192       37.719       25.089     2723.969     1422.706      629.443        0.594        0.239       84.271       24.666        0.086      330.283       -2.443      866.589
01/19/2014  04:30:00     -105.634       -9.558       -4.578       59.494       37.684       27.180     3539.547     1420.071      738.770        0.848        0.285      106.066       28.616        0.073      330.271       -2.462      866.606
01/19/2014  04:31:00     -116.022       -1.733      -12.540       40.185       36.533       20.495     1614.852     1334.661      420.037        0.849        0.168      116.035       14.504        0.016      330.316       -2.388      866.603
01/19/2014  04:32:00      -73.549       -7.756       -4.338       37.184       39.528       30.252     1382.623     1562.453      915.205        0.467        0.193       73.957       20.526        0.077      330.287       -2.436      866.583
01/19/2014  04:33:00     -140.882      -15.071       -9.808       58.848       38.790       28.788     3463.057     1504.678      828.735        1.298        0.290      141.686       28.444        0.040      330.270       -2.464      866.565
01/19/2014  04:34:00     -113.824      -15.619        1.739       70.411       41.380       28.883     4957.681     1712.343      834.223        1.035        0.375      114.890       34.664        0.091      330.301       -2.414      866.560
01/19/2014  04:35:00      -41.925        1.432       12.024       45.510       34.347       28.098     2071.164     1179.730      789.490        0.297        0.202       41.950       27.088        0.417      330.272       -2.460      866.564
01/19/2014  04:36:00      -80.104       -8.265       -3.647       49.244       43.436       24.371     2424.957     1886.644      593.921        0.570        0.245       80.530       24.641        0.094      330.307       -2.403      866.571
01/19/2014  04:37:00      -69.887      -32.913       -0.915       41.322       33.246       21.077     1707.499     1105.321      444.238        0.461        0.163       77.250       16.977        0.048      330.318       -2.386      866.568
01/19/2014  04:38:00      -64.124      -35.960       -7.542       29.182       34.535       22.084      851.599     1192.659      487.690        0.400        0.127       73.519       11.806        0.026      330.211       -2.560      866.566
01/19/2014  04:39:00      -64.223      -23.692      -11.562       48.172       27.976       23.523     2320.505      782.669      553.351        0.424        0.183       68.454       21.453        0.098      330.207       -2.569      866.564
01/19/2014  04:40:00      -69.876      -12.130      -21.212       32.351       16.113       19.553     1046.590      259.619      382.304        0.358        0.084       70.921        4.556        0.004      330.378       -2.289      866.556
01/19/2014  04:41:00      -46.936      -17.746      -14.795       22.252       25.292       11.833      495.156      639.672      140.013        0.201        0.064       50.179        8.061        0.026      330.334       -2.359      866.534
01/19/2014  04:42:00      -43.632       -6.858       -3.654       14.742       21.022        9.787      217.315      441.915       95.788        0.136        0.038       44.168        8.444        0.037      330.590       -1.940      866.512
01/19/2014  04:43:00      -81.546      -31.556      -12.065       21.708       15.970       13.556      471.238      255.028      183.773        0.435        0.046       87.439       12.842        0.022      330.306       -2.405      866.517
01/19/2014  04:44:00      -40.649      -22.421       -1.522       31.959       20.326       17.189     1021.380      413.135      295.448        0.194        0.086       46.422       14.565        0.098      330.217       -2.551      866.549
01/19/2014  04:45:00      -51.623      -26.930       -4.971       41.247       22.670       20.184     1701.329      513.946      407.381        0.302        0.131       58.225       19.121        0.108      330.248       -2.501      866.554
01/19/2014  04:46:00       -5.491      -18.901       -6.193       24.199       21.260       15.941      585.568      451.992      254.116        0.086        0.065       19.683       13.617        0.479      330.196       -2.586      866.533
01/19/2014  04:47:00       -0.380      -34.545        7.531       13.464       18.951       14.115      181.268      359.130      199.224        0.099        0.037       34.547        8.943        0.067      330.174       -2.624      866.503
01/19/2014  04:48:00      -26.395      -19.479        1.247       23.866       16.679       17.690      569.564      278.192      312.919        0.112        0.058       32.805        8.706        0.070      330.309       -2.401      866.479
01/19/2014  04:49:00      -57.747      -29.722       -9.763       20.567       22.090       19.236      422.991      487.971      370.015        0.280        0.064       64.947       14.569        0.050      330.654       -1.836      866.474
01/19/2014  04:50:00      -69.218      -49.938      -11.124       14.263       18.382       12.245      203.419      337.888      149.928        0.405        0.035       85.351        7.913        0.009      330.312       -2.395      866.498
01/19/2014  04:51:00      -86.191      -33.512       -9.307       16.330       15.108       10.975      266.675      228.255      120.457        0.463        0.031       92.477        6.537        0.005      330.190       -2.598      866.518
01/19/2014  04:52:00      -79.240      -43.416      -15.027       15.167       15.263       13.033      230.034      232.963      169.859        0.451        0.032       90.354        5.874        0.004      330.140       -2.678      866.526
01/19/2014  04:53:00      -49.863      -30.950      -22.050       16.139       15.436       14.916      260.476      238.280      222.476        0.233        0.036       58.688        8.066        0.019      330.194       -2.591      866.526
01/19/2014  04:54:00      -62.859      -36.641      -16.216       28.339       20.195       14.417      803.082      407.849      207.858        0.349        0.071       72.758        9.710        0.018      330.294       -2.426      866.533
01/19/2014  04:55:00     -117.000      -28.188      -21.341       15.424       15.927        8.446      237.891      253.679       71.335        0.775        0.028      120.348        6.694        0.003      330.104       -2.738      866.553
01/19/2014  04:56:00     -121.779       -8.135      -17.231       25.245       21.035       12.715      637.290      442.492      161.670        0.822        0.062      122.050        9.988        0.007      330.069       -2.795      866.559
01/19/2014  04:57:00     -129.591       19.498      -15.094       21.936       14.790        8.712      481.209      218.746       75.895        0.909        0.039      131.050        9.214        0.005      330.218       -2.552      866.556
01/19/2014  04:58:00     -106.588      -25.423      -16.826       21.502       32.163       14.659      462.336     1034.478      214.879        0.700        0.086      109.578       11.738        0.011      330.177       -2.618      866.550
01/19/2014  04:59:00     -126.903      -24.297      -14.808       25.748       18.570       13.646      662.971      344.856      186.220        0.905        0.060      129.208       14.514        0.013      330.123       -2.707      866.554
01/19/2014  05:00:00     -130.810      -33.634      -19.965       36.909       18.842       19.384     1362.284      355.038      375.720        1.037        0.105      135.065       21.515        0.025      330.063       -2.802      866.562
01/19/2014  05:01:00      -92.322      -26.715      -12.338       20.417       17.601       12.443      416.850      309.801      154.820        0.514        0.044       96.109        8.963        0.009      330.068       -2.796      866.561
01/19/2014  05:02:00      -85.917       16.228      -13.581       13.435       13.472       14.246      180.503      181.501      202.943        0.420        0.028       87.436        8.985        0.011      330.119       -2.714      866.541
01/19/2014  05:03:00      -60.802       -9.735      -14.337       12.191       18.446       10.447      148.619      340.249      109.138        0.230        0.030       61.576        6.601        0.011      330.267       -2.469      866.528
01/19/2014  05:04:00      -87.363      -42.996      -12.199       27.062       16.877       13.514      732.349      284.822      182.619        0.541        0.060       97.370       12.235        0.016      330.138       -2.680      866.545
01/19/2014  05:05:00     -124.423      -39.513      -13.263       20.812       22.960       13.811      433.119      527.174      190.745        0.918        0.058      130.547        5.916        0.002      330.063       -2.802      866.585
01/19/2014  05:06:00     -110.631      -51.992      -13.211       22.869       21.690       13.621      522.994      470.438      185.527        0.815        0.059      122.239        9.756        0.006      330.043       -2.835      866.614
01/19/2014  05:07:00     -111.261      -15.938      -20.501       25.824       17.774       13.074      666.893      315.916      170.939        0.710        0.058      112.397       11.223        0.010      330.033       -2.853      866.593
01/19/2014  05:08:00      -82.219       -4.436       -9.082       27.816       18.971       13.723      773.731      359.890      188.328        0.409        0.066       82.339        8.910        0.012      329.950       -2.988      866.578
01/19/2014  05:09:00      -47.717      -16.472       -2.893       15.239       10.913       11.782      232.215      119.103      138.814        0.152        0.025       50.480        9.553        0.036      330.021       -2.872      866.583
01/19/2014  05:10:00      -57.829      -19.208      -19.509       11.742       14.840       11.409      137.878      220.221      130.176        0.229        0.024       60.935        6.761        0.012      330.098       -2.746      866.604
01/19/2014  05:11:00      -69.379      -16.193      -13.172        8.685       13.539        8.902       75.423      183.305       79.254        0.279        0.017       71.244        4.276        0.004      330.130       -2.694      866.634
01/19/2014  05:12:00      -32.365       -9.726       -6.494       14.977       10.497        8.404      224.311      110.185       70.630        0.079        0.020       33.795        3.910        0.013      330.104       -2.738      866.642
01/19/2014  05:13:00      -18.650       -0.754       -0.855        8.514        5.913        6.534       72.495       34.958       42.699        0.025        0.008       18.665        5.541        0.088      330.277       -2.453      866.640
01/19/2014  05:14:00        0.262        0.950        3.194        6.750        3.972        4.670       45.569       15.775       21.811        0.005        0.004        0.986        3.046        9.551      330.407       -2.240      866.628
01/19/2014  05:15:00        5.536       12.128        0.916        6.348        7.075        3.384       40.298       50.058       11.450        0.014        0.005       13.332        3.246        0.059      330.642       -1.853      866.618
01/19/2014  05:16:00      -33.741      -12.952        0.248       13.028       16.240        8.672      169.737      263.727       75.201        0.091        0.025       36.142       10.236        0.080      330.381       -2.282      866.629
01/19/2014  05:17:00      -24.609      -15.338       -7.535       11.991        9.830        7.691      143.779       96.622       59.158        0.060        0.015       28.997        4.080        0.020      330.184       -2.606      866.648
01/19/2014  05:18:00        0.909       -1.146        1.218        7.723        7.980        6.802       59.642       63.679       46.265        0.009        0.008        1.463        6.272       18.385      330.331       -2.363      866.655
01/19/2014  05:19:00        1.163       11.688        6.772       15.427        9.279        8.984      237.984       86.096       80.720        0.029        0.020       11.746       10.464        0.794      330.555       -1.998      866.664
01/19/2014  05:20:00      -48.892      -21.630       -8.809       16.061        8.708        6.156      257.948       75.824       37.900        0.165        0.019       53.463        1.934        0.001      330.206       -2.571      866.669
01/19/2014  05:21:00      -36.617       -8.319      -10.767       15.501       15.912        8.329      240.271      253.206       69.367        0.104        0.028       37.550        8.464        0.051      330.094       -2.753      866.663
01/19/2014  05:22:00       24.086       21.050        5.308       21.945       10.124        7.267      481.601      102.494       52.805        0.084        0.032       31.988        3.133        0.010      330.393       -2.262      866.647
01/19/2014  05:23:00       37.345       32.012        3.829        5.902        5.030        6.154       34.834       25.303       37.866        0.127        0.005       49.187        3.340        0.005      330.451       -2.169      866.643
01/19/2014  05:24:00       19.576        6.932        0.198       13.137       10.943        7.288      172.586      119.757       53.116        0.039        0.017       20.767        7.764        0.140      330.620       -1.891      866.655
01/19/2014  05:25:00       18.295        4.758        3.866       10.946        7.220        6.113      119.822       52.126       37.365        0.029        0.010       18.903        6.121        0.105      330.626       -1.881      866.652
01/19/2014  05:26:00       22.657       10.634        4.738        6.227        5.960        5.849       38.775       35.520       34.213        0.038        0.005       25.029        2.725        0.012      330.549       -2.004      866.642
01/19/2014  05:27:00        6.749       -0.240       11.804       11.873       16.626        8.402      140.961      276.417       70.588        0.034        0.024        6.753        5.608        0.690      330.434       -2.196      866.638
01/19/2014  05:28:00      -26.539      -20.577        2.316       21.572       10.955       10.965      465.354      120.014      120.228        0.092        0.035       33.581       11.654        0.120      330.239       -2.515      866.654
01/19/2014  05:29:00      -70.431       -8.592       -4.354       12.896       11.653        8.787      166.315      135.802       77.209        0.272        0.019       70.953        6.649        0.009      329.950       -2.991      866.661
01/19/2014  05:30:00      -55.901       -7.118      -10.031       11.919        8.544        6.376      142.060       72.997       40.651        0.177        0.013       56.353        4.177        0.005      329.950       -2.989      866.660
01/19/2014  05:31:00      -27.570      -11.432       -1.787        8.607       10.665        5.492       74.079      113.743       30.165        0.056        0.011       29.846        4.142        0.019      330.081       -2.776      866.661
01/19/2014  05:32:00        0.239        1.382       -1.581       12.280       12.403        7.345      150.786      153.832       53.942        0.018        0.018        1.402        6.789       23.444      330.290       -2.431      866.649
01/19/2014  05:33:00      -13.003       -4.896        5.630       13.400        9.487        6.029      179.560       90.004       36.345        0.027        0.015       13.894        6.961        0.251      330.361       -2.315      866.673
01/19/2014  05:34:00      -29.894      -34.241       -4.961       15.249       14.579        8.064      232.531      212.542       65.021        0.130        0.026       45.454        5.602        0.015      330.154       -2.656      866.701
01/19/2014  05:35:00      -20.088      -18.786       -2.146       16.616        8.703        7.020      276.095       75.740       49.275        0.058        0.020       27.503        3.478        0.016      330.135       -2.686      866.722
01/19/2014  05:36:00      -25.894      -17.466       -8.544        9.982        7.922        6.167       99.633       62.763       38.031        0.062        0.010       31.234        6.046        0.037      330.221       -2.547      866.716
01/19/2014  05:37:00      -50.988       -5.896      -10.175        6.255        7.166        5.763       39.121       51.346       33.216        0.143        0.006       51.328        3.155        0.004      330.296       -2.423      866.712
01/19/2014  05:38:00      -52.719       -4.977       -8.359        7.797        6.637        8.516       60.786       44.048       72.520        0.153        0.009       52.953        3.717        0.005      330.073       -2.788      866.702
01/19/2014  05:39:00      -34.005       16.383       -0.095       10.994        8.540        6.750      120.867       72.926       45.559        0.083        0.012       37.746        4.338        0.013      330.274       -2.457      866.701
01/19/2014  05:40:00        3.773       20.040        1.667       19.407        6.161        4.312      376.649       37.953       18.595        0.043        0.022       20.393        3.682        0.033      330.630       -1.873      866.715
01/19/2014  05:41:00       -2.739       11.965        8.110       10.357        7.046        5.190      107.278       49.642       26.939        0.020        0.009       12.275        3.710        0.091      330.610       -1.908      866.735
01/19/2014  05:42:00      -15.092       -9.303        1.903        7.621        7.081        6.233       58.080       50.141       38.846        0.023        0.007       17.728        4.704        0.070      330.484       -2.113      866.744
01/19/2014  05:43:00      -27.896       -6.934       -1.873        5.522        6.437        6.660       30.489       41.437       44.356        0.047        0.006       28.745        3.563        0.015      330.264       -2.473      866.753
01/19/2014  05:44:00      -18.025       11.217        0.119       15.894       16.167        9.616      252.610      261.386       92.470        0.053        0.030       21.230        8.880        0.175      330.402       -2.246      866.761
01/19/2014  05:45:00        2.074       17.931       -0.057        8.233        7.538        4.138       67.789       56.821       17.122        0.023        0.007       18.050        3.780        0.044      330.653       -1.835      866.760
01/19/2014  05:46:00       13.620        0.320       -0.277       11.975       10.355        7.866      143.391      107.220       61.872        0.025        0.016       13.624        4.529        0.110      330.660       -1.825      866.770
01/19/2014  05:47:00       13.040        1.082        4.898       13.429       11.018        8.785      180.330      121.397       77.170        0.029        0.019       13.084        6.329        0.234      330.515       -2.062      866.768
01/19/2014  05:48:00        3.869        4.405        6.375        6.469        5.850        5.109       41.854       34.220       26.105        0.009        0.005        5.863        2.597        0.196      330.483       -2.115      866.768
01/19/2014  05:49:00      -12.116        8.926        2.214        8.155        6.004        5.091       66.512       36.049       25.917        0.018        0.006       15.049        0.908        0.004      330.502       -2.084      866.777
01/19/2014  05:50:00      -43.330       -1.269       -4.546        7.455        4.917        5.522       55.574       24.177       30.497        0.100        0.006       43.348        3.330        0.006      330.232       -2.528      866.782
01/19/2014  05:51:00      -23.480      -12.177       -6.035       16.370       11.739        6.156      267.992      137.810       37.896        0.059        0.022       26.449        7.932        0.090      330.498       -2.090      866.802
01/19/2014  05:52:00       -5.664      -12.691       -0.528       14.661       10.996        8.565      214.945      120.908       73.355        0.030        0.020       13.897        4.967        0.128      330.341       -2.347      866.814
01/19/2014  05:53:00       18.048       25.609       -0.624        9.576       11.373        4.457       91.691      129.342       19.868        0.061        0.012       31.330        1.588        0.003      330.571       -1.971      866.810
01/19/2014  05:54:00        4.675       48.596       -5.713       10.706        6.657        7.517      114.613       44.322       56.511        0.132        0.011       48.820        7.393        0.023      330.631       -1.873      866.790
01/19/2014  05:55:00      -33.864       16.275       -8.074       21.633       26.271        9.819      468.005      690.187       96.404        0.137        0.063       37.572        6.258        0.028      330.407       -2.240      866.783
01/19/2014  05:56:00      -36.185      -18.919      -12.216       12.497       12.815        6.347      156.169      164.212       40.280        0.109        0.018       40.833        1.575        0.001      330.206       -2.569      866.809
01/19/2014  05:57:00      -22.115      -29.958       -1.313       22.431       15.799       10.592      503.171      249.608      112.185        0.113        0.043       37.236        8.095        0.047      329.748       -3.320      866.832
01/19/2014  05:58:00      -43.714        2.356       -8.504       16.647       25.574       10.280      277.122      654.014      105.671        0.151        0.052       43.777        6.440        0.022      329.913       -3.050      866.822
01/19/2014  05:59:00       14.713       53.676       -6.462       14.245       20.241        9.718      202.933      409.696       94.447        0.192        0.035       55.656       11.717        0.044      330.596       -1.930      866.774
01/19/2014  06:00:00        7.591       92.649      -11.490       10.587       14.153        8.503      112.078      200.310       72.298        0.458        0.019       92.959        6.651        0.005      330.562       -1.987      866.749
01/19/2014  06:01:00      -45.561       33.476      -16.203       27.920       52.049        9.123      779.537     2709.047       83.236        0.351        0.179       56.537        6.254        0.012      330.298       -2.419      866.788
01/19/2014  06:02:00      -91.391      -39.270      -15.581       24.307       13.820       12.203      590.838      190.989      148.923        0.553        0.047       99.471       10.254        0.011      329.727       -3.353      866.854
01/19/2014  06:03:00      -65.219      -21.460      -11.237       22.520       29.939       14.350      507.129      896.340      205.930        0.322        0.080       68.659       13.654        0.040      329.600       -3.563      866.875
01/19/2014  06:04:00      -59.298        8.594      -10.946       12.703       14.652       11.017      161.357      214.684      121.373        0.210        0.025       59.917        7.271        0.015      329.783       -3.262      866.832
01/19/2014  06:05:00       -3.169       17.279        4.596       27.412       11.223       16.183      751.395      125.952      261.883        0.073        0.057       17.567       14.702        0.700      330.212       -2.560      866.793
01/19/2014  06:06:00      -37.584       -3.700       -5.724       35.089        9.971       10.216     1231.218       99.430      104.362        0.145        0.072       37.765       13.468        0.127      330.103       -2.739      866.810
01/19/2014  06:07:00      -97.194      -27.552      -16.112       13.170       10.409        7.764      173.442      108.342       60.276        0.540        0.017      101.024        4.708        0.002      329.705       -3.389      866.853
01/19/2014  06:08:00     -106.717      -29.386      -16.906       25.943       15.273       13.270      673.033      233.277      176.090        0.681        0.054      110.689       11.024        0.010      329.635       -3.505      866.894
01/19/2014  06:09:00     -103.550      -21.421       -8.660       27.729       22.761       14.852      768.897      518.083      220.569        0.638        0.075      105.743       12.887        0.015      329.707       -3.386      866.912
01/19/2014  06:10:00      -71.806       -0.145       -8.276       25.884       17.129       16.485      669.997      293.395      271.748        0.323        0.062       71.806        9.189        0.016      329.692       -3.412      866.908
01/19/2014  06:11:00      -69.170       -0.825       -7.378       22.730       14.085       10.419      516.663      198.393      108.559        0.283        0.041       69.175        5.002        0.005      329.692       -3.412      866.879
01/19/2014  06:12:00      -72.051        3.571      -10.953       16.081       12.025       12.647      258.600      144.591      159.937        0.294        0.028       72.140        6.363        0.008      329.914       -3.048      866.863
01/19/2014  06:13:00     -112.465      -31.653      -16.797       23.891       18.664       15.474      570.758      348.356      239.460        0.755        0.058      116.834        8.852        0.006      329.785       -3.257      866.884
01/19/2014  06:14:00     -132.324      -15.512       -7.073       44.765       39.447       31.780     2003.944     1556.073     1009.999        1.118        0.229      133.231       24.281        0.033      329.592       -3.575      866.904
01/19/2014  06:15:00      -66.329      -11.406        1.822       43.647       40.109       29.114     1905.018     1608.739      847.643        0.445        0.218       67.303       22.280        0.110      329.577       -3.599      866.905
01/19/2014  06:16:00      -35.396       -8.110       -3.206       30.070       27.113       15.840      904.212      735.097      250.918        0.161        0.095       36.313       17.187        0.224      329.745       -3.324      866.888
01/19/2014  06:17:00      -46.149      -10.111      -10.853       24.002       22.522       11.337      576.096      507.250      128.530        0.178        0.061       47.243        6.306        0.018      329.874       -3.114      866.905
01/19/2014  06:18:00      -47.656      -26.345       -7.279       41.214       26.411       24.666     1698.630      697.518      608.409        0.301        0.150       54.454       27.763        0.260      329.803       -3.230      866.941
01/19/2014  06:19:00      -64.670      -35.974       -3.589       38.795       38.460       25.598     1505.060     1479.199      655.253        0.456        0.182       74.002       20.945        0.080      329.658       -3.468      866.974
01/19/2014  06:20:00      -77.923      -22.852       -7.772       38.003       25.363       19.309     1444.194      643.277      372.829        0.456        0.123       81.205       15.233        0.035      329.632       -3.509      866.977
01/19/2014  06:21:00      -62.609      -20.946       -5.785       27.809       34.620       16.308      773.328     1198.547      265.936        0.331        0.112       66.020        8.226        0.016      329.669       -3.450      866.951
01/19/2014  06:22:00      -49.997        1.043      -10.567       10.914       13.357       14.128      119.109      178.410      199.597        0.155        0.025       50.008        8.571        0.029      329.819       -3.203      866.907
01/19/2014  06:23:00      -56.499      -22.057       -8.641       23.548       11.016        7.175      554.494      121.350       51.481        0.224        0.036       60.652        4.190        0.005      329.895       -3.080      866.891
01/19/2014  06:24:00     -100.153      -35.282      -19.648       17.588       15.065       11.087      309.321      226.949      122.917        0.616        0.033      106.186        5.835        0.003      329.703       -3.393      866.934
01/19/2014  06:25:00      -93.971      -53.184      -11.141       27.800       27.472       18.209      772.851      754.727      331.562        0.682        0.093      107.978       13.236        0.015      329.614       -3.538      866.976
01/19/2014  06:26:00      -88.252      -33.380       -5.555       57.186       23.918       22.890     3270.240      572.088      523.935        0.665        0.218       94.353       23.556        0.062      329.633       -3.508      866.993
01/19/2014  06:27:00      -83.154      -44.155      -11.156       27.033       23.721       19.684      730.800      562.699      387.473        0.533        0.084       94.150        9.321        0.010      329.647       -3.484      866.990
01/19/2014  06:28:00      -80.591      -34.415       -7.710       26.151       42.766       18.981      683.879     1828.927      360.263        0.531        0.144       87.631       15.497        0.031      329.617       -3.535      866.984
01/19/2014  06:29:00      -66.102      -29.934      -12.121       16.054       16.894       12.682      257.739      285.407      160.824        0.306        0.035       72.564        7.064        0.009      329.687       -3.418      866.992
01/19/2014  06:30:00      -60.504      -11.917      -12.322        8.086        7.948        6.516       65.381       63.174       42.463        0.206        0.009       61.667        4.000        0.004      329.902       -3.067      867.009
01/19/2014  06:31:00      -90.825      -41.585      -16.799       29.202       14.727        9.382      852.741      216.871       88.028        0.571        0.058       99.893        7.677        0.006      329.777       -3.270      867.036
01/19/2014  06:32:00     -127.572      -28.693      -16.425       23.369       17.582       13.826      546.116      309.143      191.156        0.921        0.052      130.759       10.370        0.006      329.715       -3.372      867.058
01/19/2014  06:33:00     -104.531      -12.773      -18.130       22.774       21.334       14.485      518.676      455.119      209.819        0.630        0.059      105.308       12.272        0.014      329.717       -3.369      867.058
01/19/2014  06:34:00      -68.895       -3.881       -8.632       24.312       15.547        8.285      591.077      241.707       68.641        0.287        0.045       69.004        7.893        0.013      329.845       -3.159      867.036
01/19/2014  06:35:00      -26.948      -15.005       -4.923       11.130       10.919        6.769      123.885      119.214       45.824        0.063        0.014       30.844        4.704        0.023      330.233       -2.526      867.039
01/19/2014  06:36:00     -105.246      -52.136      -18.757       30.783       21.403       10.598      947.591      458.108      112.318        0.783        0.076      117.451       10.225        0.008      329.713       -3.376      867.074
01/19/2014  06:37:00     -134.828      -49.256      -19.696       18.477       20.817       14.377      341.414      433.344      206.686        1.099        0.049      143.544        7.604        0.003      329.634       -3.505      867.120
01/19/2014  06:38:00     -132.823      -14.374      -18.069       25.258       22.165       17.328      637.957      491.294      300.261        0.980        0.071      133.599        7.429        0.003      329.606       -3.550      867.129
01/19/2014  06:39:00      -99.202       -7.441       -7.566       30.950       22.054       14.971      957.893      486.384      224.119        0.581        0.083       99.481       17.535        0.031      329.596       -3.569      867.108
01/19/2014  06:40:00      -50.308        0.749       -3.924       28.322       10.605        9.960      802.161      112.464       99.207        0.178        0.051       50.314       11.189        0.049      329.594       -3.570      867.083
01/19/2014  06:41:00      -45.389        7.797       -9.507       16.550       19.451        7.322      273.914      378.347       53.605        0.146        0.035       46.053        7.568        0.027      330.077       -2.781      867.081
01/19/2014  06:42:00      -93.012      -40.004      -14.509       27.963       18.445       12.812      781.949      340.225      164.139        0.587        0.064      101.250        5.344        0.003      329.728       -3.352      867.108
01/19/2014  06:43:00     -110.884      -23.097       -7.485       27.101       16.010       22.872      734.464      256.305      523.138        0.720        0.076      113.264       19.504        0.030      329.606       -3.553      867.139
01/19/2014  06:44:00     -105.438      -22.107      -14.450       24.517       28.569       17.433      601.092      816.187      303.918        0.677        0.086      107.731       13.182        0.015      329.653       -3.475      867.149
01/19/2014  06:45:00     -111.917      -29.442      -14.779       25.748       19.991       15.334      662.983      399.622      235.141        0.745        0.065      115.725       10.684        0.009      329.576       -3.601      867.141
01/19/2014  06:46:00     -126.386      -11.912      -19.859       27.353       20.251       15.737      748.170      410.091      247.637        0.896        0.070      126.946       10.292        0.007      329.461       -3.789      867.123
01/19/2014  06:47:00      -98.348      -13.695      -10.313       28.525       22.713       19.705      813.691      515.897      388.283        0.584        0.086       99.297       18.890        0.036      329.551       -3.642      867.125
01/19/2014  06:48:00     -107.798      -18.046      -13.838       34.716       38.870       16.804     1205.225     1510.908      282.368        0.757        0.150      109.298       14.013        0.016      329.547       -3.648      867.149
01/19/2014  06:49:00     -114.531      -33.068       -6.101       34.553       32.901       21.982     1193.938     1082.477      483.216        0.850        0.138      119.209       18.223        0.023      329.475       -3.766      867.166
01/19/2014  06:50:00      -12.861      -16.463        9.463       31.476       25.894       24.629      990.753      670.491      606.568        0.140        0.113       20.891       24.135        1.335      329.537       -3.664      867.159
01/19/2014  06:51:00      -68.911      -21.994      -12.037       32.434       29.717       20.533     1051.935      883.094      421.596        0.387        0.118       72.336       21.904        0.092      329.544       -3.653      867.151
01/19/2014  06:52:00      -72.839      -28.302       -9.809       29.906       23.329       18.101      894.351      544.232      327.658        0.398        0.088       78.144       16.122        0.043      329.645       -3.488      867.155
01/19/2014  06:53:00      -85.039      -20.800      -16.089       16.328       19.236       14.468      266.602      370.032      209.333        0.438        0.042       87.545        9.361        0.011      329.592       -3.575      867.165
01/19/2014  06:54:00      -61.298      -20.764       -8.673       16.342       14.986       14.751      267.052      224.587      217.581        0.249        0.035       64.719        8.883        0.019      329.665       -3.454      867.187
01/19/2014  06:55:00      -84.539      -32.052      -10.758       20.452       15.133        9.483      418.280      229.001       89.920        0.451        0.037       90.411        5.664        0.004      329.634       -3.507      867.200
01/19/2014  06:56:00      -92.358      -15.984      -15.073       17.018       14.894       10.650      289.629      221.829      113.424        0.482        0.031       93.731        5.616        0.004      329.600       -3.562      867.191
01/19/2014  06:57:00      -77.539        2.502       -5.176       23.079       25.371       12.200      532.662      643.683      148.828        0.369        0.066       77.580       10.000        0.017      329.572       -3.607      867.162
01/19/2014  06:58:00      -16.049       11.979       -1.100       17.573        8.393        4.706      308.793       70.451       22.148        0.040        0.020       20.026        5.281        0.070      329.848       -3.156      867.139
01/19/2014  06:59:00      -40.488      -15.953       -7.274       32.255       17.649        9.007     1040.372      311.498       81.121        0.169        0.072       43.518       15.084        0.120      329.910       -3.054      867.152
01/19/2014  07:00:00      -96.666      -39.171      -17.991       18.646       18.247       10.112      347.679      332.960      102.257        0.599        0.039      104.301        6.055        0.003      329.606       -3.553      867.192
01/19/2014  07:01:00      -97.770       -7.604      -12.937       19.282       15.387       11.947      371.781      236.747      142.742        0.527        0.038       98.065        9.113        0.009      329.544       -3.654      867.207
01/19/2014  07:02:00      -84.096       11.392       -9.141       12.517       10.490        9.783      156.686      110.030       95.715        0.382        0.018       84.865        4.344        0.003      329.631       -3.510      867.183
01/19/2014  07:03:00        8.441       34.498        5.348       36.588       10.646        9.145     1338.711      113.330       83.631        0.141        0.077       35.516        7.232        0.041      330.150       -2.660      867.159
01/19/2014  07:04:00       21.017       24.890       -3.384       17.587        6.091        6.886      309.301       37.099       47.420        0.073        0.020       32.576        3.339        0.011      330.188       -2.600      867.159
01/19/2014  07:05:00      -36.028       -2.716       -5.097       20.225       16.702        8.740      409.050      278.971       76.395        0.105        0.038       36.130       12.466        0.119      330.075       -2.784      867.192
01/19/2014  07:06:00      -60.101      -34.797       -6.143        9.793        9.636       10.832       95.900       92.847      117.327        0.258        0.015       69.447        3.746        0.003      329.680       -3.429      867.226
01/19/2014  07:07:00      -78.798      -12.420       -9.617       13.444       13.902       11.318      180.754      193.254      128.103        0.348        0.025       79.771        6.100        0.006      329.571       -3.609      867.233
01/19/2014  07:08:00      -78.453        2.441      -13.399       16.994       10.582       12.047      288.789      111.970      145.140        0.344        0.027       78.491        7.912        0.010      329.667       -3.452      867.215
01/19/2014  07:09:00     -102.392        2.947      -13.997       13.319        8.379       11.103      177.394       70.212      123.285        0.553        0.019      102.435        4.573        0.002      329.641       -3.495      867.188
01/19/2014  07:10:00      -49.330        6.183       -6.673       17.197       11.446       10.363      295.751      131.021      107.398        0.153        0.027       49.716        6.636        0.018      329.600       -3.562      867.159
01/19/2014  07:11:00       -6.988       13.027       -4.647       11.967        8.650        8.075      143.220       74.817       65.207        0.026        0.014       14.782        6.268        0.180      330.025       -2.867      867.141
01/19/2014  07:12:00      -22.850       -6.278       -5.089       24.369       24.297        9.118      593.847      590.324       83.139        0.093        0.063       23.697        9.981        0.177      329.959       -2.974      867.160
01/19/2014  07:13:00      -95.308      -32.624       -7.744       13.122       18.722        9.344      172.200      350.510       87.313        0.541        0.031      100.737        9.226        0.008      329.641       -3.494      867.202
01/19/2014  07:14:00      -86.644       -5.868      -12.716       13.298       17.141       12.324      176.841      293.803      151.874        0.416        0.031       86.842        8.682        0.010      329.614       -3.540      867.210
01/19/2014  07:15:00      -73.610       11.201      -15.083       10.709        9.879       12.012      114.673       97.603      144.285        0.306        0.018       74.458        4.564        0.004      329.718       -3.370      867.177
01/19/2014  07:16:00      -63.424       -9.703       -7.916        7.222       11.885        8.036       52.151      141.244       64.583        0.222        0.013       64.162        5.538        0.007      329.796       -3.241      867.162
01/19/2014  07:17:00      -84.030      -16.780      -13.723       12.227        9.855        8.221      149.492       97.113       67.585        0.392        0.016       85.689        5.460        0.004      329.766       -3.290      867.175
01/19/2014  07:18:00      -74.142      -13.662      -16.265       16.818       12.887       11.136      282.856      166.083      124.001        0.326        0.029       75.390        8.733        0.013      329.680       -3.432      867.172
01/19/2014  07:19:00      -60.999      -11.758      -13.206       12.193        9.629        7.979      148.674       92.720       63.658        0.217        0.015       62.122        6.513        0.011      329.714       -3.374      867.143
01/19/2014  07:20:00      -66.289      -12.539      -11.797       13.198       13.513        8.914      174.177      182.597       79.457        0.256        0.022       67.464        7.800        0.013      329.651       -3.479      867.141
01/19/2014  07:21:00      -66.874       -4.844      -10.793       10.903       18.034       10.455      118.877      325.238      109.317        0.258        0.028       67.050        8.417        0.016      329.659       -3.464      867.145
01/19/2014  07:22:00      -20.807       15.742       -2.893       27.875       11.781       15.835      776.989      138.792      250.757        0.093        0.058       26.091       18.687        0.513      329.760       -3.299      867.114
01/19/2014  07:23:00       10.918       45.689       -5.511       17.169       17.059        9.253      294.780      291.016       85.619        0.145        0.034       46.975       10.915        0.054      330.224       -2.540      867.109
01/19/2014  07:24:00      -46.593      -12.857       -3.612       24.202       30.300        6.322      585.714      918.066       39.970        0.195        0.077       48.335        5.159        0.011      329.917       -3.043      867.142
01/19/2014  07:25:00     -116.142      -18.028      -14.427       20.697       14.577       12.216      428.379      212.503      149.231        0.741        0.040      117.532        9.569        0.007      329.596       -3.569      867.179
01/19/2014  07:26:00      -89.508      -12.531      -10.007       23.269       19.360       17.422      541.442      374.791      303.526        0.474        0.061       90.380       10.905        0.015      329.529       -3.678      867.180
01/19/2014  07:27:00      -75.084        3.572       -9.306       15.764       12.347        8.017      248.515      152.449       64.267        0.310        0.023       75.169        5.072        0.005      329.582       -3.593      867.163
01/19/2014  07:28:00      -39.328       -9.859       -7.699        9.303        9.873        9.347       86.547       97.481       87.366        0.099        0.014       40.545        5.282        0.017      329.698       -3.402      867.161
01/19/2014  07:29:00      -51.780      -26.591      -12.087       15.645       11.463        8.020      244.767      131.396       64.318        0.199        0.022       58.208        4.623        0.006      329.830       -3.186      867.188
01/19/2014  07:30:00      -90.827       -2.482       -9.037       23.991       21.188       16.571      575.546      448.920      274.600        0.482        0.065       90.861       15.793        0.030      329.598       -3.564      867.185
01/19/2014  07:31:00      -91.125       20.015      -15.385       17.897       17.318       11.637      320.286      299.920      135.420        0.485        0.038       93.297        5.981        0.004      329.563       -3.621      867.147
01/19/2014  07:32:00      -73.041      -29.372      -11.748       18.035       18.990        8.545      325.278      360.607       73.011        0.355        0.038       78.725        6.112        0.006      329.632       -3.508      867.158
01/19/2014  07:33:00     -101.422      -56.523      -11.865       22.225       20.188       15.794      493.961      407.574      249.459        0.739        0.058      116.109        8.040        0.005      329.579       -3.596      867.241
01/19/2014  07:34:00      -85.066      -36.624       -5.101       31.159       32.091       13.282      970.853     1029.845      176.399        0.539        0.109       92.615       11.244        0.015      329.587       -3.583      867.254
01/19/2014  07:35:00      -26.654       12.857        7.401       19.878        8.404       10.914      395.124       70.632      119.122        0.076        0.029       29.593       12.164        0.169      329.759       -3.301      867.181
01/19/2014  07:36:00      -21.477        9.625        5.044       18.380        9.570        9.655      337.833       91.586       93.226        0.055        0.026       23.535       10.725        0.208      329.875       -3.111      867.115
01/19/2014  07:37:00      -66.322       -1.487      -12.878       17.614       17.383        9.187      310.246      302.186       84.405        0.263        0.035       66.339        8.189        0.015      329.992       -2.920      867.138
01/19/2014  07:38:00      -96.441      -35.043       -8.641       17.808       18.401        9.288      317.141      338.584       86.268        0.567        0.037      102.610        7.277        0.005      329.786       -3.259      867.189
01/19/2014  07:39:00      -52.752      -23.403       -6.604       30.119       14.803        7.671      907.141      219.125       58.848        0.228        0.059       57.710        6.647        0.013      329.813       -3.214      867.180
01/19/2014  07:40:00      -29.089        0.457       -7.938       16.417       10.240       10.116      269.520      104.859      102.343        0.069        0.024       29.093        8.013        0.076      329.827       -3.192      867.145
01/19/2014  07:41:00      -96.697      -19.343       -7.370       23.217       15.577       11.074      539.032      242.646      122.634        0.534        0.045       98.613        9.408        0.009      329.889       -3.088      867.172
01/19/2014  07:42:00     -115.770      -42.787      -18.755       13.588       14.349       13.114      184.633      205.897      171.975        0.807        0.028      123.423        8.618        0.005      329.787       -3.255      867.209
01/19/2014  07:43:00      -67.986      -18.666       -7.681       15.737       17.194        9.919      247.638      295.622       98.390        0.284        0.032       70.502        6.074        0.007      329.790       -3.250      867.170
01/19/2014  07:44:00      -51.546       -8.798       -5.568       17.720       12.787       10.455      314.008      163.518      109.300        0.168        0.029       52.291        5.799        0.012      329.926       -3.028      867.121
01/19/2014  07:45:00      -62.240      -24.483      -13.838       14.754       14.932       10.121      217.679      222.957      102.432        0.260        0.027       66.882        7.775        0.014      329.910       -3.054      867.144
01/19/2014  07:46:00      -67.989      -22.812       -7.795        9.778       12.758       10.165       95.609      162.776      103.335        0.278        0.018       71.714        4.791        0.004      329.820       -3.204      867.179
01/19/2014  07:47:00      -64.953        9.187      -10.755       18.672       14.002       13.635      348.655      196.058      185.915        0.257        0.037       65.599        8.604        0.017      329.823       -3.197      867.153
01/19/2014  07:48:00      -72.546       18.873      -10.893       27.708       22.528       17.796      767.751      507.527      316.683        0.366        0.080       74.961       14.614        0.038      330.039       -2.844      867.130
01/19/2014  07:49:00     -102.215      -42.605      -18.325       22.803       16.645       11.922      519.985      277.066      142.127        0.677        0.047      110.739        7.380        0.004      329.895       -3.079      867.175
01/19/2014  07:50:00      -92.176      -41.245       -5.608       47.480       27.397       14.922     2254.330      750.581      222.669        0.673        0.161      100.983       16.248        0.026      329.767       -3.289      867.244
01/19/2014  07:51:00       12.127      -19.811       -1.553       17.118       17.257       12.297      293.034      297.805      151.222        0.064        0.037       23.228        8.451        0.132      330.045       -2.834      867.258
01/19/2014  07:52:00      -32.755       15.971       -8.319       20.899       10.503       10.112      436.776      110.316      102.255        0.102        0.032       36.441       10.310        0.080      329.971       -2.955      867.219
01/19/2014  07:53:00      -40.250       10.948       -4.641       11.885       12.382        6.129      141.264      153.323       37.565        0.105        0.017       41.712        6.094        0.021      330.001       -2.905      867.197
01/19/2014  07:54:00      -29.042      -17.142       -8.185        9.882       11.602        6.322       97.659      134.614       39.969        0.074        0.014       33.724        3.997        0.014      330.152       -2.659      867.196
01/19/2014  07:55:00      -33.661      -24.713       -4.178       24.523       14.513       10.651      601.387      210.619      113.435        0.134        0.046       41.758       10.901        0.068      330.149       -2.665      867.241
01/19/2014  07:56:00      -74.136      -10.342      -10.561       13.047       11.476        9.164      170.224      131.694       83.982        0.305        0.019       74.854        7.401        0.010      330.055       -2.818      867.263
01/19/2014  07:57:00      -50.260       -8.463       -9.547       16.590       11.424        8.816      275.221      130.519       77.722        0.159        0.024       50.968        3.513        0.005      330.048       -2.828      867.257
01/19/2014  07:58:00      -31.795        1.221       -6.998        9.947        6.405        5.004       98.943       41.020       25.037        0.061        0.008       31.818        5.171        0.026      330.095       -2.753      867.238
01/19/2014  07:59:00      -19.734        4.814       -0.837        3.682        3.261        2.337       13.559       10.631        5.462        0.022        0.001       20.312        1.649        0.007      330.278       -2.453      867.237
01/19/2014  08:00:00      -26.137        7.474        1.620        4.965        8.577        6.654       24.649       73.564       44.280        0.044        0.007       27.184        5.603        0.042      330.351       -2.331      867.256
01/19/2014  08:01:00      -11.971       -3.601       -3.187        6.615        4.628        5.468       43.764       21.421       29.901        0.013        0.005       12.501        4.302        0.118      330.482       -2.117      867.268
01/19/2014  08:02:00       22.539       12.064        9.507       23.634        9.972       10.810      558.567       99.436      116.856        0.076        0.039       25.565        5.097        0.040      330.644       -1.851      867.256
01/19/2014  08:03:00       61.320       39.863        5.281       14.062       11.000       13.885      197.734      121.002      192.787        0.294        0.026       73.138        7.054        0.009      330.431       -2.200      867.259
01/19/2014  08:04:00       50.596       28.627       -4.731       23.927       15.979       19.999      572.506      255.337      399.973        0.231        0.061       58.133       10.106        0.030      330.398       -2.254      867.298
01/19/2014  08:05:00      -11.461        4.511       -7.210       22.600       13.122        9.099      510.739      172.193       82.788        0.048        0.038       12.317        6.790        0.304      330.466       -2.144      867.334
01/19/2014  08:06:00      -33.588        7.522       -2.574       12.970        9.206       11.713      168.209       84.751      137.193        0.079        0.020       34.420        7.670        0.050      330.430       -2.202      867.329
01/19/2014  08:07:00        9.195       20.013       17.942       16.237       13.195       11.509      263.647      174.111      132.467        0.069        0.029       22.024        7.666        0.121      330.775       -1.636      867.286
01/19/2014  08:08:00       53.148       49.698       -2.185       22.372       15.516       15.505      500.521      240.735      240.413        0.314        0.049       72.764       12.099        0.028      330.612       -1.902      867.252
01/19/2014  08:09:00       45.251       35.213       -3.958       19.500       16.333       12.915      380.264      266.752      166.798        0.206        0.041       57.338       10.113        0.031      330.541       -2.020      867.270
01/19/2014  08:10:00       53.159       25.805        4.739       13.568       15.004       15.521      184.091      225.119      240.908        0.208        0.033       59.091        8.566        0.021      330.538       -2.025      867.326
01/19/2014  08:11:00       15.238       17.656       20.921       13.695       10.720       12.324      187.563      114.923      151.876        0.072        0.023       23.322        4.581        0.039      330.714       -1.736      867.373
01/19/2014  08:12:00       40.085       23.206       11.328       24.159       15.553       21.462      583.656      241.891      460.616        0.178        0.064       46.318       18.855        0.166      330.730       -1.710      867.353
01/19/2014  08:13:00       27.615       35.022        2.165       15.630       17.561       19.908      244.298      308.385      396.345        0.147        0.047       44.599        9.698        0.047      330.682       -1.790      867.335
01/19/2014  08:14:00       -6.778       16.920        2.565       17.981       15.873       15.277      323.322      251.963      233.383        0.057        0.040       18.227       12.848        0.497      330.891       -1.446      867.343
01/19/2014  08:15:00        0.210        1.660       14.064        5.489        3.723        6.609       30.124       13.862       43.676        0.014        0.004        1.673        3.687        4.858      331.385       -0.635      867.375
01/19/2014  08:16:00       15.869       16.992        8.886       20.236       18.975       10.958      409.485      360.040      120.074        0.075        0.044       23.250       13.184        0.322      331.182       -0.967      867.405
01/19/2014  08:17:00       23.963       26.458       18.490       24.735       17.046       19.279      611.832      290.582      371.684        0.144        0.064       35.697       15.964        0.200      330.945       -1.356      867.414
01/19/2014  08:18:00       27.566       38.241        0.411       15.975       20.073       17.738      255.204      402.907      314.643        0.160        0.049       47.141       17.070        0.131      330.856       -1.502      867.376
01/19/2014  08:19:00       45.867       51.455      -10.139       26.136       21.938       20.271      683.074      481.273      410.902        0.321        0.079       68.930       17.184        0.062      330.889       -1.449      867.338
01/19/2014  08:20:00       63.357       71.732        5.948       25.641       16.669       22.015      657.441      277.840      484.646        0.531        0.071       95.706       10.248        0.011      330.741       -1.691      867.368
01/19/2014  08:21:00        0.099       16.938       40.409       21.208       30.008       12.749      449.786      900.501      162.542        0.172        0.076       16.938        9.568        0.319      331.114       -1.080      867.453
01/19/2014  08:22:00      -12.375        8.037       31.799       11.963       15.388       12.641      143.112      236.783      159.795        0.088        0.027       14.756       11.071        0.563      331.239       -0.874      867.495
01/19/2014  08:23:00       37.174       55.491       34.732       36.660       22.378       18.370     1343.950      500.775      337.464        0.392        0.109       66.792       20.554        0.095      330.912       -1.412      867.456
01/19/2014  08:24:00       96.994       65.112        3.071       36.074       30.398       27.782     1301.340      924.015      771.848        0.833        0.150      116.822       22.379        0.037      330.836       -1.537      867.391
01/19/2014  08:25:00      102.595       78.578        4.823       24.347       29.132       31.562      592.762      848.702      996.175        0.958        0.122      129.229       11.249        0.008      330.722       -1.724      867.377
01/19/2014  08:26:00       49.099       32.822        3.499       37.892       25.198       19.837     1435.819      634.937      393.512        0.298        0.123       59.059       15.668        0.070      330.826       -1.552      867.442
01/19/2014  08:27:00       14.290       11.442        5.525       16.013       12.810       14.244      256.412      164.093      202.892        0.049        0.031       18.307        6.690        0.134      330.975       -1.307      867.500
01/19/2014  08:28:00       34.232       36.254        7.673       20.669       23.118       21.915      427.202      534.447      480.248        0.199        0.072       49.862       14.938        0.090      331.044       -1.194      867.461
01/19/2014  08:29:00       96.504       69.665       -5.391       27.643       19.723       17.848      764.143      388.995      318.557        0.783        0.074      119.022        9.147        0.006      330.876       -1.470      867.390
01/19/2014  08:30:00       84.632       64.565        5.763       47.406       23.973       27.485     2247.292      574.702      755.407        0.747        0.179      106.448       20.736        0.038      330.910       -1.414      867.387
01/19/2014  08:31:00        9.881       17.238       41.801       17.018       23.295       13.316      289.610      542.656      177.326        0.158        0.050       19.869       12.564        0.400      331.251       -0.855      867.437
01/19/2014  08:32:00       39.273       36.755       34.754       24.047       21.644       21.206      578.255      468.456      449.706        0.280        0.075       53.790       16.820        0.098      331.140       -1.038      867.473
01/19/2014  08:33:00       63.550       56.330       31.540       32.717       27.271       28.348     1070.389      743.706      803.621        0.541        0.131       84.922       25.682        0.091      331.126       -1.059      867.461
01/19/2014  08:34:00       47.137       65.129       52.970       35.103       24.374       30.187     1232.249      594.100      911.238        0.600        0.137       80.396       20.783        0.067      331.178       -0.975      867.463
01/19/2014  08:35:00       35.404       61.500       48.107       28.507       23.905       17.934      812.666      571.458      321.634        0.453        0.085       70.963       17.304        0.059      331.123       -1.065      867.503
01/19/2014  08:36:00       79.384       60.659       29.814       21.409       14.643       22.143      458.356      214.428      490.330        0.602        0.058       99.907       16.544        0.027      331.064       -1.162      867.506
01/19/2014  08:37:00       69.654       44.320       10.386       24.950       30.132       23.856      622.510      907.929      569.113        0.451        0.105       82.559       12.067        0.021      331.212       -0.918      867.471
01/19/2014  08:38:00       70.827       39.833        3.350       35.565       27.128       25.660     1264.855      735.911      658.449        0.464        0.133       81.260       16.912        0.043      331.198       -0.940      867.456
01/19/2014  08:39:00       27.388       34.791       13.094       18.636       21.943       25.870      347.294      481.513      669.239        0.181        0.075       44.277       17.688        0.160      331.405       -0.600      867.509
01/19/2014  08:40:00       31.816       40.070        2.884       22.467       21.792       18.837      504.746      474.886      354.847        0.198        0.067       51.165        6.292        0.015      331.365       -0.667      867.552
01/19/2014  08:41:00       10.231       32.041        2.735       13.204       27.450       21.993      174.349      753.496      483.676        0.127        0.071       33.634       18.135        0.291      331.472       -0.490      867.558
01/19/2014  08:42:00       44.826       51.850       -0.050       35.969       20.011       21.699     1293.740      400.425      470.826        0.343        0.108       68.540       15.061        0.048      331.401       -0.607      867.542
01/19/2014  08:43:00       85.329       43.251        3.092       14.493       17.874       17.539      210.042      319.496      307.612        0.500        0.042       95.664        8.923        0.009      331.296       -0.781      867.548
01/19/2014  08:44:00       43.270       64.615       33.262       36.800       25.451       35.237     1354.273      647.733     1241.658        0.520        0.162       77.765       26.093        0.113      331.488       -0.465      867.554
01/19/2014  08:45:00       37.722       61.416       35.849       24.048       21.830       33.714      578.313      476.533     1136.646        0.434        0.110       72.075       11.566        0.026      331.419       -0.577      867.542
01/19/2014  08:46:00       34.562       46.874       -2.964       24.798       24.363       18.277      614.937      593.573      334.062        0.247        0.077       58.239        8.482        0.021      331.565       -0.337      867.554
01/19/2014  08:47:00       14.230       18.420        3.457       25.506       18.109       20.134      650.542      327.919      405.378        0.097        0.069       23.276        3.441        0.022      331.810        0.067      867.618
01/19/2014  08:48:00       32.637       49.704       47.930       33.841       30.900       15.414     1145.181      954.809      237.588        0.408        0.117       59.461       11.211        0.036      331.858        0.146      867.651
01/19/2014  08:49:00       64.827       42.962       35.425       41.514       29.560       33.387     1723.434      873.816     1114.690        0.551        0.186       77.771       23.169        0.089      331.671       -0.164      867.618
01/19/2014  08:50:00       66.600       40.516       15.903       51.577       42.870       28.586     2660.182     1837.864      817.135        0.582        0.266       77.956       21.487        0.076      331.849        0.129      867.589
01/19/2014  08:51:00        7.663       15.134        6.457       36.435       33.556       23.300     1327.485     1126.030      542.907        0.166        0.150       16.964        9.167        0.292      331.962        0.315      867.625
01/19/2014  08:52:00       21.185        5.254       10.057       31.766       24.049       15.866     1009.082      578.369      251.745        0.121        0.092       21.827       12.882        0.348      332.052        0.464      867.684
01/19/2014  08:53:00       54.047       43.878        2.307       21.338       19.961       23.574      455.314      398.430      555.715        0.313        0.070       69.616       15.031        0.047      331.708       -0.104      867.716
01/19/2014  08:54:00       48.151       62.217        5.788       37.269       27.099       29.752     1388.996      734.382      885.152        0.462        0.150       78.673       20.955        0.071      331.905        0.223      867.701
01/19/2014  08:55:00      107.241       83.748       -4.422       32.801       31.638       33.692     1075.907     1000.953     1135.121        1.087        0.161      136.068       25.520        0.035      331.746       -0.041      867.666
01/19/2014  08:56:00       77.437       61.625       -9.198       48.214       35.661       29.350     2324.601     1271.682      861.449        0.717        0.223       98.965       12.962        0.017      331.836        0.108      867.667
01/19/2014  08:57:00       49.827       39.331        6.452       25.583       21.345       24.509      654.506      455.598      600.677        0.289        0.086       63.479       13.027        0.042      331.788        0.029      867.681
01/19/2014  08:58:00       74.301       68.729       16.729       50.833       31.508       37.807     2584.012      992.754     1429.338        0.776        0.250      101.214       23.682        0.055      331.801        0.050      867.685
01/19/2014  08:59:00      146.217       94.427        3.881       29.072       32.772       34.337      845.188     1074.001     1179.052        1.670        0.155      174.057       18.898        0.012      331.736       -0.056      867.675
01/19/2014  09:00:00       81.591       97.798       27.334       74.163       46.779       53.409     5500.221     2188.262     2852.499        1.375        0.527      127.364       58.219        0.209      331.851        0.133      867.690
01/19/2014  09:01:00       13.823       42.153       71.629       25.731       38.727       20.744      662.107     1499.751      430.331        0.484        0.130       44.362       23.031        0.270      331.911        0.232      867.741
01/19/2014  09:02:00       55.061        5.885       31.692       40.910       32.233       33.942     1673.667     1038.948     1152.085        0.397        0.193       55.375       31.524        0.324      331.879        0.178      867.754
01/19/2014  09:03:00       41.637       87.600       81.696       44.255       26.666       23.158     1958.463      711.065      536.304        0.964        0.160       96.991       15.943        0.027      331.907        0.226      867.707
01/19/2014  09:04:00       95.979       60.683       42.310       38.444       31.255       35.389     1477.967      976.866     1252.402        0.920        0.185      113.553       26.952        0.056      331.909        0.228      867.679
01/19/2014  09:05:00       15.201       17.227       32.322       41.310       27.211       22.142     1706.550      740.419      490.286        0.225        0.147       22.975       23.567        1.052      332.287        0.852      867.697
01/19/2014  09:06:00       16.825      -44.238        0.185       19.677       21.101       20.750      387.193      445.262      430.574        0.175        0.063       47.329        8.584        0.033      332.158        0.640      867.740
01/19/2014  09:07:00      -14.203      -27.905        4.074       20.748       26.760       17.758      430.496      716.111      315.358        0.123        0.073       31.311       17.211        0.302      332.247        0.786      867.766
01/19/2014  09:08:00       11.961       17.460       36.714       19.093       16.586       13.169      364.533      275.109      173.433        0.130        0.041       21.164       10.033        0.225      332.641        1.437      867.754
01/19/2014  09:09:00       -2.428       14.113       45.407       14.686       24.049       12.362      215.690      578.343      152.823        0.161        0.047       14.320        5.273        0.136      332.668        1.481      867.745
01/19/2014  09:10:00       -2.804       47.598       56.374       25.191       41.107       33.847      634.569     1689.823     1145.641        0.446        0.174       47.680       28.085        0.347      332.606        1.378      867.757
01/19/2014  09:11:00       12.523       37.586       52.391       33.081       44.161       29.076     1094.346     1950.213      845.406        0.410        0.194       39.618       33.774        0.727      332.335        0.931      867.791
01/19/2014  09:12:00       -3.920       -8.566       41.635       17.966       27.548       16.334      322.778      758.917      266.805        0.159        0.067        9.421       13.967        2.198      332.769        1.647      867.811
01/19/2014  09:13:00       -3.651       53.571       68.669       24.042       32.724       22.438      577.999     1070.865      503.462        0.487        0.108       53.695       21.655        0.163      332.422        1.075      867.796
01/19/2014  09:14:00       -7.894       58.049       74.337       20.972       34.409       17.194      439.825     1183.988      295.630        0.544        0.096       58.583       13.815        0.056      332.502        1.206      867.787
01/19/2014  09:15:00        2.273       65.340       83.826       35.223       49.417       39.693     1240.629     2442.079     1575.502        0.828        0.263       65.379       39.831        0.371      332.531        1.253      867.779
01/19/2014  09:16:00       54.276       86.684       89.101       51.888       39.490       33.854     2692.400     1559.475     1146.115        1.190        0.270      102.274       31.443        0.095      332.320        0.907      867.791
01/19/2014  09:17:00       91.098       58.444       25.709       38.172       30.244       39.651     1457.112      914.685     1572.216        0.816        0.197      108.233       23.090        0.046      332.099        0.541      867.804
01/19/2014  09:18:00       29.395       14.631       39.771       38.968       46.664       39.559     1518.541     2177.490     1564.889        0.396        0.263       32.835       39.727        1.464      332.397        1.033      867.803
01/19/2014  09:19:00       45.299       65.560       72.681       39.097       28.723       17.263     1528.565      825.006      298.013        0.714        0.133       79.688       18.375        0.053      332.292        0.859      867.795
01/19/2014  09:20:00       -1.480       31.435       53.794       22.170       41.575       22.332      491.500     1728.499      498.709        0.330        0.136       31.470       20.239        0.414      332.702        1.535      867.793
01/19/2014  09:21:00       31.424       35.648       37.599       42.941       35.544       41.583     1843.932     1263.365     1729.151        0.425        0.242       47.521       35.233        0.550      332.524        1.243      867.795
01/19/2014  09:22:00        3.375       18.002       30.349       22.558       22.152       18.807      508.855      490.723      353.696        0.130        0.068       18.316       15.338        0.701      332.943        1.934      867.806
01/19/2014  09:23:00       49.098       43.186       15.230       23.649       19.330       24.142      559.287      373.653      582.833        0.301        0.076       65.389       14.378        0.048      332.670        1.483      867.833
01/19/2014  09:24:00       73.527       50.528       -3.547       19.135       19.742       21.220      366.129      389.730      450.303        0.459        0.060       89.215       10.860        0.015      332.302        0.877      867.819
01/19/2014  09:25:00       33.280       67.866       43.180       47.501       32.502       52.432     2256.336     1056.358     2749.094        0.682        0.303       75.587       45.880        0.368      332.774        1.655      867.777
01/19/2014  09:26:00        8.122       74.707       89.641       28.564       40.569       23.251      815.883     1645.840      540.619        0.834        0.150       75.147       20.044        0.071      332.806        1.707      867.767
01/19/2014  09:27:00       21.221       26.576       60.569       44.432       38.250       21.901     1974.206     1463.025      479.633        0.437        0.196       34.009       26.447        0.605      332.867        1.808      867.817
01/19/2014  09:28:00       56.476      -26.935       14.018       44.009       38.978       34.523     1936.780     1519.272     1191.849        0.438        0.232       62.570       31.117        0.247      332.564        1.308      867.851
01/19/2014  09:29:00       44.815       22.773       13.129       36.344       23.747       28.753     1320.906      563.942      826.745        0.270        0.136       50.270       19.425        0.149      332.668        1.480      867.843
01/19/2014  09:30:00      100.922       60.203       -0.287       47.398       48.573       36.079     2246.555     2359.328     1301.692        0.986        0.295      117.514       19.908        0.029      332.619        1.401      867.821
01/19/2014  09:31:00      119.460      102.237       70.479       51.514       39.093       44.265     2653.725     1528.259     1959.352        1.791        0.307      157.236       28.717        0.033      332.652        1.453      867.812
01/19/2014  09:32:00       41.631      102.053       85.180       54.239       41.163       30.287     2941.867     1694.405      917.325        1.248        0.278      110.218       29.368        0.071      332.685        1.507      867.818
01/19/2014  09:33:00       68.681       40.293       17.496       32.125       19.137       23.189     1032.038      366.218      537.710        0.429        0.097       79.628       10.866        0.019      332.571        1.322      867.828
01/19/2014  09:34:00       18.548       35.529       45.079       29.306       22.572       26.917      858.816      509.498      724.548        0.287        0.105       40.079       19.921        0.247      333.156        2.288      867.837
01/19/2014  09:35:00        0.301       37.155       71.904       28.298       56.779       32.524      800.783     3223.886     1057.828        0.582        0.254       37.156       38.023        1.047      333.073        2.149      867.857
01/19/2014  09:36:00       22.085       62.919       87.518       32.972       36.022       23.608     1087.154     1297.614      557.333        0.752        0.147       66.682       24.009        0.130      332.928        1.910      867.874
01/19/2014  09:37:00       39.154      107.108      101.617       50.222       40.815       28.471     2522.296     1665.853      810.609        1.416        0.250      114.040       24.060        0.045      332.810        1.715      867.857
01/19/2014  09:38:00       41.632       56.718       63.204       40.055       51.250       36.379     1604.364     2626.558     1323.463        0.725        0.278       70.357       32.165        0.209      332.910        1.881      867.843
01/19/2014  09:39:00       67.481       80.959       64.657       39.515       26.807       34.554     1561.396      718.595     1194.001        0.938        0.174      105.395       24.560        0.054      332.693        1.520      867.858
01/19/2014  09:40:00       67.743       69.696       57.722       24.331       19.424       18.792      592.008      377.291      353.147        0.705        0.066       97.194       11.904        0.015      332.618        1.397      867.892
01/19/2014  09:41:00       72.485       66.008       39.310       41.955       27.342       31.743     1760.223      747.582     1007.639        0.734        0.176       98.036       19.228        0.038      332.791        1.683      867.899
01/19/2014  09:42:00       99.350       75.193       35.700       25.539       19.232       25.960      652.265      369.852      673.942        0.925        0.085      124.597       14.379        0.013      332.626        1.410      867.859
01/19/2014  09:43:00      100.780       74.864      -13.073       41.067       31.573       27.852     1686.534      996.838      775.754        0.969        0.173      125.543       22.358        0.032      332.757        1.629      867.818
01/19/2014  09:44:00      101.412       79.910       24.913       38.789       26.470       38.582     1504.559      700.681     1488.559        1.049        0.185      129.112       22.633        0.031      333.044        2.102      867.815
01/19/2014  09:45:00       17.051       56.022       66.487       36.175       52.093       40.138     1308.657     2713.653     1611.092        0.674        0.282       58.559       30.420        0.270      333.556        2.948      867.806
01/19/2014  09:46:00       52.130      113.333      106.476       55.094       41.330       41.766     3035.371     1708.199     1744.375        1.669        0.324      124.747       43.096        0.119      332.975        1.988      867.796
01/19/2014  09:47:00       64.880       59.087       42.506       47.045       26.205       30.444     2213.223      686.679      926.827        0.667        0.191       87.753       21.719        0.061      332.957        1.958      867.795
01/19/2014  09:48:00       74.597       41.351        6.744       33.314       21.319       27.063     1109.790      454.511      732.411        0.481        0.115       85.291       13.469        0.025      332.905        1.871      867.793
01/19/2014  09:49:00      127.398       71.526       19.142       45.779       39.136       39.295     2095.695     1531.633     1544.115        1.344        0.259      146.103       28.932        0.039      332.936        1.923      867.794
01/19/2014  09:50:00        8.335       28.477       58.105       43.211       26.737       28.729     1867.219      714.842      825.332        0.383        0.170       29.672       11.094        0.140      333.768        3.300      867.782
01/19/2014  09:51:00       29.416       36.944        1.931       47.520       37.938       30.640     2258.112     1439.298      938.814        0.343        0.232       47.224       21.020        0.198      333.302        2.527      867.803
01/19/2014  09:52:00       28.459       36.435       19.432       24.102       27.068       19.669      580.899      732.700      386.853        0.211        0.085       46.232       14.838        0.103      333.514        2.879      867.828
01/19/2014  09:53:00       33.295      -36.903        6.535       22.483       30.496       23.897      505.497      930.022      571.070        0.226        0.100       49.703       15.365        0.096      333.415        2.715      867.818
01/19/2014  09:54:00       14.550       23.656       69.895       28.428       59.911       27.053      808.171     3589.301      731.845        0.539        0.256       27.772       31.310        1.271      333.756        3.279      867.759
01/19/2014  09:55:00       38.764       79.989       71.754       57.766       38.591       34.994     3336.875     1489.279     1224.565        0.955        0.303       88.887       34.852        0.154      333.703        3.192      867.750
01/19/2014  09:56:00        4.784       48.033        5.815       34.648       39.923       35.806     1200.472     1593.844     1282.074        0.322        0.204       48.270       25.251        0.274      333.430        2.741      867.765
01/19/2014  09:57:00       22.424       51.130        3.912       30.392       44.553       33.272      923.652     1984.980     1107.004        0.357        0.201       55.831       30.043        0.290      333.498        2.852      867.767
01/19/2014  09:58:00       67.240       52.254       14.067       47.102       28.168       27.995     2218.629      793.450      783.745        0.562        0.190       85.157       19.206        0.051      333.351        2.609      867.754
01/19/2014  09:59:00       58.225       71.326        2.939       39.043       37.657       27.957     1524.344     1418.028      781.570        0.610        0.186       92.073       22.240        0.058      333.460        2.788      867.722
01/19/2014  10:00:00       -6.051       55.057       81.297       33.449       45.529       36.935     1118.862     2072.891     1364.230        0.712        0.228       55.389       31.071        0.315      333.984        3.656      867.701
01/19/2014  10:01:00        1.372      -11.756       34.018       25.620       34.638       25.046      656.374     1199.758      627.299        0.189        0.124       11.836       17.851        2.275      333.901        3.519      867.733
01/19/2014  10:02:00        1.714       35.142       27.036       22.671       39.669       24.542      513.973     1573.633      602.306        0.233        0.134       35.184       22.693        0.416      333.871        3.470      867.759
01/19/2014  10:03:00       47.634       66.326        7.238       33.736       26.800       34.908     1138.094      718.231     1218.600        0.490        0.154       81.659       24.732        0.092      333.444        2.763      867.753
01/19/2014  10:04:00       90.147       82.386        5.469       20.871       22.030       28.445      435.594      485.304      809.103        0.834        0.087      122.123       16.179        0.018      333.249        2.441      867.702
01/19/2014  10:05:00       62.125       50.788       20.500       44.888       58.215       39.739     2014.944     3389.014     1579.161        0.692        0.349       80.243       30.380        0.143      333.742        3.256      867.685
01/19/2014  10:06:00       75.899       71.280       24.764       26.502       21.075       38.660      702.353      444.170     1494.558        0.705        0.132      104.122       20.021        0.037      333.318        2.554      867.699
01/19/2014  10:07:00       36.606       28.955       18.331       24.920       19.941       20.654      620.989      397.649      426.592        0.198        0.072       46.673        9.809        0.044      333.451        2.775      867.719
01/19/2014  10:08:00       23.325       33.945        7.123       20.631       20.124       22.188      425.638      404.956      492.305        0.153        0.066       41.187       14.821        0.129      333.631        3.074      867.710
01/19/2014  10:09:00       -4.947       37.555       17.763       22.379       23.311       31.816      500.823      543.408     1012.256        0.190        0.103       37.880       17.200        0.206      333.914        3.542      867.698
01/19/2014  10:10:00       27.919        7.864       18.128       30.034       39.792       24.601      902.023     1583.383      605.206        0.213        0.155       29.005       17.173        0.351      334.203        4.022      867.698
01/19/2014  10:11:00       54.757       -1.728       38.489       37.991       60.114       40.267     1443.345     3613.691     1621.461        0.558        0.334       54.784       41.161        0.564      333.901        3.520      867.686
01/19/2014  10:12:00        9.835       36.138       54.546       35.848       28.493       21.897     1285.088      811.845      479.493        0.348        0.129       37.452       18.311        0.239      334.168        3.964      867.670
01/19/2014  10:13:00       -1.105       49.377       16.169       14.785       16.456       38.524      218.607      270.794     1484.093        0.234        0.099       49.389       18.238        0.136      333.843        3.423      867.649
01/19/2014  10:14:00       49.013       52.258       22.436       33.834       24.404       29.963     1144.734      595.532      897.783        0.414        0.132       71.647       17.345        0.059      333.771        3.305      867.622
01/19/2014  10:15:00       19.883       46.812       57.716       29.808       27.660       14.519      888.490      765.085      210.791        0.389        0.093       50.860       11.050        0.047      334.098        3.846      867.614
01/19/2014  10:16:00       21.306       22.426       47.189       24.636       36.282       21.572      606.955     1316.374      465.338        0.279        0.119       30.933       12.568        0.165      334.229        4.064      867.608
01/19/2014  10:17:00       14.771       50.603       53.813       21.333       37.202       18.159      455.102     1384.014      329.746        0.392        0.108       52.715       23.408        0.197      333.994        3.675      867.630
01/19/2014  10:18:00       21.498       44.097       51.205       27.434       35.480       18.030      752.633     1258.810      325.070        0.368        0.117       49.058       15.404        0.099      334.081        3.819      867.654
01/19/2014  10:19:00        8.650       33.633       65.740       27.205       33.358       16.070      740.087     1112.743      258.245        0.382        0.106       34.728        8.483        0.060      334.210        4.033      867.652
01/19/2014  10:20:00       -5.190       21.604       60.113       30.095       45.404       32.641      905.702     2061.512     1065.405        0.407        0.202       22.218       31.633        2.027      334.446        4.425      867.628
01/19/2014  10:21:00       12.414       50.288       75.653       34.899       32.822       20.086     1217.937     1077.251      403.443        0.555        0.135       51.798       19.192        0.137      334.291        4.167      867.608
01/19/2014  10:22:00       46.691      -23.705       17.572       39.412       33.241       32.130     1553.308     1104.941     1032.311        0.337        0.185       52.364       33.663        0.413      334.050        3.768      867.582
01/19/2014  10:23:00       38.362       93.964       96.974       39.765       36.485       23.322     1581.226     1331.125      543.915        1.158        0.173      101.493       21.627        0.045      334.127        3.895      867.566
01/19/2014  10:24:00       -0.365       72.718       88.462       27.071       39.975       27.187      732.831     1597.990      739.111        0.809        0.153       72.718       21.690        0.089      334.191        4.001      867.565
01/19/2014  10:25:00       34.965       53.436       37.283       34.757       31.706       43.178     1208.028     1005.293     1864.369        0.477        0.204       63.859       17.329        0.074      334.311        4.200      867.562
01/19/2014  10:26:00       25.076       46.449       36.956       26.521       29.186       32.139      703.389      851.818     1032.946        0.337        0.129       52.785       14.519        0.076      334.327        4.227      867.537
01/19/2014  10:27:00       39.032       25.701       36.458       31.601       28.688       26.978      998.638      823.028      727.834        0.303        0.127       46.734       13.047        0.078      334.507        4.526      867.507
01/19/2014  10:28:00        8.395      -22.732       14.630       31.597       54.444       38.923      998.389     2964.198     1515.024        0.314        0.274       24.233       42.382        3.059      334.068        3.797      867.515
01/19/2014  10:29:00       20.318      -22.238       27.687       34.139       51.473       23.050     1165.454     2649.509      531.298        0.301        0.217       30.122       25.041        0.691      334.345        4.256      867.523
01/19/2014  10:30:00       55.623       60.492       38.569       34.286       26.691       32.029     1175.508      712.429     1025.850        0.558        0.146       82.178       16.878        0.042      334.272        4.134      867.506
01/19/2014  10:31:00       54.901       84.697       76.841       47.388       33.509       32.690     2245.585     1122.857     1068.636        1.026        0.222      100.935       31.218        0.096      334.294        4.173      867.478
01/19/2014  10:32:00       27.466        4.266       31.376       39.164       53.790       26.655     1533.829     2893.355      710.503        0.345        0.257       27.796       19.615        0.498      334.662        4.782      867.468
01/19/2014  10:33:00       28.993        5.704       40.377       35.500       49.447       32.376     1260.264     2445.028     1048.177        0.363        0.238       29.549       36.904        1.560      334.715        4.870      867.467
01/19/2014  10:34:00        0.878       56.378       75.388       24.377       43.354       29.171      594.251     1879.585      850.966        0.609        0.166       56.385       27.052        0.230      334.853        5.100      867.466
01/19/2014  10:35:00       74.974       77.512       77.653       44.346       33.989       36.419     1966.606     1155.228     1326.321        1.105        0.222      107.839       19.989        0.034      334.349        4.263      867.466
01/19/2014  10:36:00       89.906       55.569       17.343       40.106       40.066       44.178     1608.497     1605.300     1951.683        0.832        0.258      105.693       34.624        0.107      334.233        4.071      867.439
01/19/2014  10:37:00       57.052       42.740       12.996       46.030       34.962       35.220     2118.755     1222.310     1240.449        0.492        0.229       71.286       16.604        0.054      334.713        4.866      867.413
01/19/2014  10:38:00       45.276       63.498        7.745       51.344       30.403       37.537     2636.230      924.316     1409.059        0.555        0.248       77.987       29.192        0.140      334.363        4.287      867.410
01/19/2014  10:39:00       23.577       45.508        6.456       19.935       38.541       34.436      397.404     1485.393     1185.843        0.287        0.153       51.253       29.482        0.331      334.596        4.674      867.404
01/19/2014  10:40:00       13.782       53.218       17.605       23.444       26.930       25.378      549.632      725.239      644.061        0.263        0.096       54.973       19.962        0.132      334.533        4.569      867.393
01/19/2014  10:41:00       40.905       63.620       27.011       20.040       40.082       26.422      401.604     1606.542      698.105        0.458        0.135       75.636       15.754        0.043      334.635        4.740      867.374
01/19/2014  10:42:00       68.061       43.205       57.790       47.611       32.356       23.920     2266.774     1046.921      572.171        0.686        0.194       80.616       20.083        0.062      334.666        4.790      867.347
01/19/2014  10:43:00       41.498       29.737       23.305       40.520       41.614       41.877     1641.904     1731.704     1753.653        0.414        0.256       51.053       19.190        0.141      334.768        4.958      867.351
01/19/2014  10:44:00       57.637       51.261        8.006       30.702       31.131       30.350      942.628      969.159      921.145        0.442        0.142       77.134       15.207        0.039      334.686        4.823      867.367
01/19/2014  10:45:00       28.820       41.019       17.703       41.695       33.358       26.335     1738.490     1112.726      693.557        0.318        0.177       50.132       18.082        0.130      335.070        5.460      867.379
01/19/2014  10:46:00       70.991       94.292       29.984       56.757       37.033       47.174     3221.318     1371.479     2225.417        1.082        0.341      118.028       36.530        0.096      334.826        5.054      867.377
01/19/2014  10:47:00        4.746       79.670       80.677       34.850       40.169       34.669     1214.497     1613.548     1201.922        0.845        0.201       79.812       23.151        0.084      334.939        5.244      867.364
01/19/2014  10:48:00       61.056       64.438       85.670       60.281       45.297       41.555     3633.752     2051.786     1726.857        1.131        0.371       88.770       41.261        0.216      334.853        5.099      867.347
01/19/2014  10:49:00       27.296       17.522       54.086       29.127       46.704       20.256      848.357     2181.242      410.305        0.371        0.172       32.436       24.289        0.561      335.032        5.397      867.340
01/19/2014  10:50:00       27.392      -50.089       34.185       27.824       48.953       26.003      774.197     2396.407      676.161        0.414        0.192       57.090       18.870        0.109      334.853        5.099      867.341
01/19/2014  10:51:00       58.386       -8.165       11.344       37.359       46.183       36.014     1395.660     2132.864     1297.010        0.421        0.241       58.954       26.832        0.207      334.896        5.171      867.342
01/19/2014  10:52:00       25.586       10.932       33.713       45.648       48.343       34.760     2083.739     2337.070     1208.257        0.377        0.281       27.824       33.320        1.434      335.210        5.694      867.328
01/19/2014  10:53:00        2.956       58.474       98.974       41.305       44.806       24.201     1706.097     2007.604      585.711        0.876        0.215       58.549       22.376        0.146      335.321        5.877      867.297
01/19/2014  10:54:00      105.930       90.519       59.391       32.289       23.996       36.290     1042.565      575.800     1316.978        1.294        0.147      139.337       21.822        0.025      334.673        4.801      867.276
01/19/2014  10:55:00       55.038       38.310       25.619       40.123       44.439       36.536     1609.895     1974.861     1334.894        0.504        0.246       67.058       29.272        0.191      334.862        5.115      867.289
01/19/2014  10:56:00       36.817       44.700       21.732       49.725       35.806       41.243     2472.621     1282.064     1701.024        0.464        0.273       57.910       21.771        0.141      335.071        5.462      867.309
01/19/2014  10:57:00       17.371       26.545       70.444       33.867       61.717       37.325     1146.991     3808.964     1393.119        0.616        0.317       31.724       41.142        1.682      335.519        6.207      867.296
01/19/2014  10:58:00      102.805       93.394       46.496       28.622       33.309       45.057      819.210     1109.509     2030.106        1.271        0.198      138.893       30.052        0.047      334.835        5.070      867.269
01/19/2014  10:59:00       85.370       85.758       51.599       58.632       33.662       45.784     3437.679     1133.136     2096.142        1.198        0.333      121.006       28.422        0.055      334.970        5.294      867.237
01/19/2014  11:00:00       12.701       50.848       74.047       22.823       43.628       20.122      520.904     1903.435      404.900        0.553        0.141       52.410       20.926        0.159      335.313        5.865      867.241
01/19/2014  11:01:00       51.256       64.296       72.647       48.810       35.559       21.109     2382.431     1264.427      445.608        0.806        0.205       82.226       20.477        0.062      335.312        5.864      867.254
01/19/2014  11:02:00        3.376       14.369       46.882       49.570       50.424       27.276     2457.174     2542.614      743.996        0.408        0.287       14.760       27.438        3.455      335.463        6.114      867.224
01/19/2014  11:03:00       10.430      -44.500        9.796       37.496       46.620       38.225     1405.965     2173.455     1461.160        0.361        0.252       45.706       29.961        0.430      335.541        6.243      867.226
01/19/2014  11:04:00       35.933      -71.428        3.365       36.538       59.634       39.877     1335.020     3556.175     1590.190        0.644        0.324       79.957       40.935        0.262      335.446        6.087      867.228
01/19/2014  11:05:00       10.425       31.815       62.049       32.073       38.282       23.455     1028.650     1465.484      550.114        0.401        0.152       33.479       24.861        0.551      335.611        6.362      867.210
01/19/2014  11:06:00      -28.373      -23.612        9.573       46.000       26.639       22.860     2115.974      709.658      522.563        0.240        0.167       36.913       12.547        0.116      335.407        6.020      867.176
01/19/2014  11:07:00        0.427       30.412       64.434       46.386       66.699       51.498     2151.697     4448.724     2652.092        0.716        0.463       30.415       51.661        2.885      335.710        6.524      867.126
01/19/2014  11:08:00        6.259       77.225       81.910       30.352       43.975       31.580      921.269     1933.824      997.299        0.828        0.193       77.479       25.185        0.106      335.746        6.586      867.102
01/19/2014  11:09:00        6.005       12.767       27.851       21.794       40.404       29.805      474.985     1632.486      888.359        0.198        0.150       14.109       21.603        2.344      335.569        6.291      867.084
01/19/2014  11:10:00       25.379       32.701       61.503       38.958       33.333       31.370     1517.713     1111.086      984.066        0.455        0.181       41.394       18.876        0.208      335.751        6.593      867.058
01/19/2014  11:11:00      -15.596       -8.202       43.413       33.505       51.919       34.964     1122.570     2695.627     1222.514        0.362        0.252       17.621       23.485        1.776      335.936        6.902      867.034
01/19/2014  11:12:00       26.286      -39.012       31.082       39.383       47.567       39.984     1551.025     2262.655     1598.701        0.429        0.271       47.041       31.009        0.435      335.906        6.851      867.029
01/19/2014  11:13:00       39.514      -46.494        3.514       44.252       37.053       34.921     1958.226     1372.944     1219.482        0.414        0.228       61.016       27.400        0.202      335.630        6.392      867.030
01/19/2014  11:14:00       41.301      -55.366        0.997       44.567       47.853       38.711     1986.234     2289.901     1498.542        0.527        0.289       69.073       14.881        0.046      335.691        6.494      867.038
01/19/2014  11:15:00       30.527      -28.774       22.973       32.162       29.208       33.814     1034.421      853.129     1143.383        0.266        0.152       41.950       22.730        0.294      335.848        6.755      867.038
01/19/2014  11:16:00        4.108        8.202       41.537       23.407       43.464       33.419      547.865     1889.134     1116.822        0.268        0.178        9.173       32.939       12.895      336.123        7.213      867.024
01/19/2014  11:17:00       25.309       52.982       44.541       42.303       71.056       54.036     1789.580     5049.014     2919.913        0.759        0.488       58.716       45.652        0.605      335.671        6.460      867.013
01/19/2014  11:18:00       56.412       44.055       74.957       52.706       49.067       35.622     2777.926     2407.549     1268.938        0.860        0.323       71.577       29.951        0.175      335.809        6.690      867.013
01/19/2014  11:19:00       44.270       66.882       57.957       56.639       53.001       40.601     3207.960     2809.129     1648.418        0.873        0.383       80.206       35.616        0.197      335.762        6.612      867.004
01/19/2014  11:20:00       32.541       59.762       77.215       44.945       51.338       33.959     2020.042     2635.557     1153.224        0.820        0.290       68.047       38.994        0.328      335.791        6.661      866.991
01/19/2014  11:21:00       91.967      100.350       49.952       45.253       33.283       46.387     2047.794     1107.780     2151.777        1.316        0.265      136.118       24.152        0.031      335.568        6.288      866.959
01/19/2014  11:22:00       74.231       71.346       62.736       67.591       54.221       43.871     4568.484     2939.918     1924.661        1.198        0.472      102.958       45.516        0.195      335.771        6.627      866.908
01/19/2014  11:23:00       81.777       92.879       65.659       54.859       40.089       44.249     3009.529     1607.101     1958.009        1.310        0.329      123.750       35.881        0.084      335.670        6.459      866.878
01/19/2014  11:24:00       47.576       19.957       34.428       57.783       61.348       37.252     3338.913     3763.569     1387.705        0.617        0.425       51.592       30.466        0.349      335.842        6.745      866.872
01/19/2014  11:25:00       65.181       72.649        3.780       32.653       23.789       35.121     1066.220      565.906     1233.476        0.620        0.143       97.603        9.150        0.009      335.764        6.615      866.858
01/19/2014  11:26:00       68.273       50.780       23.782       42.060       34.016       32.511     1769.029     1157.059     1056.958        0.589        0.199       85.087       20.053        0.056      335.740        6.576      866.834
01/19/2014  11:27:00        2.589      -64.356       -1.082       40.260       48.273       25.362     1620.837     2330.280      643.248        0.437        0.230       64.408       12.445        0.037      335.896        6.835      866.814
01/19/2014  11:28:00       56.955       24.667       39.221       65.615       59.325       46.571     4305.330     3519.480     2168.882        0.769        0.500       62.067       49.577        0.638      336.177        7.304      866.783
01/19/2014  11:29:00      -11.736        9.385       21.382       22.524       26.833       22.529      507.346      720.002      507.567        0.121        0.087       15.027        8.643        0.331      336.364        7.616      866.762
01/19/2014  11:30:00        5.967        8.502       44.235       26.769       32.820       21.781      716.574     1077.151      474.414        0.217        0.113       10.387       10.978        1.117      336.576        7.972      866.771
01/19/2014  11:31:00       23.026      -49.408       18.862       22.850       42.295       25.257      522.116     1788.825      637.932        0.314        0.147       54.510       16.712        0.094      336.068        7.123      866.779
01/19/2014  11:32:00        6.393       14.171       50.877       28.589       35.865       22.313      817.359     1286.319      497.853        0.272        0.130       15.546       22.648        2.122      336.376        7.638      866.763
01/19/2014  11:33:00       46.906       37.198       67.485       39.564       45.256       38.292     1565.329     2048.110     1466.264        0.661        0.254       59.865       28.589        0.228      336.152        7.262      866.725
01/19/2014  11:34:00       42.997      -23.291       33.866       34.565       47.018       34.060     1194.749     2210.645     1160.066        0.405        0.228       48.900       31.915        0.426      335.999        7.005      866.701
01/19/2014  11:35:00       37.586       60.663       77.037       59.898       57.998       56.122     3587.711     3363.825     3149.653        1.056        0.505       71.363       44.789        0.394      336.186        7.320      866.665
01/19/2014  11:36:00       68.566       77.035       71.012       41.709       35.454       40.720     1739.614     1256.981     1658.124        1.017        0.233      103.130       31.996        0.096      335.973        6.964      866.671
01/19/2014  11:37:00       75.092       63.911       55.599       33.150       34.297       34.247     1098.912     1176.272     1172.855        0.813        0.172       98.607       21.101        0.046      335.973        6.963      866.657
01/19/2014  11:38:00       34.311       62.994       77.676       53.638       56.759       47.567     2877.045     3221.568     2262.625        0.977        0.418       71.732       47.708        0.442      336.328        7.555      866.644
01/19/2014  11:39:00       92.416      -84.349       -1.586       39.967       50.675       33.945     1597.322     2567.905     1152.293        1.049        0.266      125.122       32.721        0.068      335.889        6.823      866.621
01/19/2014  11:40:00       36.587       32.345       47.349       43.536       56.390       31.976     1895.357     3179.877     1022.475        0.536        0.305       48.834       29.768        0.372      336.463        7.781      866.591
01/19/2014  11:41:00       81.912       84.856       45.547       42.955       34.357       44.730     1845.126     1180.381     2000.809        1.050        0.251      117.941       26.429        0.050      336.064        7.116      866.559
01/19/2014  11:42:00       24.434       38.657       57.934       43.947       56.378       34.884     1931.301     3178.529     1216.864        0.589        0.316       45.732       23.259        0.259      336.543        7.916      866.555
01/19/2014  11:43:00      103.688       58.519       32.241       44.725       43.827       45.210     2000.367     1920.846     2043.917        1.059        0.298      119.062       34.632        0.085      336.257        7.438      866.555
01/19/2014  11:44:00       16.479       43.243       16.395       32.093       42.695       59.798     1029.970     1822.870     3575.793        0.442        0.321       46.276       37.995        0.674      336.213        7.365      866.540
01/19/2014  11:45:00       18.368       82.132      110.683       52.079       55.833       39.869     2712.242     3117.344     1589.554        1.338        0.371       84.161       41.261        0.240      336.416        7.703      866.522
01/19/2014  11:46:00       35.177       59.600       72.169       53.795       39.401       31.795     2893.874     1552.427     1010.912        0.773        0.273       69.207       26.491        0.147      336.400        7.678      866.510
01/19/2014  11:47:00        1.888       -2.255       36.302       16.091       24.792       22.779      258.932      614.667      518.875        0.136        0.070        2.941       18.326       38.825      336.774        8.302      866.509
01/19/2014  11:48:00       38.045      -35.753       19.650       33.282       63.421       36.768     1107.662     4022.227     1351.899        0.480        0.324       52.208       40.187        0.593      336.683        8.149      866.487
01/19/2014  11:49:00       94.352      105.796       66.833       68.527       50.934       47.935     4696.002     2594.240     2297.727        1.707        0.479      141.757       40.030        0.080      336.460        7.775      866.454
01/19/2014  11:50:00      102.670      101.260       67.065       41.690       38.499       38.852     1738.059     1482.181     1509.503        1.501        0.236      144.204       20.509        0.020      336.275        7.467      866.424
01/19/2014  11:51:00       39.063       43.685       13.912       53.819       44.691       29.589     2896.522     1997.298      875.510        0.470        0.288       58.602       13.088        0.050      336.480        7.811      866.399
01/19/2014  11:52:00       59.906      101.309       89.723       79.956       60.155       50.246     6392.939     3618.624     2524.682        1.722        0.627      117.696       36.452        0.096      336.521        7.876      866.401
01/19/2014  11:53:00       15.405       44.595       80.305       43.080       48.365       35.197     1855.850     2339.186     1238.799        0.705        0.272       47.180       28.290        0.360      336.744        8.252      866.407
01/19/2014  11:54:00       21.897       23.936       58.123       30.209       35.544       25.621      912.559     1263.397      656.437        0.363        0.142       32.441       14.527        0.201      336.769        8.295      866.429
01/19/2014  11:55:00       21.011       16.663       46.414       30.751       56.496       27.056      945.607     3191.761      732.035        0.387        0.243       26.816       30.091        1.259      336.815        8.371      866.408
01/19/2014  11:56:00       40.250       43.074       47.947       51.502       48.987       38.383     2652.445     2399.757     1473.283        0.615        0.326       58.953       36.114        0.375      336.595        8.003      866.377
01/19/2014  11:57:00       29.325       62.227       90.595       46.939       50.471       41.177     2203.259     2547.287     1695.558        0.969        0.322       68.790       40.972        0.355      336.744        8.252      866.351
01/19/2014  11:58:00       76.303       88.047       68.435       58.299       39.095       40.666     3398.776     1528.443     1653.704        1.242        0.329      116.509       34.226        0.086      336.458        7.773      866.337
01/19/2014  11:59:00       71.304       56.176       54.957       61.182       48.876       47.436     3743.283     2388.895     2250.174        0.982        0.419       90.774       40.134        0.195      336.431        7.728      866.349
01/19/2014  12:00:00       45.264      -64.767       -6.298       36.586       78.603       33.655     1338.533     6178.507     1132.636        0.746        0.432       79.017       38.691        0.240      336.650        8.093      866.350
01/19/2014  12:01:00       72.794      -13.364       10.067       58.017       54.245       29.484     3365.959     2942.567      869.326        0.638        0.359       74.011       36.979        0.250      336.627        8.057      866.345
01/19/2014  12:02:00       52.714      -64.704        6.398       59.653       89.656       43.931     3558.534     8038.215     1929.920        1.026        0.676       83.459       55.246        0.438      336.780        8.311      866.313
01/19/2014  12:03:00       66.256      -42.045       48.835       52.868       90.431       60.587     2795.015     8177.811     3670.825        1.159        0.732       78.471       64.918        0.684      336.743        8.251      866.269
01/19/2014  12:04:00       52.753      -23.764       23.370       37.076       42.397       32.918     1374.602     1797.506     1083.588        0.407        0.213       57.858       21.546        0.139      336.872        8.466      866.253
01/19/2014  12:05:00       10.478        1.491       48.161       42.153       93.025       56.889     1776.906     8653.690     3236.336        0.805        0.683       10.584       66.871       39.923      337.001        8.680      866.226
01/19/2014  12:06:00       36.516        6.517       46.758       47.454      106.792       45.631     2251.913    11404.450     2082.227        0.965        0.787       37.093       57.535        2.406      336.995        8.672      866.206
01/19/2014  12:07:00        1.492       82.509       86.878       42.208       68.085       58.358     1781.517     4635.586     3405.658        1.209        0.491       82.522       51.159        0.384      336.853        8.433      866.191
01/19/2014  12:08:00       17.267      -35.627       11.047       18.429       24.786       18.458      339.636      614.343      340.688        0.149        0.065       39.591       12.832        0.105      336.821        8.380      866.176
01/19/2014  12:09:00       16.466      -35.809       -3.978       18.747       26.333       21.497      351.461      693.447      462.104        0.154        0.075       39.413       11.170        0.080      336.897        8.508      866.161
01/19/2014  12:10:00        3.245       25.144       60.256       30.790       61.649       24.443      948.015     3800.645      597.455        0.481        0.267       25.353       27.747        1.198      337.386        9.325      866.138
01/19/2014  12:11:00       20.365       80.681       86.538       39.683       50.294       35.211     1574.709     2529.512     1239.797        0.988        0.267       83.211       24.741        0.088      337.119        8.878      866.126
01/19/2014  12:12:00       30.880       90.750       76.896       52.609       61.516       49.975     2767.684     3784.251     2497.474        1.207        0.452       95.860       41.579        0.188      337.082        8.815      866.097
01/19/2014  12:13:00        1.347       29.088       65.768       32.187       51.782       31.541     1036.012     2681.328      994.847        0.494        0.236       29.120       35.483        1.485      337.423        9.389      866.092
01/19/2014  12:14:00       34.137       56.814       65.368       40.145       44.840       32.895     1611.628     2010.594     1082.059        0.668        0.235       66.281       19.068        0.083      337.213        9.035      866.091
01/19/2014  12:15:00       73.721       74.973       58.130       52.966       34.760       36.721     2805.372     1208.288     1348.423        0.990        0.268      105.146       32.507        0.096      336.823        8.384      866.082
01/19/2014  12:16:00      113.050      123.109       85.118       55.990       44.790       41.503     3134.880     2006.117     1722.477        2.102        0.343      167.141       33.232        0.040      336.768        8.291      866.054
01/19/2014  12:17:00       99.382       96.018       79.837       43.701       54.716       40.236     1909.750     2993.873     1618.922        1.600        0.326      138.189       35.052        0.064      336.868        8.458      866.037
01/19/2014  12:18:00      122.597       43.769       40.307       42.949       44.412       36.248     1844.605     1972.426     1313.934        1.185        0.257      130.176       28.104        0.047      336.835        8.404      866.026
01/19/2014  12:19:00      111.058       73.211       15.222       28.237       24.104       26.342      797.338      581.018      693.905        1.000        0.104      133.018       13.174        0.010      336.678        8.142      866.020
01/19/2014  12:20:00      129.777       87.641       14.722       49.387       32.613       31.813     2439.033     1063.628     1012.067        1.463        0.226      156.598       17.125        0.012      336.920        8.546      865.998
01/19/2014  12:21:00       41.016       68.712       63.160       61.415       42.550       58.213     3771.791     1810.501     3388.778        0.968        0.449       80.022       37.780        0.223      337.540        9.582      865.972
01/19/2014  12:22:00       64.503       97.067       81.913       70.937       40.789       52.590     5032.128     1663.755     2765.750        1.488        0.473      116.545       50.061        0.185      337.187        8.991      865.966
01/19/2014  12:23:00       29.936       82.256       93.889       69.974       63.786       57.521     4896.321     4068.652     3308.720        1.437        0.614       87.534       56.505        0.417      337.162        8.948      865.955
01/19/2014  12:24:00       40.174       50.962       85.573       54.927       47.614       41.014     3016.984     2267.107     1682.124        0.925        0.348       64.892       43.121        0.442      337.110        8.862      865.974
01/19/2014  12:25:00       44.287       59.590       68.178       65.852       49.941       48.124     4336.470     2494.092     2315.873        0.965        0.457       74.245       45.751        0.380      337.125        8.889      865.965
01/19/2014  12:26:00       37.395       93.806      119.049       67.755       56.623       48.394     4590.805     3206.131     2341.996        1.725        0.507      100.985       46.603        0.213      337.327        9.226      865.912
01/19/2014  12:27:00       49.670       80.214       52.449       39.784       37.068       31.584     1582.802     1374.018      997.574        0.780        0.198       94.347       10.251        0.012      337.447        9.426      865.856
01/19/2014  12:28:00      134.375       80.705       28.880       73.245       36.020       38.339     5364.773     1297.411     1469.856        1.677        0.407      156.748       18.052        0.013      337.255        9.103      865.841
01/19/2014  12:29:00      100.001       74.487       33.617       51.762       43.489       33.167     2679.270     1891.261     1100.056        1.117        0.284      124.694       14.630        0.014      337.274        9.138      865.832
01/19/2014  12:30:00       64.209       23.486       16.245       33.858       25.477       26.450     1146.341      649.103      699.609        0.372        0.125       68.370       17.111        0.063      337.143        8.918      865.848
01/19/2014  12:31:00       43.663      -54.287        7.556       48.064       66.210       32.881     2310.192     4383.747     1081.149        0.634        0.389       69.667       40.006        0.330      337.218        9.044      865.840
01/19/2014  12:32:00        7.752       63.193       79.345       32.048       38.931       20.711     1027.047     1515.629      428.960        0.666        0.149       63.667       19.197        0.091      337.535        9.575      865.809
01/19/2014  12:33:00       21.590       44.387       44.676       49.700       48.354       40.341     2470.058     2338.072     1627.373        0.543        0.322       49.359       23.396        0.225      337.666        9.794      865.798
01/19/2014  12:34:00       69.731       71.907       69.792       53.201       58.741       38.174     2830.336     3450.447     1457.266        1.132        0.387      100.165       32.594        0.106      337.395        9.339      865.791
01/19/2014  12:35:00       27.232       77.618      101.624       69.342       45.568       48.245     4808.368     2076.480     2327.565        1.315        0.461       82.256       52.486        0.407      337.495        9.507      865.768
01/19/2014  12:36:00       81.029       61.788       65.582       57.776       61.789       52.104     3338.030     3817.863     2714.847        1.228        0.494      101.899       45.966        0.203      337.182        8.983      865.776
01/19/2014  12:37:00       47.958       23.173       39.773       46.237       82.181       66.578     2137.819     6753.635     4432.616        0.887        0.666       53.263       68.657        1.662      337.402        9.351      865.770
01/19/2014  12:38:00       77.738      130.015      124.103       57.053       50.451       41.731     3255.101     2545.255     1741.513        2.294        0.377      151.483       29.903        0.039      337.351        9.265      865.731
01/19/2014  12:39:00      121.510      128.897       84.634       41.303       38.590       51.312     1705.932     1489.177     2632.932        2.218        0.291      177.142       29.275        0.027      337.259        9.111      865.696
01/19/2014  12:40:00       42.475       79.715       74.892       49.887       47.844       36.152     2488.705     2289.048     1306.937        0.992        0.304       90.325       36.513        0.163      337.374        9.304      865.675
01/19/2014  12:41:00       23.211       53.152       71.550       35.456       36.348       32.890     1257.119     1321.189     1081.740        0.607        0.183       57.999       31.370        0.293      337.499        9.514      865.659
01/19/2014  12:42:00       22.034       19.823       37.568       26.328       30.646       23.680      693.177      939.205      560.761        0.224        0.110       29.639       24.488        0.683      337.631        9.736      865.651
01/19/2014  12:43:00       22.312      -75.115       -8.829       47.392       42.897       37.307     2245.973     1840.132     1391.813        0.585        0.274       78.359       27.900        0.127      337.427        9.395      865.646
01/19/2014  12:44:00       25.829      -30.700       47.345       51.984       54.468       37.851     2702.286     2966.776     1432.678        0.548        0.355       40.120       33.478        0.696      337.902       10.190      865.625
01/19/2014  12:45:00       57.407     -125.670      -12.296       68.351       66.538       40.868     4671.821     4427.279     1670.228        1.500        0.538      138.161       31.289        0.051      337.693        9.839      865.603
01/19/2014  12:46:00       36.475       75.732      103.149       50.450       73.754       39.533     2545.191     5439.583     1562.847        1.362        0.477       84.058       45.980        0.299      337.902       10.189      865.592
01/19/2014  12:47:00       61.961       27.117       80.266       38.642       41.258       26.650     1493.202     1702.263      710.198        0.746        0.195       67.635       24.652        0.133      337.617        9.713      865.582
01/19/2014  12:48:00       41.740       10.311       32.335       19.289       27.821       23.592      372.060      773.982      556.604        0.230        0.085       42.995       12.183        0.080      337.597        9.679      865.564
01/19/2014  12:49:00       46.983       25.446       18.407       49.442       62.185       36.063     2444.488     3866.925     1300.518        0.540        0.381       53.431       33.392        0.391      337.734        9.909      865.547
01/19/2014  12:50:00      128.556       80.604       27.731       55.936       63.714       50.012     3128.845     4059.482     2501.162        1.674        0.484      151.736       28.708        0.036      337.500        9.515      865.546
01/19/2014  12:51:00       79.476       51.469       27.325       73.561       46.701       43.386     5411.212     2181.013     1882.310        0.959        0.474       94.686       27.303        0.083      337.912       10.208      865.539
01/19/2014  12:52:00       53.266       24.835       12.480       60.032       44.815       32.738     3603.835     2008.349     1071.768        0.515        0.334       58.771       31.399        0.285      338.235       10.749      865.535
01/19/2014  12:53:00      138.611       79.793       16.949       55.661       52.032       34.690     3098.144     2707.284     1203.426        1.644        0.350      159.938       30.761        0.037      337.711        9.868      865.492
01/19/2014  12:54:00       92.933       76.793       54.981       67.854       52.837       48.648     4604.228     2791.761     2366.587        1.366        0.488      120.556       40.051        0.110      337.821       10.054      865.437
01/19/2014  12:55:00      150.751      102.194       20.586       66.184       37.423       53.674     4380.267     1400.472     2880.905        2.113        0.433      182.125       36.075        0.039      337.645        9.757      865.412
01/19/2014  12:56:00       23.061       76.130       -2.539       40.179       39.313       35.543     1614.335     1545.532     1263.275        0.538        0.221       79.546       23.569        0.088      337.824       10.060      865.394
01/19/2014  12:57:00       87.112       51.728       14.368       53.103       47.827       35.430     2819.886     2287.429     1255.296        0.842        0.318      101.313       23.442        0.054      337.844       10.092      865.373
01/19/2014  12:58:00      114.891       71.943        8.020       67.848       61.693       45.852     4603.395     3805.992     2102.442        1.447        0.526      135.557       31.750        0.055      337.981       10.322      865.358
01/19/2014  12:59:00      115.756       77.099       19.856       57.522       48.325       45.241     3308.816     2335.278     2046.746        1.371        0.385      139.082       17.724        0.016      338.058       10.452      865.346
01/19/2014  13:00:00      117.693       54.575       15.331       41.164       39.607       33.465     1694.473     1568.675     1119.911        1.072        0.219      129.731       18.324        0.020      338.036       10.416      865.329
01/19/2014  13:01:00       68.278       52.863        2.128       41.458       33.812       33.242     1718.744     1143.218     1105.040        0.571        0.198       86.351       15.116        0.031      338.097       10.519      865.328
01/19/2014  13:02:00       64.340       36.262       10.229       36.414       30.128       28.181     1325.974      907.694      794.192        0.429        0.151       73.855       15.656        0.045      338.171       10.642      865.354
01/19/2014  13:03:00       25.699      -88.409       -4.287       50.731       84.910       28.186     2573.596     7209.699      794.466        0.953        0.529       92.069       24.829        0.073      338.109       10.536      865.380
01/19/2014  13:04:00       26.274       48.497       78.386       52.635       60.152       34.970     2770.430     3618.261     1222.918        0.840        0.381       55.157       35.254        0.409      338.333       10.915      865.396
01/19/2014  13:05:00       75.372       53.021       27.644       62.236       38.691       41.962     3873.304     1496.956     1760.771        0.819        0.357       92.153       37.566        0.166      338.028       10.401      865.389
01/19/2014  13:06:00      116.252       84.252       10.667       49.057       44.759       38.190     2406.562     2003.399     1458.459        1.330        0.293      143.572       22.680        0.025      337.883       10.158      865.348
01/19/2014  13:07:00      137.044      102.853       25.506       48.270       42.103       41.033     2329.992     1772.638     1683.703        1.790        0.289      171.347       30.597        0.032      337.820       10.050      865.310
01/19/2014  13:08:00      155.903       91.298        7.136       69.680       45.236       37.646     4855.292     2046.336     1417.203        2.050        0.416      180.668       21.902        0.015      337.844       10.091      865.282
01/19/2014  13:09:00      173.709      100.178        3.966       50.864       40.119       39.752     2587.186     1609.508     1580.224        2.300        0.289      200.525       24.500        0.015      337.855       10.109      865.287
01/19/2014  13:10:00      100.224       63.060       21.452       50.411       27.745       31.659     2541.226      769.808     1002.314        0.940        0.216      118.412       18.079        0.023      337.858       10.116      865.305
01/19/2014  13:11:00       91.321       -1.817       16.952       64.827       60.523       30.658     4202.595     3663.005      939.897        0.872        0.440       91.339       25.553        0.078      337.939       10.253      865.303
01/19/2014  13:12:00       96.230       56.777       31.773       71.988       62.619       44.216     5182.236     3921.159     1955.025        1.227        0.553      111.731       41.469        0.138      338.101       10.523      865.277
01/19/2014  13:13:00       60.182       83.526       66.074       79.049       59.524       58.274     6248.776     3543.145     3395.905        1.407        0.659      102.948       50.969        0.245      338.088       10.502      865.253
01/19/2014  13:14:00      107.120       52.950       21.473       51.703       40.014       35.031     2673.245     1601.123     1227.160        1.012        0.275      119.492       25.121        0.044      337.941       10.255      865.243
01/19/2014  13:15:00       63.891       38.994       58.756       75.293       53.193       44.663     5669.041     2829.499     1994.824        0.977        0.525       74.850       46.539        0.387      338.141       10.592      865.227
01/19/2014  13:16:00      136.562       70.643       52.027       67.024       53.087       45.617     4492.238     2818.225     2080.926        1.787        0.470      153.752       29.348        0.036      337.971       10.304      865.220
01/19/2014  13:17:00       61.380       53.234       27.235       63.774       30.765       26.367     4067.064      946.503      695.214        0.652        0.285       81.249       20.425        0.063      337.940       10.253      865.205
01/19/2014  13:18:00       54.804       46.516       11.647       33.712       25.725       29.550     1136.492      661.791      873.191        0.399        0.134       71.883       12.392        0.030      337.932       10.240      865.184
01/19/2014  13:19:00      -15.798        3.236        0.291       31.063       22.878       16.229      964.899      523.389      263.377        0.101        0.088       16.126       11.344        0.495      338.373       10.979      865.174
01/19/2014  13:20:00       41.454      -86.281        3.122       66.795       48.770       33.842     4461.506     2378.542     1145.257        0.858        0.399       95.723       27.548        0.083      338.251       10.775      865.161
01/19/2014  13:21:00       60.934       37.062       68.746       74.860       82.330       52.891     5603.969     6778.239     2797.434        1.249        0.759       71.320       56.895        0.636      338.350       10.942      865.154
01/19/2014  13:22:00       34.331       57.544       88.089       54.288       65.104       39.971     2947.201     4238.588     1597.694        1.051        0.439       67.007       25.635        0.146      338.503       11.199      865.139
01/19/2014  13:23:00       58.117       10.586       28.738       54.018       58.225       48.614     2917.906     3390.167     2363.368        0.649        0.434       59.073       31.098        0.277      338.356       10.953      865.129
01/19/2014  13:24:00       43.077      -14.662       -9.785       23.605       21.905       21.569      557.179      479.820      465.210        0.183        0.075       45.504        7.288        0.026      337.987       10.332      865.126
01/19/2014  13:25:00       -8.898       -4.544       -2.475       20.648       21.550       12.762      426.354      464.388      162.857        0.058        0.053        9.991        9.834        0.969      338.289       10.840      865.121
01/19/2014  13:26:00        8.524        0.091        5.320       33.325       20.131       16.586     1110.589      405.266      275.093        0.095        0.090        8.525        7.318        0.737      338.455       11.118      865.108
01/19/2014  13:27:00       54.519      -96.840      -16.570       60.802       66.388       42.939     3696.872     4407.395     1843.781        1.128        0.497      111.132       33.698        0.092      338.384       10.999      865.071
01/19/2014  13:28:00       61.702      -65.861       19.853       43.604       85.584       45.860     1901.329     7324.624     2103.114        0.993        0.566       90.248       55.639        0.380      338.520       11.227      865.039
01/19/2014  13:29:00       33.637        3.628       29.574       40.173       55.087       36.457     1613.866     3034.594     1329.107        0.400        0.299       33.832       23.242        0.472      338.613       11.383      865.034
01/19/2014  13:30:00       17.646       35.531       40.274       23.202       27.336       18.460      538.311      747.283      340.760        0.241        0.081       39.671       12.825        0.105      338.664       11.469      865.048
01/19/2014  13:31:00       12.786        8.560       21.453       26.489       35.617       22.774      701.671     1268.571      518.647        0.159        0.124       15.386       14.243        0.857      338.828       11.746      865.062
01/19/2014  13:32:00       30.989       29.634        8.269       45.665       32.557       34.645     2085.286     1059.953     1200.276        0.313        0.217       42.878       26.414        0.379      338.652       11.450      865.051
01/19/2014  13:33:00       30.880       83.147       15.705       38.839       53.115       55.964     1508.452     2821.228     3131.982        0.779        0.373       88.696       40.975        0.213      338.760       11.630      865.009
01/19/2014  13:34:00       12.653       67.304      100.262       57.261       60.318       49.759     3278.792     3638.285     2475.920        1.207        0.470       68.483       30.916        0.204      338.710       11.546      864.975
01/19/2014  13:35:00       49.165       68.378       92.665       56.196       44.088       30.172     3157.981     1943.784      910.333        1.084        0.301       84.218       13.488        0.026      338.483       11.165      864.984
01/19/2014  13:36:00      131.973       58.392       49.132       58.708       51.489       51.582     3446.581     2651.066     2660.697        1.600        0.438      144.314       37.277        0.067      338.262       10.792      864.987
01/19/2014  13:37:00       62.282       32.265       23.157       30.655       21.383       25.826      939.718      457.245      666.968        0.376        0.103       70.144       10.695        0.023      338.220       10.723      865.004
01/19/2014  13:38:00       15.857       26.416       15.489       21.738       21.323       15.086      472.544      454.678      227.574        0.117        0.058       30.810       11.850        0.148      338.442       11.096      864.999
01/19/2014  13:39:00       17.304        1.988       36.317       24.022       34.617       21.245      577.076     1198.364      451.348        0.192        0.111       17.418       20.738        1.418      338.759       11.629      864.974
01/19/2014  13:40:00       27.124      -34.935       -5.779       26.438       25.591       23.246      698.944      654.915      540.397        0.194        0.095       44.229        8.387        0.036      338.544       11.268      864.960
01/19/2014  13:41:00       -5.500      -62.120      -12.826       47.886       23.026       19.031     2293.078      530.183      362.173        0.362        0.159       62.363        6.980        0.013      338.560       11.295      864.953
01/19/2014  13:42:00       14.689       -2.788       16.372       19.252       14.415       17.662      370.658      207.778      311.934        0.069        0.045       14.951       12.803        0.733      339.229       12.419      864.949
01/19/2014  13:43:00      -16.055       27.077       32.050       19.949       15.749       12.579      397.980      248.046      158.221        0.141        0.040       31.479        8.294        0.069      339.076       12.162      864.966
01/19/2014  13:44:00      -24.702       12.998        4.978       27.520       24.536       18.137      757.373      602.020      328.960        0.125        0.084       27.913       15.051        0.291      339.102       12.205      864.965
01/19/2014  13:45:00      -21.014       -1.891        4.586       16.096       18.302       19.208      259.080      334.948      368.949        0.071        0.048       21.099       16.083        0.581      338.976       11.995      864.936
01/19/2014  13:46:00        5.541      -55.377        1.200       53.101       39.316       34.650     2819.764     1545.728     1200.648        0.433        0.278       55.654       22.409        0.162      338.950       11.949      864.913
01/19/2014  13:47:00       45.020       33.800       57.671       46.549       91.713       50.285     2166.844     8411.219     2528.569        0.980        0.655       56.296       56.370        1.003      338.936       11.926      864.903
01/19/2014  13:48:00       25.250        5.448       48.984       38.667       74.548       46.067     1495.147     5557.445     2122.164        0.612        0.459       25.831       47.949        3.446      338.814       11.722      864.900
01/19/2014  13:49:00        1.314      -33.676       16.619       23.795       37.419       19.312      566.188     1400.169      372.960        0.188        0.117       33.701       10.948        0.106      339.095       12.194      864.911
01/19/2014  13:50:00       -0.234      -33.922        7.643       32.491       29.536       28.445     1055.694      872.386      809.143        0.197        0.137       33.923       15.373        0.205      339.195       12.363      864.925
01/19/2014  13:51:00       36.823        3.598       29.914       27.165       51.076       27.100      737.951     2608.757      734.426        0.317        0.204       36.998       29.072        0.617      339.097       12.197      864.902
01/19/2014  13:52:00       10.102       63.668       53.103       28.865       27.125       27.772      833.201      735.740      771.285        0.466        0.117       64.464       19.280        0.089      339.062       12.138      864.894
01/19/2014  13:53:00       64.617       54.985       10.649       35.732       39.251       32.365     1276.767     1540.663     1047.514        0.559        0.193       84.845       29.602        0.122      338.896       11.859      864.868
01/19/2014  13:54:00       97.178       48.067        5.764       50.473       33.057       28.972     2547.503     1092.770      839.361        0.813        0.224      108.416       13.891        0.016      338.798       11.695      864.845
01/19/2014  13:55:00       64.141       54.787       27.843       43.094       44.892       27.252     1857.121     2015.298      742.673        0.625        0.231       84.354       25.297        0.090      338.944       11.940      864.839
01/19/2014  13:56:00       72.876       56.686        9.040       42.892       27.858       27.610     1839.704      776.056      762.294        0.599        0.169       92.327       17.561        0.036      338.833       11.754      864.838
01/19/2014  13:57:00       32.551       47.242        0.155       27.785       29.021       28.261      772.030      842.214      798.674        0.285        0.121       57.370       22.584        0.155      338.918       11.895      864.841
01/19/2014  13:58:00       73.538       41.253       14.834       37.527       30.487       22.557     1408.268      929.432      508.797        0.509        0.142       84.318        9.276        0.012      338.814       11.722      864.830
01/19/2014  13:59:00       43.641       65.480        1.030       33.154       29.918       29.303     1099.164      895.059      858.638        0.452        0.143       78.691       19.476        0.061      338.867       11.811      864.807
01/19/2014  14:00:00       19.100       44.704       -5.073       29.396       29.911       24.057      864.139      894.658      578.720        0.236        0.117       48.613       19.925        0.168      338.950       11.949      864.802
01/19/2014  14:01:00        8.726       27.574      -10.712       16.374       25.096       14.002      268.117      629.810      196.049        0.102        0.055       28.922       12.563        0.189      338.968       11.980      864.787
01/19/2014  14:02:00       54.053       67.625        2.950       36.609       29.600       31.952     1340.189      876.142     1020.939        0.537        0.162       86.573       24.946        0.083      338.935       11.925      864.781
01/19/2014  14:03:00       34.161       66.117       -6.973       26.971       24.599       21.566      727.424      605.102      465.086        0.369        0.090       74.420       10.322        0.019      338.977       11.994      864.787
01/19/2014  14:04:00       49.449       59.997       -7.536       39.554       24.907       24.645     1564.503      620.357      607.366        0.445        0.140       77.748       19.701        0.064      338.994       12.023      864.781
01/19/2014  14:05:00       -7.058        5.432       -0.488       25.825       14.576       19.449      666.955      212.466      378.283        0.067        0.063        8.906       13.883        2.430      339.247       12.449      864.774
01/19/2014  14:06:00       20.834       47.927       46.803       31.790       25.090       22.129     1010.602      629.527      489.698        0.353        0.106       52.260       18.679        0.128      339.460       12.809      864.766
01/19/2014  14:07:00       40.358       83.271       81.758       54.405       44.385       30.568     2959.921     1970.021      934.402        1.055        0.293       92.536       20.069        0.047      339.297       12.535      864.753
01/19/2014  14:08:00       77.872       15.671       21.753       47.615       45.413       25.264     2267.196     2062.360      638.269        0.587        0.248       79.434       21.829        0.076      339.062       12.138      864.752
01/19/2014  14:09:00      127.528       83.343       16.698       42.133       37.234       31.709     1775.215     1386.363     1005.487        1.383        0.208      152.347        8.273        0.003      339.017       12.063      864.736
01/19/2014  14:10:00       34.119       41.501       17.570       39.820       44.290       28.644     1585.598     1961.603      820.493        0.378        0.218       53.726       18.560        0.119      339.229       12.419      864.722
01/19/2014  14:11:00      -13.625       27.863       43.794       15.662       40.714       23.179      245.304     1657.655      537.264        0.266        0.122       31.016       13.767        0.197      339.604       13.051      864.726
01/19/2014  14:12:00       -2.934       51.071       83.218       24.816       28.456       22.505      615.831      809.724      506.493        0.574        0.097       51.156       17.735        0.120      339.426       12.752      864.744
01/19/2014  14:13:00       53.732       55.665       42.148       35.923       24.757       34.369     1290.465      612.914     1181.246        0.542        0.154       77.367       28.087        0.132      339.146       12.278      864.749
01/19/2014  14:14:00       19.536       12.154       28.706       30.129       21.129       26.831      907.756      446.441      719.878        0.171        0.104       23.008       19.572        0.724      339.323       12.577      864.758
01/19/2014  14:15:00        5.936       31.218       55.861       19.399       33.686       18.901      376.331     1134.765      357.235        0.300        0.093       31.777       16.118        0.257      339.490       12.859      864.751
01/19/2014  14:16:00       27.452       37.831       36.973       35.588       19.289       20.101     1266.507      372.054      404.066        0.280        0.102       46.742       19.958        0.182      339.300       12.539      864.746
01/19/2014  14:17:00       45.718       42.903        2.476       19.577       35.818       26.462      383.268     1282.952      700.223        0.315        0.118       62.696       13.481        0.046      339.161       12.306      864.759
01/19/2014  14:18:00       31.873      -30.578       -3.861       14.728       15.214       10.980      216.928      231.458      120.555        0.127        0.028       44.169        7.084        0.026      339.220       12.404      864.763
01/19/2014  14:19:00       14.990        0.121        8.139       18.398        9.756       17.629      338.484       95.176      310.791        0.052        0.037       14.990        9.563        0.407      339.698       13.209      864.765
01/19/2014  14:20:00        9.017       -8.981      -13.323       31.297       18.960       22.317      979.486      359.498      498.069        0.109        0.092       12.727       17.935        1.986      339.538       12.939      864.762
01/19/2014  14:21:00      -11.811       15.139       -5.404       24.973       27.762       12.239      623.634      770.749      149.786        0.097        0.077       19.201       10.521        0.300      339.463       12.813      864.734
01/19/2014  14:22:00       28.051      -44.611       11.112       22.913       47.021       25.137      525.003     2210.941      631.882        0.313        0.168       52.698       20.650        0.154      339.576       13.004      864.714
01/19/2014  14:23:00        4.903      -40.669       19.651       23.936       39.978       30.765      572.944     1598.272      946.499        0.259        0.156       40.964       26.599        0.422      339.744       13.288      864.698
01/19/2014  14:24:00       26.772      -56.708        6.308       38.041       65.956       35.389     1447.141     4350.176     1252.403        0.551        0.352       62.709       35.190        0.315      339.634       13.102      864.677
01/19/2014  14:25:00       37.263       70.928       45.410       34.231       27.231       35.178     1171.757      741.506     1237.470        0.582        0.158       80.120       28.388        0.126      339.642       13.115      864.665
01/19/2014  14:26:00       56.834       52.147       27.568       55.865       31.205       28.475     3120.880      973.767      810.811        0.581        0.245       77.133       27.136        0.124      339.624       13.084      864.668
01/19/2014  14:27:00      110.825       75.842       28.098       30.880       38.237       37.082      953.581     1462.035     1375.068        1.131        0.190      134.291       16.388        0.015      339.346       12.615      864.657
01/19/2014  14:28:00      108.917       73.845       20.146       29.851       27.256       23.097      891.099      742.884      533.475        0.994        0.108      131.590       15.740        0.014      339.337       12.601      864.663
01/19/2014  14:29:00       81.884       70.008       21.689       53.154       41.465       42.789     2825.393     1719.347     1830.875        0.922        0.319      107.731       14.100        0.017      339.452       12.794      864.662
01/19/2014  14:30:00       36.323       67.389       67.095       56.142       35.626       33.837     3151.872     1269.245     1144.932        0.796        0.278       76.555       36.033        0.222      339.580       13.010      864.663
01/19/2014  14:31:00       24.230        7.882       12.078       38.801       43.667       34.342     1505.521     1906.826     1179.390        0.269        0.230       25.480       23.836        0.875      339.703       13.217      864.674
01/19/2014  14:32:00       -6.000       -4.383        5.209       14.545       25.554       15.047      211.561      653.011      226.408        0.059        0.055        7.430        8.167        1.208      339.837       13.444      864.671
01/19/2014  14:33:00       14.065       26.061       23.800       26.039       31.236       30.659      678.033      975.687      939.996        0.202        0.130       29.614       27.256        0.847      339.701       13.215      864.666
01/19/2014  14:34:00        1.242       50.440       70.678       28.942       53.823       46.434      837.635     2896.904     2156.088        0.671        0.295       50.456       38.144        0.572      339.711       13.233      864.650
01/19/2014  14:35:00       96.977       91.691       76.929       48.367       43.173       39.140     2339.372     1863.947     1531.906        1.473        0.287      133.461       31.911        0.057      339.346       12.617      864.658
01/19/2014  14:36:00       90.805       28.010       38.292       46.703       41.062       36.304     2181.216     1686.122     1317.958        0.784        0.259       95.027       23.174        0.059      339.377       12.668      864.674
01/19/2014  14:37:00       60.424       62.701       67.332       41.633       33.508       31.617     1733.341     1122.768      999.656        0.799        0.193       87.077        8.263        0.009      339.526       12.919      864.673
01/19/2014  14:38:00       11.901       13.891       35.480       26.722       22.944       17.050      714.084      526.447      290.708        0.156        0.077       18.292        5.009        0.075      339.915       13.576      864.676
01/19/2014  14:39:00       39.070       51.397       12.421       30.106       20.457       37.613      906.343      418.493     1414.703        0.353        0.137       64.561       26.833        0.173      339.443       12.779      864.680
01/19/2014  14:40:00       -1.836       33.767      -10.497       33.494       11.445       11.780     1121.836      130.997      138.777        0.132        0.070       33.817       13.865        0.168      339.384       12.680      864.668
01/19/2014  14:41:00        6.402       12.013        3.911       20.780       24.131       16.717      431.826      582.326      279.453        0.075        0.065       13.613       10.806        0.630      339.749       13.295      864.649
01/19/2014  14:42:00        6.120       10.761       21.420       20.732       19.292       14.810      429.825      372.171      219.346        0.082        0.051       12.379       13.930        1.266      340.076       13.849      864.632
01/19/2014  14:43:00       15.418       10.077       19.318       15.638       17.969       16.580      244.539      322.869      274.906        0.078        0.042       18.419        8.432        0.210      339.792       13.367      864.634
01/19/2014  14:44:00       -1.987        7.777       13.852       15.029       22.880       16.593      225.883      523.506      275.333        0.064        0.051        8.027       14.751        3.377      339.955       13.642      864.630
01/19/2014  14:45:00       71.232       84.224       57.694       70.837       35.476       57.229     5017.934     1258.526     3275.139        1.252        0.478      110.307       55.877        0.257      339.604       13.052      864.623
01/19/2014  14:46:00       46.531       29.266        4.368       49.616       36.079       28.580     2461.769     1301.692      816.820        0.381        0.229       54.969       18.423        0.112      339.600       13.045      864.622
01/19/2014  14:47:00       31.064       21.507       16.978       35.831       31.640       23.996     1283.885     1001.067      575.800        0.229        0.143       37.782       20.084        0.283      339.733       13.268      864.634
01/19/2014  14:48:00       15.871       29.116       35.096       19.407       30.453       25.113      376.628      927.398      630.662        0.213        0.097       33.161       19.447        0.344      339.849       13.465      864.647
01/19/2014  14:49:00       16.408       16.576       28.347       22.181       31.808       17.463      492.001     1011.745      304.970        0.158        0.090       23.324       16.560        0.504      340.003       13.726      864.652
01/19/2014  14:50:00       10.541       13.252       23.190       18.442       27.775       14.046      340.116      771.467      197.304        0.107        0.065       16.933       15.784        0.869      339.924       13.592      864.657
01/19/2014  14:51:00       35.301       19.582       19.231       23.247       31.428       19.723      540.411      987.709      389.005        0.196        0.096       40.368       14.093        0.122      339.888       13.530      864.664
01/19/2014  14:52:00       -2.161        0.958        2.654       22.812       25.052       19.790      520.371      627.594      391.663        0.078        0.077        2.364       12.871       29.637      339.959       13.650      864.665
01/19/2014  14:53:00        7.135       23.655       39.708       23.973       33.433       28.570      574.723     1117.781      816.235        0.235        0.125       24.708       22.958        0.863      340.070       13.838      864.665
01/19/2014  14:54:00       14.267     -103.519        3.513       38.939       39.138       28.974     1516.267     1531.822      839.501        0.741        0.194      104.497       24.904        0.057      339.836       13.443      864.658
01/19/2014  14:55:00       94.976     -121.966      -24.148       30.992       29.222       24.233      960.489      853.916      587.253        1.344        0.120      154.583       14.304        0.009      339.545       12.950      864.657
01/19/2014  14:56:00        8.488      -64.668       18.617       31.865       83.831       35.462     1015.364     7027.715     1257.559        0.695        0.465       65.223       41.855        0.412      340.032       13.773      864.654
01/19/2014  14:57:00       38.834      -92.718       -6.764       34.997       36.817       28.826     1224.804     1355.470      830.916        0.678        0.171      100.522       20.071        0.040      339.808       13.395      864.640
01/19/2014  14:58:00       28.330      -20.213       35.497       36.802       68.022       54.244     1354.415     4627.038     2942.421        0.570        0.446       34.802       47.931        1.897      339.914       13.573      864.623
01/19/2014  14:59:00       27.486       50.725       38.732       21.776       31.814       29.496      474.206     1012.141      869.997        0.359        0.118       57.693       17.911        0.096      339.767       13.326      864.611
01/19/2014  15:00:00        5.246      -52.217        9.246       23.325       59.103       32.765      544.046     3493.185     1073.578        0.397        0.256       52.480       37.405        0.508      339.950       13.634      864.596
01/19/2014  15:01:00        1.954       16.241       39.364       21.696       40.845       40.261      470.701     1668.350     1620.908        0.279        0.188       16.358       37.476        5.248      339.971       13.670      864.596
01/19/2014  15:02:00       18.513       76.567       82.299       38.756       43.200       29.972     1502.051     1866.229      898.313        0.862        0.213       78.773       19.979        0.064      339.818       13.412      864.598
01/19/2014  15:03:00       -5.663       18.046       38.407       23.181       28.263       24.542      537.378      798.799      602.313        0.189        0.097       18.914       15.621        0.682      340.029       13.768      864.595
01/19/2014  15:04:00       10.731        6.738       22.177       28.476       48.862       31.805      810.854     2387.518     1011.571        0.243        0.210       12.671       24.573        3.761      339.967       13.664      864.589
01/19/2014  15:05:00        4.568       64.495       73.086       26.852       42.504       24.559      721.010     1806.563      603.121        0.633        0.157       64.657       26.425        0.167      339.946       13.628      864.595
01/19/2014  15:06:00       45.668       20.004       35.139       38.181       29.039       27.672     1457.780      843.261      765.716        0.339        0.153       49.857       18.370        0.136      339.772       13.335      864.600
01/19/2014  15:07:00       54.640       38.740       44.406       37.010       26.641       27.880     1369.730      709.757      777.306        0.466        0.143       66.980       18.247        0.074      339.757       13.309      864.601
01/19/2014  15:08:00       59.083       41.174       41.157       33.256       34.397       33.115     1105.987     1183.157     1096.616        0.513        0.169       72.015       13.379        0.035      339.760       13.314      864.597
01/19/2014  15:09:00       45.292       40.847        1.944       22.018       22.769       25.160      484.770      518.418      633.041        0.268        0.082       60.990        5.284        0.008      339.843       13.454      864.590
01/19/2014  15:10:00       94.310       70.004       44.987       65.699       58.089       47.885     4316.359     3374.380     2292.964        1.290        0.499      117.452       37.110        0.100      339.863       13.488      864.578
01/19/2014  15:11:00       80.455      113.903       95.566       54.426       41.507       42.928     2962.187     1722.808     1842.788        1.755        0.326      139.452       38.060        0.074      339.784       13.355      864.572
01/19/2014  15:12:00       40.218       97.479      102.468       44.431       42.019       31.367     1974.079     1765.601      983.875        1.317        0.236      105.450       30.825        0.085      339.805       13.389      864.582
01/19/2014  15:13:00      112.875       80.985       38.193       65.613       38.511       43.272     4305.052     1483.075     1872.487        1.421        0.383      138.922       35.271        0.064      339.792       13.369      864.590
01/19/2014  15:14:00       69.699       24.383        7.881       42.691       37.357       26.926     1822.511     1395.542      724.995        0.473        0.197       73.841       20.119        0.074      339.811       13.401      864.608
01/19/2014  15:15:00       35.620       43.172       -7.177       23.541       23.313       23.274      554.179      543.509      541.696        0.241        0.082       55.970       14.096        0.063      339.848       13.463      864.616
01/19/2014  15:16:00       50.031       32.619       27.335       27.426       22.170       29.633      752.180      491.494      878.121        0.322        0.106       59.725       13.193        0.049      339.870       13.501      864.622
01/19/2014  15:17:00       14.243      -43.007       22.787       31.661       52.547       33.260     1002.398     2761.188     1106.245        0.372        0.243       45.304       22.694        0.251      339.950       13.634      864.621
01/19/2014  15:18:00       22.027       35.978       56.411       27.419       31.055       20.367      751.820      964.413      414.811        0.355        0.107       42.186       17.227        0.167      340.043       13.791      864.628
01/19/2014  15:19:00       56.133       16.552       28.167       32.410       43.631       29.429     1050.384     1903.664      866.065        0.402        0.191       58.523       31.307        0.286      339.964       13.658      864.629
01/19/2014  15:20:00       55.411       26.175       18.368       39.050       39.500       27.159     1524.890     1560.280      737.632        0.396        0.191       61.282       24.245        0.157      339.960       13.651      864.621
01/19/2014  15:21:00       12.114       -8.044       31.953       17.032       31.161       20.504      290.100      971.038      420.408        0.146        0.084       14.542       21.161        2.118      340.167       14.002      864.619
01/19/2014  15:22:00       32.118       40.103       25.472       23.652       17.192       20.837      559.428      295.561      434.191        0.229        0.064       51.379       11.355        0.049      340.000       13.719      864.618
01/19/2014  15:23:00       37.437       36.479       13.624       16.960       12.281       20.859      287.633      150.826      435.114        0.190        0.044       52.271       13.468        0.066      339.938       13.614      864.618
01/19/2014  15:24:00       24.770       22.625       21.838       17.367       15.531       19.651      301.625      241.212      386.165        0.127        0.046       33.548        8.953        0.071      339.993       13.707      864.626
01/19/2014  15:25:00       15.481       15.848        5.291       12.841       10.811        6.657      164.881      116.885       44.315        0.042        0.016       22.154        4.364        0.039      340.092       13.875      864.620
01/19/2014  15:26:00       14.339       -1.820        7.386       24.496       14.038       12.852      600.039      197.061      165.169        0.061        0.048       14.454        4.492        0.097      340.346       14.303      864.621
01/19/2014  15:27:00       38.925      -28.157        1.701       23.674       21.160       19.404      560.473      447.764      376.504        0.185        0.069       48.041        8.626        0.032      339.983       13.691      864.609
01/19/2014  15:28:00       32.028       20.297       13.012       19.687       17.821       17.730      387.582      317.602      314.367        0.131        0.051       37.918       11.485        0.092      340.046       13.795      864.601
01/19/2014  15:29:00       30.406       28.998        7.325       13.835       20.472       15.939      191.416      419.087      254.039        0.134        0.043       42.017       11.729        0.078      340.010       13.736      864.594
01/19/2014  15:30:00       19.514       17.009        7.966       21.443       19.630       14.068      459.818      385.353      197.901        0.089        0.052       25.886        7.659        0.088      340.082       13.858      864.580
01/19/2014  15:31:00       -2.283        7.511       23.164       16.668       15.900       12.150      277.813      252.802      147.630        0.064        0.034        7.851        6.992        0.793      340.380       14.361      864.571
01/19/2014  15:32:00       16.784      -54.000        0.748       33.059       54.400       20.996     1092.896     2959.377      440.830        0.384        0.225       56.548       27.159        0.231      340.331       14.278      864.568
01/19/2014  15:33:00       42.272      -51.605       -5.683       36.462       38.602       19.934     1329.491     1490.092      397.362        0.385        0.161       66.709       20.071        0.091      340.187       14.035      864.560
01/19/2014  15:34:00        6.767       -6.636       10.342       23.219       45.182       21.697      539.108     2041.439      470.758        0.162        0.153        9.478       14.810        2.441      340.246       14.136      864.562
01/19/2014  15:35:00       42.097       37.877       15.771       37.645       18.453       23.161     1417.182      340.531      536.448        0.287        0.115       56.629       22.546        0.159      339.940       13.618      864.569
01/19/2014  15:36:00       51.160       25.698       -1.864       26.074       21.676       18.207      679.856      469.862      331.501        0.238        0.074       57.251       12.928        0.051      339.954       13.642      864.556
01/19/2014  15:37:00       33.421       11.917       27.586       24.310       43.774       25.776      590.996     1916.132      664.403        0.260        0.159       35.482       22.563        0.404      340.010       13.735      864.555
01/19/2014  15:38:00       58.868       43.215       35.021       28.163       22.089       17.288      793.136      487.913      298.885        0.407        0.079       73.027        7.473        0.010      339.992       13.705      864.555
01/19/2014  15:39:00       25.787       15.718       42.211       29.204       45.345       31.188      852.875     2056.159      972.710        0.329        0.194       30.200       34.808        1.328      340.105       13.895      864.563
01/19/2014  15:40:00      -13.758      -40.326       -8.348       14.247       20.108       11.707      202.963      404.344      137.065        0.131        0.037       42.608        8.514        0.040      340.086       13.864      864.578
01/19/2014  15:41:00      -18.608        2.650       11.752       13.664       10.429        9.637      186.692      108.766       92.863        0.044        0.019       18.795        8.640        0.211      340.355       14.318      864.586
01/19/2014  15:42:00        0.520       -3.206        0.913       11.462       14.065        8.955      131.381      197.810       80.184        0.021        0.020        3.248        7.862        5.860      340.352       14.315      864.590
01/19/2014  15:43:00        8.616       22.333       24.657        9.375        9.897        9.861       87.890       97.941       97.234        0.073        0.014       23.938        8.185        0.117      340.204       14.062      864.597
01/19/2014  15:44:00        7.421       39.000       49.899       30.937       24.490       21.173      957.081      599.771      448.278        0.304        0.100       39.699       22.186        0.312      340.191       14.042      864.589
01/19/2014  15:45:00       18.155       24.392       27.501       21.747       18.672       15.094      472.913      348.637      227.816        0.136        0.052       30.406       13.938        0.210      340.260       14.157      864.580
01/19/2014  15:46:00       37.786       37.319       29.704       37.983       29.310       16.425     1442.681      859.049      269.779        0.314        0.129       53.108       14.903        0.079      340.262       14.161      864.569
01/19/2014  15:47:00       52.465       20.085        1.480       24.145       27.656       21.142      582.964      764.874      446.983        0.248        0.090       56.178       11.399        0.041      340.161       13.991      864.566
01/19/2014  15:48:00       22.211       25.547        4.234       12.858        7.934        9.210      165.341       62.955       84.820        0.074        0.016       33.852        4.076        0.014      340.109       13.901      864.572
01/19/2014  15:49:00       36.364       47.387       13.030       18.261       20.994       19.404      333.460      440.736      376.505        0.244        0.058       59.731       16.042        0.072      340.198       14.052      864.567
01/19/2014  15:50:00       17.231       19.986       13.970       16.363       13.585       16.228      267.745      184.539      263.345        0.080        0.036       26.389       10.526        0.159      340.293       14.213      864.564
01/19/2014  15:51:00       17.512       16.347       18.064       17.026       21.147       12.932      289.897      447.189      167.249        0.090        0.045       23.956        7.032        0.086      340.285       14.200      864.560
01/19/2014  15:52:00        6.548        9.874       13.730       12.434       15.304       11.753      154.592      234.209      138.122        0.043        0.026       11.848        8.883        0.562      340.303       14.231      864.551
01/19/2014  15:53:00       54.803       43.354       11.495       15.992       12.259       17.945      255.749      150.276      322.022        0.287        0.036       69.878        7.301        0.011      340.070       13.838      864.549
01/19/2014  15:54:00       38.688       46.156        4.179       27.367       20.057       16.299      748.955      402.264      265.670        0.253        0.071       60.226       10.055        0.028      340.085       13.860      864.540
01/19/2014  15:55:00       68.674       40.674        1.473       25.616       17.473       12.748      656.198      305.305      162.510        0.375        0.056       79.815        4.560        0.003      340.158       13.985      864.531
01/19/2014  15:56:00       65.691       34.236        5.517       20.949       13.281       14.151      438.878      176.376      200.251        0.317        0.041       74.077        6.580        0.008      340.147       13.967      864.534
01/19/2014  15:57:00       43.221       23.447       14.583       23.782       22.391       15.210      565.564      501.361      231.349        0.196        0.065       49.172        5.486        0.012      340.100       13.888      864.535
01/19/2014  15:58:00       53.189       14.534        3.873       28.249       17.320       15.250      797.996      299.999      232.557        0.219        0.067       55.139        8.524        0.024      340.211       14.075      864.545
01/19/2014  15:59:00       16.856       33.602       22.047       16.038       18.501       20.231      257.215      342.272      409.286        0.145        0.050       37.592       12.669        0.114      340.244       14.130      864.541
01/19/2014  16:00:00       22.061       11.922       25.679       28.103       24.238       25.460      789.776      587.460      648.216        0.166        0.101       25.076       20.308        0.656      340.217       14.084      864.544
01/19/2014  16:01:00       35.674       13.090       17.820       29.090       19.938       17.300      846.200      397.508      299.286        0.165        0.077       38.000       12.075        0.101      340.166       13.999      864.551
01/19/2014  16:02:00       14.613       -5.791       20.590       21.995       49.416       30.898      483.788     2441.935      954.691        0.227        0.194       15.719       34.667        4.864      340.296       14.220      864.556
01/19/2014  16:03:00       38.752      -29.792        8.946       40.720       38.012       27.699     1658.115     1444.895      767.246        0.317        0.194       48.880       23.426        0.230      340.275       14.183      864.559
01/19/2014  16:04:00       30.336       20.266       47.130       36.251       39.239       29.159     1314.148     1539.666      850.241        0.363        0.185       36.483       32.499        0.794      340.204       14.062      864.559
01/19/2014  16:05:00       16.171       12.651       23.024       19.975       41.865       21.628      399.016     1752.676      467.767        0.179        0.131       20.532       18.617        0.822      340.249       14.139      864.561
01/19/2014  16:06:00        9.963        3.435       17.157       17.534       27.442       14.754      307.454      753.059      217.670        0.084        0.064       10.538        8.210        0.607      340.229       14.106      864.550
01/19/2014  16:07:00        1.897        7.305        9.290       11.117        7.267       12.631      123.597       52.811      159.555        0.024        0.017        7.548        8.822        1.366      340.264       14.165      864.542
01/19/2014  16:08:00       -0.755       12.054        5.844       11.774       11.683       10.488      138.626      136.481      110.002        0.028        0.019       12.078        7.267        0.362      340.372       14.347      864.535
01/19/2014  16:09:00        5.597       13.196       17.874       12.215        9.504        7.207      149.195       90.333       51.936        0.041        0.015       14.334        4.162        0.084      340.270       14.175      864.535
01/19/2014  16:10:00       39.327       38.391       29.155       22.980       15.587       13.723      528.099      242.954      188.316        0.241        0.048       54.959        9.036        0.027      340.188       14.037      864.528
01/19/2014  16:11:00       50.265       18.279       16.231       23.617       21.809       17.695      557.748      475.644      313.103        0.224        0.067       53.485       15.103        0.080      340.218       14.086      864.525
01/19/2014  16:12:00       27.384      -35.654       -1.929       27.169       40.119       14.086      738.143     1609.497      198.414        0.228        0.127       44.956       17.474        0.151      340.291       14.210      864.520
01/19/2014  16:13:00       79.428      -85.113      -15.994       17.442       15.595       12.323      304.213      243.216      151.854        0.725        0.035      116.417        4.879        0.002      340.221       14.091      864.508
01/19/2014  16:14:00       77.967      -94.014      -13.872       25.085       19.041       13.971      629.272      362.562      195.202        0.815        0.059      122.137       12.735        0.011      340.219       14.086      864.501
01/19/2014  16:15:00       88.125     -102.346      -18.120       14.904       20.556       17.138      222.128      422.529      293.721        0.975        0.047      135.058       10.763        0.006      340.252       14.147      864.498
01/19/2014  16:16:00       68.266      -78.599      -18.789       24.548       19.841       11.943      602.610      393.661      142.646        0.616        0.057      104.106        9.738        0.009      340.234       14.117      864.504
01/19/2014  16:17:00       99.762      -89.660       -4.941       25.855       35.260       16.189      668.486     1243.239      262.076        1.009        0.109      134.131       14.385        0.012      340.260       14.158      864.511
01/19/2014  16:18:00       32.557      -56.986       12.900       30.584       57.757       28.323      935.407     3335.885      802.204        0.477        0.254       65.631       37.446        0.326      340.249       14.139      864.520
01/19/2014  16:19:00       39.668       -8.754       17.161       34.808       31.584       17.133     1211.615      997.543      293.538        0.222        0.125       40.622       24.406        0.361      340.227       14.101      864.533
01/19/2014  16:20:00       -1.145        2.913       22.967       14.035       17.242       12.179      196.975      297.271      148.326        0.059        0.032        3.130        8.233        6.921      340.377       14.355      864.536
01/19/2014  16:21:00       33.817      -35.950        2.160       19.256       17.588       17.094      370.811      309.338      292.202        0.171        0.049       49.356       13.190        0.071      340.300       14.225      864.539
01/19/2014  16:22:00       16.196      -19.797        8.664       14.289       19.607       13.558      204.174      384.438      183.814        0.075        0.039       25.578        7.816        0.093      340.382       14.363      864.544
01/19/2014  16:23:00       38.419        9.762        8.505       17.481       14.507        9.408      305.570      210.459       88.519        0.112        0.030       39.640       11.073        0.078      340.193       14.044      864.549
01/19/2014  16:24:00       33.993       -0.105        1.657       15.082        8.955        5.943      227.467       80.184       35.315        0.075        0.017       33.993        4.494        0.017      340.228       14.104      864.563
01/19/2014  16:25:00       40.490       22.548       10.075       13.533       12.253        8.791      183.131      150.131       77.289        0.133        0.021       46.345        5.256        0.013      340.163       13.995      864.575
01/19/2014  16:26:00       24.774       25.009       14.355       21.292       20.382       11.048      453.339      415.437      122.063        0.122        0.050       35.202        7.409        0.044      340.291       14.210      864.588
01/19/2014  16:27:00       20.988      -29.940        0.375       18.105       10.339        8.531      327.807      106.896       72.779        0.092        0.025       36.563        6.864        0.035      340.275       14.184      864.603
01/19/2014  16:28:00       35.832      -29.494       -0.247       20.042       33.294       12.092      401.682     1108.514      146.211        0.190        0.083       46.409       10.835        0.055      340.213       14.077      864.618
01/19/2014  16:29:00       33.933      -52.305       -8.519       12.973       17.268        9.620      168.286      298.168       92.554        0.226        0.028       62.348        7.748        0.015      340.308       14.238      864.624
01/19/2014  16:30:00       28.443      -38.815        1.312       17.408       19.394       14.717      303.028      376.138      216.575        0.161        0.045       48.121       14.347        0.089      340.328       14.272      864.628
01/19/2014  16:31:00       29.879      -43.943       -8.565       17.144       13.677        9.887      293.901      187.070       97.748        0.174        0.029       53.139        3.697        0.005      340.245       14.133      864.639
01/19/2014  16:32:00        8.017      -19.158        3.341       17.523        7.905        8.284      307.053       62.485       68.633        0.044        0.022       20.768        5.496        0.070      340.330       14.276      864.647
01/19/2014  16:33:00       -3.851      -45.314       -5.812       15.430       20.329       17.039      238.094      413.286      290.316        0.152        0.047       45.477        8.846        0.038      340.106       13.898      864.658
01/19/2014  16:34:00       14.657      -39.293       -7.173       24.181       23.249       15.567      584.699      540.537      242.321        0.159        0.068       41.938       14.115        0.113      339.976       13.678      864.655
01/19/2014  16:35:00       26.434      -42.704       -3.303       19.711       17.715       13.771      388.508      313.823      189.650        0.171        0.045       50.223        9.889        0.039      340.104       13.894      864.657
01/19/2014  16:36:00       19.328      -42.886       -8.251       12.826       11.458       10.042      164.512      131.276      100.850        0.134        0.020       47.040        8.242        0.031      340.186       14.033      864.655
01/19/2014  16:37:00       15.875      -20.943       -0.828       15.337       19.177        8.284      235.230      367.745       68.633        0.068        0.034       26.279        8.245        0.098      340.143       13.959      864.656
01/19/2014  16:38:00        5.934       22.126        8.000       13.477       12.518        9.620      181.637      156.704       92.545        0.051        0.022       22.908        6.762        0.087      340.119       13.918      864.669
01/19/2014  16:39:00       32.266       23.608        8.145        6.169        5.719        7.008       38.063       32.702       49.116        0.089        0.006       39.980        2.723        0.005      340.030       13.771      864.684
01/19/2014  16:40:00       59.611       27.556       12.489       14.086        8.196        9.557      198.408       67.168       91.328        0.241        0.018       65.672        3.843        0.003      340.055       13.813      864.692
01/19/2014  16:41:00       66.957       25.643       10.379       18.067       11.544        9.195      326.418      133.258       84.550        0.290        0.027       71.700        6.278        0.008      339.984       13.692      864.699
01/19/2014  16:42:00       50.651       14.413        5.842       17.486       12.909       11.051      305.754      166.634      122.132        0.170        0.030       52.662        6.837        0.017      339.948       13.631      864.702
01/19/2014  16:43:00       32.512        8.509        0.135        8.930        7.450        6.742       79.737       55.499       45.451        0.066        0.009       33.607        3.864        0.013      339.928       13.597      864.713
01/19/2014  16:44:00       33.885       12.436        6.013        8.229        6.351        5.409       67.715       40.334       29.257        0.074        0.007       36.095        3.991        0.012      339.978       13.683      864.715
01/19/2014  16:45:00       22.420        6.151        3.216        8.937        5.868        4.055       79.865       34.431       16.442        0.034        0.007       23.249        2.405        0.011      339.996       13.712      864.722
01/19/2014  16:46:00        6.042       10.902        1.038        4.988        3.756        2.424       24.883       14.105        5.878        0.010        0.002       12.465        1.250        0.010      339.998       13.713      864.728
01/19/2014  16:47:00       -4.675       -0.122        4.452        8.037        4.331        4.358       64.595       18.755       18.991        0.007        0.005        4.677        4.062        0.754      339.857       13.479      864.738
01/19/2014  16:48:00       -4.622       -3.684       -0.487        4.332        3.565        2.736       18.768       12.709        7.483        0.004        0.002        5.911        1.724        0.085      339.729       13.263      864.741
01/19/2014  16:49:00       -8.852      -11.461        1.809        9.292        7.733        4.892       86.337       59.804       23.930        0.019        0.009       14.481        2.586        0.032      339.735       13.273      864.735
01/19/2014  16:50:00       -8.729      -21.480        2.352       13.061        9.205       10.792      170.595       84.726      116.466        0.046        0.019       23.186        8.671        0.140      339.739       13.280      864.727
01/19/2014  16:51:00      -19.688      -15.716      -10.351        9.778        9.473        8.040       95.616       89.732       64.635        0.050        0.012       25.191        7.741        0.094      339.511       12.893      864.726
01/19/2014  16:52:00      -25.383       -1.668       -3.310       12.144        7.526        5.052      147.476       56.634       25.523        0.044        0.011       25.437        2.732        0.012      339.625       13.088      864.725
01/19/2014  16:53:00      -39.824      -10.333       -8.465        9.599       10.443        5.626       92.148      109.051       31.654        0.100        0.012       41.143        4.153        0.010      339.509       12.889      864.724
01/19/2014  16:54:00      -39.832        0.490       -8.000        6.470        6.072        7.107       41.861       36.871       50.509        0.089        0.006       39.835        3.683        0.009      339.639       13.110      864.725
01/19/2014  16:55:00      -47.532       -9.911      -13.703        6.795        9.070        5.384       46.167       82.258       28.993        0.135        0.008       48.554        2.667        0.003      339.320       12.571      864.717
01/19/2014  16:56:00      -55.368        2.143      -12.471        8.490        8.077        6.383       72.072       65.245       40.738        0.170        0.009       55.409        3.680        0.004      339.199       12.369      864.713
01/19/2014  16:57:00      -62.210        2.110       -8.659        9.886        8.602        5.155       97.731       73.993       26.576        0.207        0.010       62.246        1.593        0.001      339.248       12.452      864.713
01/19/2014  16:58:00      -57.014      -20.764      -12.427        9.791       12.951        7.127       95.855      167.724       50.795        0.208        0.016       60.677        3.755        0.004      338.846       11.775      864.712
01/19/2014  16:59:00      -70.433       -9.121      -13.048       17.448       16.041        9.788      304.433      257.298       95.804        0.294        0.033       71.021        5.776        0.007      338.692       11.515      864.726
01/19/2014  17:00:00     -120.539      -25.732      -14.352       19.049       24.416       13.358      362.845      596.129      178.433        0.827        0.057      123.256       11.029        0.008      338.395       11.018      864.727
01/19/2014  17:01:00      -78.261      -48.106       -9.262       41.568       32.094       23.502     1727.914     1030.012      552.332        0.592        0.166       91.864       20.939        0.052      338.437       11.086      864.733
01/19/2014  17:02:00      -65.136      -34.789        2.061       36.571       26.174       21.349     1337.442      685.077      455.790        0.397        0.124       73.844       19.329        0.069      338.304       10.866      864.745
01/19/2014  17:03:00     -101.054       -5.209      -14.243       28.776       26.998       21.777      828.085      728.873      474.255        0.624        0.102      101.188       17.414        0.030      338.297       10.853      864.742
01/19/2014  17:04:00      -96.696       -4.890       -8.635       24.393       21.212       16.598      595.004      449.943      275.499        0.538        0.066       96.819       13.423        0.019      338.315       10.883      864.751
01/19/2014  17:05:00      -76.110      -18.925       -4.990       19.329       21.401       17.451      373.628      458.013      304.535        0.366        0.057       78.427       11.114        0.020      338.207       10.702      864.749
01/19/2014  17:06:00      -69.621      -11.663       -6.404       41.863       32.647       16.269     1752.484     1065.823      264.696        0.405        0.154       70.591       17.988        0.065      338.100       10.522      864.759
01/19/2014  17:07:00      -77.589      -17.846      -12.893       23.221       23.127       14.352      539.234      534.842      205.967        0.389        0.064       79.615        8.892        0.012      338.140       10.589      864.765
01/19/2014  17:08:00     -107.678      -36.049      -18.423       20.234       26.761       14.071      409.426      716.139      197.993        0.728        0.066      113.552        9.267        0.007      338.040       10.422      864.770
01/19/2014  17:09:00     -119.466      -25.413      -15.695       22.127       20.782       10.950      489.616      431.889      119.898        0.810        0.052      122.139       10.994        0.008      337.993       10.342      864.780
01/19/2014  17:10:00     -112.013      -14.964      -14.815       17.169       12.537       11.295      294.765      157.181      127.568        0.678        0.029      113.008        9.870        0.008      338.217       10.719      864.788
01/19/2014  17:11:00      -89.968      -27.933       -7.476       32.621       21.418       14.632     1064.156      458.717      214.103        0.533        0.087       94.205       12.167        0.017      338.254       10.779      864.793
01/19/2014  17:12:00      -97.200       -7.505       -5.485       30.416       16.645       13.778      925.127      277.050      189.837        0.546        0.070       97.490       14.083        0.021      338.050       10.439      864.796
01/19/2014  17:13:00      -65.792       -2.643       -4.560       34.788       20.333       18.923     1210.174      413.430      358.078        0.317        0.099       65.845       21.118        0.103      338.003       10.360      864.808
01/19/2014  17:14:00      -87.348      -27.349       -7.361       19.001       21.650       14.089      361.035      468.704      198.498        0.473        0.051       91.529        9.072        0.010      337.804       10.025      864.810
01/19/2014  17:15:00      -83.639       -1.058      -10.848       19.253       14.134       14.463      370.669      199.760      209.177        0.395        0.039       83.645       10.465        0.016      337.774        9.976      864.810
01/19/2014  17:16:00      -70.243        4.900      -10.176       25.203       18.478       12.142      635.167      341.421      147.423        0.309        0.056       70.414        9.113        0.017      337.702        9.854      864.811
01/19/2014  17:17:00      -71.681        7.556       -8.195       15.441       17.906       15.511      238.435      320.639      240.597        0.303        0.040       72.078       12.982        0.032      337.759        9.951      864.809
01/19/2014  17:18:00      -83.587        5.028       -3.933       26.228       17.337       14.378      687.924      300.578      206.735        0.411        0.060       83.739       14.241        0.029      337.863       10.124      864.802
01/19/2014  17:19:00     -101.472        6.768      -12.176       23.112       22.422       15.059      534.146      502.752      226.768        0.588        0.063      101.698       11.542        0.013      337.835       10.078      864.798
01/19/2014  17:20:00      -81.068      -20.479      -11.368       27.959       21.171       18.083      781.727      448.231      326.992        0.434        0.078       83.614       16.009        0.037      337.620        9.717      864.804
01/19/2014  17:21:00      -66.331      -10.982       -2.027       35.907       25.924       16.551     1289.280      672.077      273.926        0.338        0.112       67.234       19.588        0.085      337.473        9.471      864.810
01/19/2014  17:22:00      -68.525      -17.391       -7.891       49.931       25.188       16.793     2493.106      634.414      282.012        0.423        0.170       70.697       18.478        0.068      337.392        9.335      864.821
01/19/2014  17:23:00     -127.622      -32.471      -12.593       25.006       27.621       17.024      625.322      762.934      289.826        0.959        0.084      131.689       13.021        0.010      337.242        9.084      864.831
01/19/2014  17:24:00      -88.811        5.250       -6.171       64.249       32.265       25.169     4127.876     1041.011      633.489        0.688        0.290       88.966       29.731        0.112      337.257        9.110      864.844
01/19/2014  17:25:00      -78.429       -9.161       -3.869       48.566       31.611       25.407     2358.642      999.248      645.501        0.513        0.200       78.962       26.037        0.109      337.152        8.933      864.849
01/19/2014  17:26:00      -55.234       22.267      -12.223       38.594       27.038       23.150     1489.496      731.037      535.918        0.323        0.138       59.553        8.444        0.020      337.263        9.122      864.854
01/19/2014  17:27:00      -84.842       16.320       -5.808       46.742       35.711       25.895     2184.801     1275.281      670.548        0.581        0.207       86.398       13.103        0.023      337.272        9.135      864.857
01/19/2014  17:28:00     -113.486       14.761       -6.811       49.691       38.151       26.367     2469.146     1455.498      695.200        0.888        0.231      114.442       23.273        0.041      337.137        8.908      864.863
01/19/2014  17:29:00     -108.169       14.890        0.997       53.585       41.750       28.760     2871.365     1743.061      827.155        0.868        0.272      109.189       27.542        0.064      337.068        8.791      864.861
01/19/2014  17:30:00     -131.431       34.809      -17.478       55.555       38.610       29.996     3086.321     1490.709      899.748        1.213        0.274      135.963       26.130        0.037      336.967        8.621      864.862
01/19/2014  17:31:00     -135.592       14.362      -10.620       42.037       45.601       22.080     1767.113     2079.470      487.546        1.152        0.217      136.351       11.531        0.007      336.922        8.548      864.873
01/19/2014  17:32:00     -103.973      -14.086       -6.730       40.135       36.821       19.514     1610.821     1355.797      380.812        0.720        0.167      104.923       19.299        0.034      336.831        8.397      864.889
01/19/2014  17:33:00     -106.595       15.719       -7.449       49.462       39.980       26.621     2446.528     1598.420      708.668        0.821        0.238      107.748       25.011        0.054      336.816        8.371      864.900
01/19/2014  17:34:00     -122.413       13.914      -10.789       49.801       39.392       27.820     2480.093     1551.694      773.925        1.005        0.240      123.201       17.290        0.020      336.884        8.484      864.911
01/19/2014  17:35:00     -162.361       53.143      -16.606       43.524       38.811       28.283     1894.315     1506.294      799.906        1.683        0.210      170.836       26.021        0.023      336.882        8.482      864.931
01/19/2014  17:36:00     -208.932       47.802      -21.502       33.398       39.823       24.308     1115.409     1585.849      590.858        2.485        0.165      214.331       17.056        0.006      336.818        8.372      864.930
01/19/2014  17:37:00     -226.673       58.395      -21.500       36.190       30.973       19.496     1309.745      959.333      380.106        2.895        0.132      234.074        9.816        0.002      336.778        8.305      864.939
01/19/2014  17:38:00     -189.604       61.287      -16.981       38.323       26.767       26.387     1468.674      716.478      696.252        2.144        0.144      199.263       16.830        0.007      336.863        8.450      864.947
01/19/2014  17:39:00     -106.006       44.620       -6.298       50.608       28.838       27.458     2561.167      831.607      753.927        0.871        0.207      115.014       20.669        0.032      336.846        8.423      864.945
01/19/2014  17:40:00     -110.641       47.152       -7.672       48.971       36.510       34.906     2398.125     1332.951     1218.454        0.974        0.247      120.269       17.996        0.022      336.828        8.391      864.951
01/19/2014  17:41:00      -76.707       43.465        3.136       50.741       28.795       30.979     2574.611      829.157      959.672        0.607        0.218       88.165       27.835        0.100      336.771        8.299      864.948
01/19/2014  17:42:00     -129.213       32.796      -10.768       50.439       27.141       19.105     2544.054      736.645      364.995        1.077        0.182      133.310       15.968        0.014      336.720        8.212      864.946
01/19/2014  17:43:00      -33.996       -3.290       -0.279       33.725       25.591       21.114     1137.390      654.894      445.803        0.170        0.112       34.154       19.871        0.338      336.640        8.079      864.944
01/19/2014  17:44:00     -100.085      -46.966      -12.537       31.154       33.828       17.604      970.574     1144.342      309.883        0.740        0.121      110.557        8.034        0.005      336.608        8.025      864.951
01/19/2014  17:45:00     -125.117      -23.971      -18.105       31.934       26.217       16.465     1019.810      687.351      271.090        0.927        0.099      127.393        7.831        0.004      336.456        7.770      864.960
01/19/2014  17:46:00     -108.611      -31.223      -25.386       22.531       21.543       14.525      507.627      464.098      210.987        0.730        0.059      113.009       13.207        0.014      336.338        7.573      864.972
01/19/2014  17:47:00     -102.157      -16.342      -21.630       32.902       32.142       16.801     1082.571     1033.117      282.258        0.678        0.120      103.456       11.417        0.012      336.434        7.732      864.981
01/19/2014  17:48:00      -88.814      -12.230      -14.861       23.156       22.735       18.196      536.219      516.861      331.090        0.482        0.069       89.652       15.443        0.030      336.492        7.829      864.995
01/19/2014  17:49:00      -85.581      -26.884      -15.461       19.210       19.957       16.626      369.027      398.296      276.424        0.466        0.052       89.704       10.544        0.014      336.329        7.558      865.002
01/19/2014  17:50:00     -102.402      -15.521      -17.307       10.262       12.340        9.328      105.305      152.272       87.005        0.569        0.017      103.572        7.145        0.005      336.364        7.616      865.009
01/19/2014  17:51:00      -94.236      -13.912      -20.496       10.897       16.267       10.475      118.749      264.620      109.735        0.499        0.025       95.257        5.533        0.003      336.339        7.574      865.020
01/19/2014  17:52:00      -73.765      -14.352      -17.628       11.292       18.051       12.170      127.506      325.837      148.104        0.328        0.030       75.148        6.883        0.008      336.274        7.465      865.036
01/19/2014  17:53:00      -73.083      -19.623      -16.128        9.807       13.465       10.270       96.176      181.304      105.471        0.318        0.019       75.672        8.335        0.012      336.305        7.516      865.043
01/19/2014  17:54:00      -64.143       -1.371      -13.982       16.699        8.525        7.698      278.869       72.675       59.253        0.236        0.021       64.158        6.196        0.009      336.757        8.273      865.049
01/19/2014  17:55:00      -75.810      -28.103      -12.072       12.135       12.245        8.738      147.253      149.937       76.354        0.353        0.019       80.852        5.019        0.004      336.323        7.547      865.055
01/19/2014  17:56:00     -107.715      -34.099      -20.269       23.118       14.910        8.722      534.444      222.295       76.077        0.700        0.042      112.983        5.900        0.003      336.119        7.206      865.060
01/19/2014  17:57:00     -132.189      -31.730      -16.263       21.866       21.511       15.732      478.141      462.723      247.507        0.997        0.059      135.944       11.452        0.007      336.123        7.212      865.069
01/19/2014  17:58:00     -129.075       -9.270      -25.184       17.079       15.180       13.306      291.691      230.441      177.045        0.904        0.035      129.407        8.579        0.004      336.078        7.137      865.073
01/19/2014  17:59:00     -104.617        1.359      -21.732       19.523       16.633       13.698      381.157      276.644      187.632        0.613        0.042      104.626        9.931        0.009      336.373        7.630      865.081
01/19/2014  18:00:00      -84.779       -4.415      -16.219       16.605       19.622       11.071      275.742      385.030      122.564        0.413        0.039       84.894        4.932        0.003      336.361        7.612      865.086
01/19/2014  18:01:00      -61.249      -24.115       -9.705        9.405       17.240       12.161       88.457      297.230      147.898        0.248        0.027       65.826        5.378        0.007      336.528        7.891      865.095
01/19/2014  18:02:00      -69.390      -22.357      -17.610        9.283       10.685        7.123       86.176      114.169       50.740        0.294        0.013       72.903        3.523        0.002      336.189        7.322      865.103
01/19/2014  18:03:00      -88.415      -26.173      -23.984       10.618       14.175        7.881      112.750      200.917       62.111        0.473        0.019       92.208        4.951        0.003      336.158        7.271      865.115
01/19/2014  18:04:00     -110.994      -16.108      -24.492       14.453       10.797        9.456      208.890      116.571       89.410        0.680        0.021      112.157        7.038        0.004      336.096        7.166      865.117
01/19/2014  18:05:00     -117.704      -23.562      -17.852       28.988       24.969       17.142      840.299      623.457      293.864        0.824        0.088      120.040        9.843        0.007      336.056        7.100      865.130
01/19/2014  18:06:00     -131.912       -8.433      -21.450       27.348       13.831       11.263      747.916      191.301      126.865        0.950        0.053      132.182        7.647        0.003      336.210        7.357      865.143
01/19/2014  18:07:00     -110.055        3.312      -23.204       14.889       14.461       10.512      221.689      209.120      110.502        0.660        0.027      110.104        6.807        0.004      336.124        7.215      865.154
01/19/2014  18:08:00      -79.976      -12.833      -19.466       12.951       15.269        8.661      167.717      233.128       75.021        0.371        0.024       80.999        8.197        0.010      336.018        7.037      865.165
01/19/2014  18:09:00      -70.649      -29.732      -14.158       13.606       17.834       12.278      185.128      318.054      150.742        0.336        0.033       76.651        2.803        0.001      336.050        7.091      865.176
01/19/2014  18:10:00      -68.444      -33.160      -14.379       13.637       17.630       11.889      185.955      310.825      141.345        0.331        0.032       76.054        7.081        0.009      336.027        7.052      865.176
01/19/2014  18:11:00      -73.522      -20.737      -20.873       11.302       12.260        8.962      127.724      150.302       80.315        0.331        0.018       76.390        6.409        0.007      335.969        6.956      865.176
01/19/2014  18:12:00      -68.322      -16.796      -14.335       10.112       10.093        9.798      102.249      101.870       96.003        0.273        0.015       70.356        5.575        0.006      336.087        7.154      865.170
01/19/2014  18:13:00      -57.941      -26.917       -6.135       13.115       14.855        8.800      172.012      220.663       77.439        0.229        0.024       63.888        5.696        0.008      336.040        7.076      865.176
01/19/2014  18:14:00      -79.828      -14.203      -20.732       17.863       12.216       10.729      319.102      149.242      115.121        0.379        0.029       81.082        7.602        0.009      335.983        6.981      865.177
01/19/2014  18:15:00      -97.378       -8.094      -20.004       13.608       13.313        9.593      185.187      177.235       92.017        0.520        0.023       97.714        5.988        0.004      335.946        6.919      865.180
01/19/2014  18:16:00      -88.835       -9.358      -13.957       13.248       10.264        9.535      175.517      105.345       90.924        0.427        0.019       89.326        6.054        0.005      335.937        6.903      865.185
01/19/2014  18:17:00      -89.072       -8.340      -20.248       10.737       14.533        9.639      115.283      211.212       92.910        0.442        0.021       89.462        6.837        0.006      335.958        6.938      865.176
01/19/2014  18:18:00      -80.067      -11.380      -13.200       12.228       16.453       10.890      149.512      270.689      118.587        0.363        0.027       80.871        7.375        0.008      335.910        6.860      865.182
01/19/2014  18:19:00      -82.478      -15.751      -20.420       11.104       12.812        9.690      123.303      164.155       93.900        0.392        0.019       83.969        5.959        0.005      335.909        6.856      865.179
01/19/2014  18:20:00      -80.288      -17.209      -20.067       15.068       17.817       10.869      227.054      317.447      118.141        0.390        0.033       82.112        8.416        0.011      335.738        6.574      865.182
01/19/2014  18:21:00      -87.535      -12.001      -20.455       12.938       11.047        7.013      167.403      122.038       49.180        0.428        0.017       88.353        6.489        0.005      335.980        6.976      865.190
01/19/2014  18:22:00      -93.272       -8.211      -19.366       14.812        9.442        9.253      219.391       89.146       85.610        0.477        0.020       93.632        7.549        0.007      335.710        6.524      865.184
01/19/2014  18:23:00      -66.339      -23.607      -18.742       11.470       15.805        6.237      131.569      249.785       38.897        0.286        0.021       70.414        6.983        0.010      336.083        7.149      865.185
01/19/2014  18:24:00      -69.874       -8.994      -13.648       10.194       14.404        7.818      103.908      207.489       61.114        0.276        0.019       70.451        5.157        0.005      336.034        7.066      865.192
01/19/2014  18:25:00      -62.703      -29.426      -13.710        8.337        9.266        8.947       69.512       85.855       80.055        0.261        0.012       69.265        5.293        0.006      335.946        6.918      865.205
01/19/2014  18:26:00      -73.421      -23.640      -13.926       13.657       13.713        8.485      186.516      188.041       71.996        0.329        0.022       77.133        3.532        0.002      335.756        6.604      865.218
01/19/2014  18:27:00      -66.881      -21.197      -21.624       12.970       11.581        6.839      168.230      134.128       46.775        0.287        0.017       70.160        3.117        0.002      335.759        6.607      865.229
01/19/2014  18:28:00      -94.424       -5.464      -21.847       10.005       10.547        7.932      100.092      111.230       62.911        0.485        0.014       94.582        5.054        0.003      335.579        6.306      865.239
01/19/2014  18:29:00     -104.677       -2.434      -21.199       18.877       13.222       11.864      356.336      174.817      140.746        0.604        0.034      104.705        9.396        0.008      335.520        6.210      865.246
01/19/2014  18:30:00     -115.124       -4.437      -23.882       12.438       14.078        9.972      154.699      198.187       99.447        0.715        0.023      115.210        4.009        0.001      335.560        6.275      865.259
01/19/2014  18:31:00     -109.015      -17.104      -24.536       11.593       15.628       12.346      134.396      244.229      152.432        0.665        0.027      110.349        6.051        0.003      335.500        6.176      865.272
01/19/2014  18:32:00      -97.460      -15.346      -22.470       13.379       18.813       10.679      179.010      353.945      114.047        0.544        0.032       98.661        7.809        0.006      335.682        6.478      865.281
01/19/2014  18:33:00      -95.531      -27.692      -16.578       20.860       21.635       14.376      435.125      468.087      206.673        0.564        0.055       99.464       11.189        0.013      335.505        6.185      865.280
01/19/2014  18:34:00      -90.926      -10.367      -20.119       16.573       17.761       11.081      274.666      315.453      122.787        0.475        0.036       91.515        9.658        0.011      335.506        6.186      865.290
01/19/2014  18:35:00     -112.216       -4.630      -23.787       14.549       17.715       11.877      211.678      313.821      141.053        0.692        0.033      112.311        6.911        0.004      335.579        6.306      865.293
01/19/2014  18:36:00      -94.935      -19.661      -19.446       30.902       19.876       16.818      954.927      395.069      282.848        0.570        0.082       96.949       15.001        0.024      335.476        6.134      865.306
01/19/2014  18:37:00     -107.578      -11.321      -20.077       16.914       22.205       13.310      286.096      493.055      177.166        0.653        0.048      108.172       10.381        0.009      335.534        6.231      865.309
01/19/2014  18:38:00      -94.119      -14.184      -15.450       22.921       21.377       15.615      525.360      456.991      243.836        0.526        0.061       95.182        6.198        0.004      335.522        6.210      865.333
01/19/2014  18:39:00     -133.404       -5.933      -24.678       12.803       14.108       13.130      163.910      199.042      172.395        0.949        0.027      133.536       10.965        0.007      335.537        6.237      865.339
01/19/2014  18:40:00     -131.851       -5.472      -22.331       17.968       12.994       12.405      322.847      168.851      153.882        0.928        0.032      131.965        4.271        0.001      335.538        6.238      865.357
01/19/2014  18:41:00     -161.970       18.290      -22.288        8.836       10.128        7.507       78.075      102.570       56.360        1.365        0.012      163.000        4.227        0.001      335.840        6.741      865.367
01/19/2014  18:42:00     -158.692       22.984      -23.290       12.421       11.319       10.254      154.282      128.130      105.139        1.332        0.019      160.348        5.838        0.001      335.863        6.779      865.376
01/19/2014  18:43:00      -90.448       -6.824      -18.624       33.167       19.932       14.630     1100.030      397.285      214.033        0.514        0.086       90.705       14.704        0.026      335.607        6.355      865.392
01/19/2014  18:44:00     -110.085       -3.268      -19.193       20.561       17.499       15.362      422.764      306.217      235.977        0.673        0.048      110.133       11.306        0.011      335.523        6.213      865.403
01/19/2014  18:45:00     -104.391       -8.421      -17.679       22.483       21.312       15.962      505.464      454.200      254.784        0.625        0.061      104.730       14.624        0.019      335.505        6.182      865.422
01/19/2014  18:46:00      -97.719      -16.779      -18.392       20.370       23.012       15.326      414.922      529.535      234.889        0.567        0.059       99.149       12.111        0.015      335.447        6.088      865.442
01/19/2014  18:47:00     -117.968       -4.845      -14.299       29.635       27.482       16.930      878.230      755.270      286.641        0.803        0.096      118.068       16.276        0.019      335.359        5.940      865.462
01/19/2014  18:48:00     -117.692      -20.286      -17.289       41.646       31.712       16.785     1734.421     1005.679      281.733        0.879        0.151      119.428       11.724        0.010      335.316        5.868      865.491
01/19/2014  18:49:00     -110.766      -46.220      -11.195       25.215       30.767       18.554      635.788      946.601      344.265        0.823        0.096      120.023       14.939        0.015      335.241        5.743      865.506
01/19/2014  18:50:00      -55.867      -55.598       -3.976       34.409       27.237       15.657     1184.002      741.847      245.129        0.420        0.109       78.818       11.446        0.021      335.281        5.810      865.526
01/19/2014  18:51:00     -131.992        1.259      -24.673       17.049       15.727       13.097      290.658      247.337      171.529        0.937        0.035      131.998        9.552        0.005      335.391        5.993      865.546
01/19/2014  18:52:00     -126.825       11.733      -20.694       10.349       13.712        8.603      107.097      188.012       74.014        0.851        0.018      127.367        4.609        0.001      335.494        6.165      865.554
01/19/2014  18:53:00      -85.026      -14.284       -8.971       26.054       18.004       10.167      678.792      324.142      103.360        0.431        0.055       86.218       11.347        0.017      335.448        6.088      865.565
01/19/2014  18:54:00      -83.436      -24.199      -16.301       19.205       20.772       11.893      368.843      431.472      141.435        0.438        0.047       86.874       11.815        0.018      335.601        6.343      865.562
01/19/2014  18:55:00     -107.160       -7.753      -18.204       14.425       15.558       11.802      208.080      242.057      139.277        0.623        0.029      107.440       10.093        0.009      335.656        6.435      865.563
01/19/2014  18:56:00     -117.639       -0.681      -14.881       21.096       19.318       12.293      445.027      373.181      151.110        0.751        0.048      117.640        8.790        0.006      335.597        6.337      865.575
01/19/2014  18:57:00     -103.579       -1.809      -22.177       30.646       10.744       13.163      939.194      115.437      173.276        0.623        0.061      103.594       14.912        0.021      335.573        6.298      865.578
01/19/2014  18:58:00     -101.261      -14.297      -12.584       24.580       27.227       23.103      604.183      741.307      533.770        0.625        0.094      102.265       16.054        0.025      335.473        6.130      865.583
01/19/2014  18:59:00     -103.250       -2.563      -15.257       21.154       29.640       17.028      447.492      878.523      289.943        0.626        0.081      103.282       14.294        0.019      335.304        5.848      865.584
01/19/2014  19:00:00     -102.276      -13.736       -9.523       32.085       27.136       18.750     1029.451      736.360      351.571        0.643        0.106      103.194       17.117        0.028      335.222        5.713      865.595
01/19/2014  19:01:00      -96.032       -0.209      -14.993       34.283       24.351       19.674     1175.318      592.962      387.050        0.580        0.108       96.032       15.882        0.027      335.235        5.733      865.592
01/19/2014  19:02:00     -104.075        1.097      -16.562       32.735       23.198       17.294     1071.559      538.168      299.076        0.651        0.095      104.081       19.961        0.037      335.183        5.648      865.592
01/19/2014  19:03:00      -96.595      -21.887      -19.042       25.208       26.295       17.160      635.437      691.427      294.450        0.590        0.081       99.044       16.311        0.027      335.227        5.719      865.583
01/19/2014  19:04:00     -137.687        3.411      -23.552       18.032       18.605       12.801      325.138      346.151      163.872        1.018        0.042      137.729        6.183        0.002      335.256        5.769      865.586
01/19/2014  19:05:00     -122.896       -3.224      -21.194       25.447       27.766       18.983      647.544      770.943      360.346        0.867        0.089      122.938       14.329        0.014      335.190        5.659      865.584
01/19/2014  19:06:00     -150.625       -6.974      -27.379       18.059       14.797        8.837      326.131      218.964       78.098        1.205        0.031      150.786        3.527        0.001      335.260        5.775      865.592
01/19/2014  19:07:00     -121.556      -23.058      -20.528       16.047       18.736       13.311      257.500      351.049      177.186        0.826        0.039      123.724        8.222        0.004      335.232        5.728      865.583
01/19/2014  19:08:00     -148.714      -27.124      -26.259       14.785       13.117       10.958      218.607      172.060      120.087        1.203        0.026      151.167        8.848        0.003      335.276        5.801      865.594
01/19/2014  19:09:00     -142.839      -33.247      -22.640       27.425       16.511       14.019      752.144      272.601      196.535        1.162        0.061      146.657       14.613        0.010      335.308        5.854      865.597
01/19/2014  19:10:00     -135.211      -31.930      -20.452       23.147       19.600       14.262      535.779      384.163      203.415        1.042        0.056      138.930        9.817        0.005      335.213        5.697      865.610
01/19/2014  19:11:00     -113.989      -68.060      -16.144       27.094       26.141       17.344      734.062      683.340      300.803        0.980        0.086      132.762       11.361        0.007      335.017        5.372      865.611
01/19/2014  19:12:00     -145.409      -38.700      -11.997       26.421       24.045       14.446      698.078      578.173      208.684        1.213        0.074      150.471       11.273        0.006      334.986        5.320      865.613
01/19/2014  19:13:00     -126.208      -46.288        0.189       35.727       30.137       19.859     1276.391      908.253      394.366        1.032        0.129      134.429       15.721        0.014      334.883        5.151      865.620
01/19/2014  19:14:00      -91.496      -35.754       -6.420       45.239       37.908       23.958     2046.559     1437.002      573.989        0.687        0.203       98.234       19.257        0.038      334.865        5.119      865.609
01/19/2014  19:15:00      -91.252      -27.994       -5.874       43.658       37.612       18.310     1906.057     1414.627      335.243        0.640        0.183       95.449       19.800        0.043      334.849        5.092      865.612
01/19/2014  19:16:00     -116.272      -17.203       -9.823       33.959       33.890       20.193     1153.225     1148.563      407.743        0.831        0.135      117.538       18.036        0.024      334.909        5.193      865.616
01/19/2014  19:17:00     -145.952       -0.509      -15.893       55.775       30.586       21.175     3110.816      935.525      448.389        1.302        0.225      145.953       21.698        0.022      335.131        5.561      865.624
01/19/2014  19:18:00     -201.819       45.600      -19.776       43.065       36.504       26.271     1854.620     1332.513      690.187        2.354        0.194      206.906       20.366        0.010      335.243        5.746      865.653
01/19/2014  19:19:00     -170.147       20.012      -14.467       60.395       36.549       27.899     3647.501     1335.818      778.343        1.766        0.288      171.320       28.441        0.028      335.253        5.761      865.663
01/19/2014  19:20:00     -120.741      -15.897      -13.203       42.685       47.952       24.252     1821.977     2299.432      588.153        0.986        0.235      121.782        9.530        0.006      335.074        5.466      865.688
01/19/2014  19:21:00      -84.054      -35.042        2.430       34.420       36.590       21.480     1184.763     1338.846      461.407        0.564        0.149       91.066       21.302        0.055      335.006        5.354      865.703
01/19/2014  19:22:00     -128.946      -21.143       -8.680       38.706       28.548       19.910     1498.156      815.007      396.410        0.993        0.135      130.667       18.583        0.020      335.066        5.453      865.731
01/19/2014  19:23:00      -99.312      -14.773       -6.222       51.752       32.660       15.963     2678.265     1066.671      254.806        0.706        0.200      100.404       23.241        0.054      335.029        5.393      865.730
01/19/2014  19:24:00     -134.306      -49.834      -11.868       15.446       16.301       15.321      238.568      265.717      234.738        1.070        0.037      143.253       11.050        0.006      334.983        5.316      865.735
01/19/2014  19:25:00     -152.042      -39.932      -17.687       10.975        9.649        8.397      120.453       93.101       70.507        1.265        0.014      157.199        1.959        0.000      335.031        5.396      865.742
01/19/2014  19:26:00      -92.363      -30.718       -8.566       27.930       17.686       17.224      780.072      312.796      296.676        0.547        0.069       97.337       15.319        0.025      334.962        5.281      865.742
01/19/2014  19:27:00      -85.979      -35.993      -10.612       13.976       14.590        6.815      195.337      212.877       46.446        0.463        0.023       93.209        5.222        0.003      335.063        5.448      865.746
01/19/2014  19:28:00     -159.134      -51.739      -25.096       11.990       11.282        9.138      143.749      127.284       83.507        1.449        0.018      167.334        5.135        0.001      335.420        6.041      865.736
01/19/2014  19:29:00     -126.953      -65.036       -9.042       46.178       19.247       18.487     2132.401      370.438      341.779        1.164        0.142      142.642       16.015        0.013      335.226        5.718      865.721
01/19/2014  19:30:00      -59.805      -28.426       -0.640       36.325       24.738       19.620     1319.488      611.950      384.938        0.335        0.116       66.216       19.456        0.086      334.918        5.208      865.732
01/19/2014  19:31:00      -93.444      -41.112        3.821       40.287       27.876       20.235     1623.014      777.049      409.467        0.662        0.140      102.088       21.326        0.044      334.893        5.165      865.739
01/19/2014  19:32:00     -124.500      -57.948        0.011       27.818       30.291       19.616      773.852      917.528      384.772        1.047        0.104      137.325       15.091        0.012      334.778        4.974      865.748
01/19/2014  19:33:00     -126.995      -59.182       -7.485       36.786       25.303       18.728     1353.176      640.248      350.725        1.101        0.117      140.108       15.990        0.013      334.918        5.209      865.750
01/19/2014  19:34:00     -149.171      -78.514      -12.035       24.221       20.725       13.238      586.663      429.537      175.258        1.488        0.060      168.571       12.651        0.006      334.957        5.271      865.745
01/19/2014  19:35:00     -169.845      -73.084      -20.818       20.107       17.847       14.200      404.280      318.517      201.635        1.777        0.046      184.902        5.313        0.001      334.958        5.274      865.734
01/19/2014  19:36:00     -156.638      -80.279      -10.624       22.289       22.380       16.722      496.779      500.883      279.641        1.619        0.064      176.012       13.946        0.006      334.965        5.287      865.735
01/19/2014  19:37:00     -156.107      -72.467      -10.343       16.206       21.415       13.762      262.641      458.622      189.384        1.532        0.046      172.107        9.333        0.003      334.920        5.211      865.734
01/19/2014  19:38:00     -148.516      -71.063      -15.832       20.079       15.814       10.981      403.178      250.073      120.592        1.407        0.039      164.642        3.479        0.000      334.913        5.200      865.747
01/19/2014  19:39:00     -138.214      -67.959       -7.699       26.894       19.249       17.298      723.297      370.510      299.219        1.259        0.070      154.018       11.931        0.006      334.919        5.210      865.765
01/19/2014  19:40:00     -126.929      -80.731       -6.801       28.848       26.077       17.968      832.187      679.997      322.860        1.225        0.092      150.428       12.071        0.006      334.920        5.211      865.762
01/19/2014  19:41:00     -132.263      -80.989       -2.444       53.193       29.028       19.572     2829.446      842.615      383.059        1.406        0.203      155.090       15.815        0.010      334.907        5.189      865.766
01/19/2014  19:42:00     -108.083      -79.951        1.746       55.512       39.770       25.058     3081.530     1581.673      627.903        1.168        0.265      134.440       27.773        0.043      334.885        5.154      865.776
01/19/2014  19:43:00     -155.582      -94.640       -6.100       40.477       25.082       20.831     1638.391      629.116      433.938        1.795        0.135      182.106       14.020        0.006      334.862        5.115      865.771
01/19/2014  19:44:00     -114.049      -76.201        4.203       45.917       39.561       27.603     2108.353     1565.054      761.948        1.163        0.222      137.163       23.481        0.029      334.817        5.040      865.770
01/19/2014  19:45:00     -113.624      -88.563       11.765       50.912       42.308       33.806     2592.076     1789.927     1142.837        1.321        0.276      144.062       32.355        0.050      334.782        4.981      865.778
01/19/2014  19:46:00     -113.065      -89.280        6.917       55.803       52.249       27.908     3113.975     2730.002      778.837        1.371        0.331      144.065       27.857        0.037      334.824        5.050      865.780
01/19/2014  19:47:00     -127.753     -107.728        5.736       73.237       49.375       38.274     5363.620     2437.876     1464.930        1.861        0.463      167.111       37.195        0.050      334.918        5.207      865.787
01/19/2014  19:48:00     -143.843      -92.846        6.024       74.971       50.356       31.567     5620.637     2535.717      996.473        1.925        0.458      171.205       33.147        0.037      334.981        5.312      865.803
01/19/2014  19:49:00     -185.489     -104.422        3.554       59.955       39.710       27.667     3594.561     1576.855      765.483        2.563        0.297      212.862       31.768        0.022      335.094        5.497      865.823
01/19/2014  19:50:00     -167.697     -114.565        1.451       56.689       36.905       30.238     3213.672     1362.002      914.342        2.337        0.275      203.094       31.238        0.024      335.265        5.782      865.834
01/19/2014  19:51:00     -136.538      -65.313        0.649       52.244       37.828       23.089     2729.431     1430.934      533.109        1.380        0.235      151.356       25.567        0.029      335.193        5.664      865.851
01/19/2014  19:52:00     -115.099      -61.325        5.796       43.805       30.905       23.193     1918.856      955.100      537.938        1.023        0.171      130.417       20.989        0.026      335.099        5.509      865.852
01/19/2014  19:53:00     -150.353      -61.440       -9.956       18.413       18.227       14.901      339.035      332.218      222.033        1.369        0.045      162.422       12.755        0.006      335.100        5.509      865.855
01/19/2014  19:54:00     -160.427      -59.986       -4.439       20.183       20.710       15.039      407.334      428.903      226.165        1.521        0.053      171.275       10.583        0.004      335.043        5.416      865.852
01/19/2014  19:55:00     -135.213      -57.356        0.024       28.480       22.080       17.282      811.112      487.513      298.661        1.158        0.080      146.875       13.908        0.009      335.027        5.389      865.853
01/19/2014  19:56:00      -91.114      -62.774        7.087       46.225       34.670       24.906     2136.755     1202.012      620.305        0.813        0.198      110.645       23.368        0.045      335.093        5.499      865.851
01/19/2014  19:57:00     -145.010      -68.624        1.651       29.341       19.819       16.971      860.895      392.800      288.030        1.364        0.077      160.428       15.887        0.010      335.005        5.352      865.853
01/19/2014  19:58:00     -162.662      -62.388       -4.859       25.238       23.631       13.332      636.956      558.405      177.730        1.587        0.069      174.216       10.731        0.004      335.040        5.410      865.856
01/19/2014  19:59:00     -159.743      -63.798        1.522       32.037       20.401       19.434     1026.391      416.206      377.672        1.570        0.091      172.012       17.585        0.010      334.963        5.284      865.854
01/19/2014  20:00:00     -159.417      -51.782        1.585       35.797       20.922       15.429     1281.413      437.711      238.056        1.503        0.098      167.616       17.351        0.011      334.893        5.166      865.855
01/19/2014  20:01:00     -119.826      -19.040       -5.820       39.714       29.619       18.747     1577.224      877.292      351.461        0.878        0.140      121.329       15.536        0.016      334.669        4.793      865.852
01/19/2014  20:02:00      -97.402      -29.702        2.733       38.751       26.520       21.374     1501.615      703.301      456.860        0.652        0.133      101.830       21.447        0.044      334.620        4.712      865.844
01/19/2014  20:03:00     -126.715      -38.906       -1.863       26.432       37.061       16.554      698.650     1373.528      274.021        0.996        0.117      132.554       13.676        0.011      334.588        4.660      865.844
01/19/2014  20:04:00     -159.818      -42.932       -6.214       26.139       23.497       15.769      683.250      552.119      248.662        1.445        0.074      165.484       13.229        0.006      334.559        4.610      865.851
01/19/2014  20:05:00     -149.299      -17.362      -12.336       52.311       22.867       15.720     2736.444      522.904      247.114        1.312        0.175      150.305       15.409        0.011      334.398        4.345      865.853
01/19/2014  20:06:00      -92.910       -8.006       -6.927       44.287       38.045       23.518     1961.372     1447.394      553.118        0.635        0.198       93.255       23.127        0.062      334.417        4.377      865.858
01/19/2014  20:07:00     -136.612       34.006      -12.726       53.972       31.090       20.329     2912.978      966.560      413.284        1.214        0.215      140.781       16.034        0.013      334.793        5.001      865.875
01/19/2014  20:08:00     -160.114       50.473      -13.564       46.263       32.097       27.093     2140.282     1030.241      734.029        1.614        0.195      167.881       21.093        0.016      334.747        4.923      865.898
01/19/2014  20:09:00     -170.508       63.208      -12.988       53.971       29.518       24.287     2912.907      871.321      589.876        1.880        0.219      181.846        3.365        0.000      334.722        4.880      865.905
01/19/2014  20:10:00     -153.907       37.197      -10.464       50.954       33.226       22.367     2596.286     1103.942      500.262        1.469        0.210      158.338       21.245        0.018      334.746        4.922      865.916
01/19/2014  20:11:00     -137.431       22.461      -18.983       47.367       30.797       18.452     2243.603      948.452      340.479        1.164        0.177      139.254       15.982        0.013      334.696        4.838      865.928
01/19/2014  20:12:00     -110.976       16.365      -12.901       42.737       40.060       21.401     1826.416     1604.821      458.000        0.832        0.194      112.177       18.619        0.028      334.726        4.890      865.950
01/19/2014  20:13:00      -98.101        0.525      -11.871       32.259       32.227       22.015     1040.615     1038.556      484.681        0.616        0.128       98.102       14.784        0.023      334.715        4.871      865.953
01/19/2014  20:14:00      -91.374      -28.411       -5.478       30.591       35.957       19.128      935.811     1292.890      365.888        0.589        0.130       95.689       14.893        0.024      334.386        4.324      865.958
01/19/2014  20:15:00     -101.089      -40.686       -5.165       36.674       34.377       20.719     1344.980     1181.763      429.295        0.743        0.148      108.970       17.136        0.025      334.257        4.111      865.975
01/19/2014  20:16:00      -91.206      -26.340      -11.651       39.529       34.303       15.080     1562.508     1176.687      227.397        0.606        0.148       94.933       10.250        0.012      334.261        4.116      865.976
01/19/2014  20:17:00     -125.198      -53.388      -14.705       26.378       30.256       17.241      695.779      915.441      297.237        1.032        0.095      136.106        6.983        0.003      334.186        3.993      865.972
01/19/2014  20:18:00     -141.745      -47.590      -14.942       32.177       28.562       21.863     1035.335      815.789      477.985        1.245        0.116      149.521        8.880        0.004      334.127        3.894      865.969
01/19/2014  20:19:00     -116.805      -65.300       -3.230       49.159       49.887       30.771     2416.644     2488.731      946.824        1.188        0.293      133.819       26.783        0.040      334.188        3.996      865.981
01/19/2014  20:20:00      -99.263      -10.799       -1.168       63.504       58.779       38.320     4032.717     3454.921     1468.430        0.946        0.448       99.849       34.861        0.122      334.233        4.070      865.979
01/19/2014  20:21:00     -121.024      -18.819       -9.315       66.041       48.283       33.881     4361.430     2331.215     1147.907        1.146        0.392      122.479       37.324        0.093      334.237        4.077      865.985
01/19/2014  20:22:00      -87.647       -8.810       -5.401       58.925       42.660       26.207     3472.173     1819.877      686.827        0.688        0.299       88.089       22.106        0.063      334.148        3.929      865.997
01/19/2014  20:23:00      -64.252       -5.752        1.072       38.442       37.931       28.905     1477.767     1438.741      835.496        0.396        0.188       64.509       22.574        0.122      334.165        3.958      866.005
01/19/2014  20:24:00      -73.427      -16.826       -6.293       26.846       30.236       17.193      720.724      914.240      295.585        0.382        0.097       75.330       14.734        0.038      334.107        3.861      866.003
01/19/2014  20:25:00      -57.449      -33.380       -4.651       35.250       34.626       24.646     1242.568     1198.949      607.414        0.374        0.152       66.442       16.234        0.060      334.122        3.887      866.008
01/19/2014  20:26:00     -116.974      -45.517      -15.889       38.380       28.517       24.689     1473.062      813.223      609.554        0.945        0.145      125.518       13.863        0.012      334.063        3.789      866.016
01/19/2014  20:27:00     -107.154      -48.222       -2.986       47.702       37.484       24.902     2275.517     1405.013      620.110        0.906        0.215      117.504       21.169        0.032      334.070        3.799      866.013
01/19/2014  20:28:00     -114.987      -43.655       -8.363       51.163       40.370       25.505     2617.650     1629.752      650.485        1.005        0.245      122.995       19.580        0.025      334.062        3.787      866.001
01/19/2014  20:29:00     -155.218      -36.477      -18.236       42.113       38.767       25.624     1773.542     1502.869      656.603        1.484        0.197      159.447       15.973        0.010      334.077        3.811      865.995
01/19/2014  20:30:00      -79.310      -27.074      -17.922       49.093       32.445       28.496     2410.083     1052.690      812.024        0.581        0.214       83.803       19.417        0.054      334.074        3.805      865.989
01/19/2014  20:31:00      -94.052      -42.209       -5.762       49.325       46.398       26.653     2432.931     2152.757      710.369        0.798        0.265      103.090       18.950        0.034      334.028        3.731      865.994
01/19/2014  20:32:00     -108.125      -27.573       -4.692       80.408       65.657       30.032     6465.392     4310.795      901.918        1.207        0.584      111.586       29.003        0.068      334.019        3.716      865.995
01/19/2014  20:33:00     -175.996      -56.041       -8.851       44.519       39.629       24.215     1981.935     1570.441      586.383        1.917        0.207      184.703       19.818        0.012      333.997        3.678      866.000
01/19/2014  20:34:00     -168.382      -60.895      -31.953       36.145       38.840       22.425     1306.481     1508.546      502.890        1.820        0.166      179.055       11.564        0.004      333.932        3.570      866.017
01/19/2014  20:35:00     -140.366      -73.575      -17.652       41.018       34.914       24.037     1682.489     1219.009      577.801        1.445        0.174      158.480       13.827        0.008      333.906        3.528      866.021
01/19/2014  20:36:00     -155.086      -85.301      -10.147       34.163       38.798       22.539     1167.110     1505.302      507.985        1.730        0.159      176.996       21.719        0.015      333.869        3.466      866.025
01/19/2014  20:37:00     -113.975      -65.300        4.671       58.993       39.289       27.907     3480.116     1543.608      778.798        1.154        0.290      131.356       30.369        0.053      333.828        3.399      866.046
01/19/2014  20:38:00     -105.214      -41.262       -2.051       28.130       37.041       27.892      791.288     1372.049      777.982        0.786        0.147      113.016       18.003        0.025      333.837        3.413      866.056
01/19/2014  20:39:00     -174.044      -58.981      -14.659       46.331       29.772       23.472     2146.557      886.390      550.934        1.878        0.179      183.766       23.795        0.017      333.805        3.359      866.071
01/19/2014  20:40:00     -151.277      -66.713      -10.570       46.177       37.362       25.826     2132.298     1395.913      666.973        1.582        0.210      165.334        9.752        0.003      333.715        3.211      866.094
01/19/2014  20:41:00     -154.338      -48.955       -3.160       43.697       35.435       22.037     1909.467     1255.645      485.626        1.494        0.183      161.916       19.969        0.015      333.735        3.243      866.126
01/19/2014  20:42:00     -154.076      -40.944        2.158       32.915       27.370       21.557     1083.428      749.131      464.703        1.386        0.115      159.424       19.265        0.015      333.780        3.319      866.137
01/19/2014  20:43:00      -83.121      -26.727        2.545       46.859       35.195       18.273     2195.747     1238.687      333.899        0.570        0.188       87.313       20.975        0.058      333.842        3.421      866.157
01/19/2014  20:44:00      -89.909      -13.045       -4.487       24.899       20.358       16.532      619.982      414.458      273.315        0.479        0.065       90.851       13.790        0.023      333.841        3.421      866.180
01/19/2014  20:45:00      -87.791      -32.580       -5.711       15.330       17.489       14.585      235.010      305.882      212.720        0.478        0.038       93.642       11.091        0.014      333.958        3.615      866.200
01/19/2014  20:46:00      -86.969      -54.598       -3.424       37.652       24.184       21.558     1417.638      584.859      464.739        0.651        0.123      102.686       16.727        0.027      333.929        3.565      866.208
01/19/2014  20:47:00     -145.807      -65.241       -1.972       25.717       18.155       12.425      661.387      329.610      154.381        1.333        0.057      159.738        5.426        0.001      334.145        3.925      866.208
01/19/2014  20:48:00     -111.959      -49.438        3.797       41.324       31.259       19.972     1707.642      977.125      398.862        0.904        0.154      122.388       17.798        0.021      334.151        3.933      866.195
01/19/2014  20:49:00      -92.679      -50.480        6.773       41.660       26.390       22.234     1735.539      696.454      494.350        0.705        0.146      105.535       24.903        0.056      334.175        3.974      866.197
01/19/2014  20:50:00     -113.816      -54.853       -4.588       25.084       21.079       16.411      629.205      444.315      269.308        0.866        0.067      126.345       13.340        0.011      334.073        3.805      866.198
01/19/2014  20:51:00      -90.637      -50.456        7.492       43.814       28.651       19.739     1919.660      820.893      389.643        0.697        0.157      103.734       22.606        0.047      334.032        3.738      866.193
01/19/2014  20:52:00      -56.749      -38.248        6.901       47.033       38.769       20.374     2212.118     1503.057      415.089        0.443        0.207       68.435       25.950        0.144      333.869        3.467      866.200
01/19/2014  20:53:00     -102.300      -55.798       -6.751       23.064       19.361       17.456      531.962      374.845      304.709        0.742        0.061      116.527       12.458        0.011      333.908        3.532      866.215
01/19/2014  20:54:00     -109.710      -68.447      -13.521       23.193       21.252       14.915      537.909      451.650      222.449        0.906        0.061      129.311       10.409        0.006      333.880        3.485      866.232
01/19/2014  20:55:00     -103.305      -69.151       -7.760       26.082       15.602       16.242      680.292      243.421      263.812        0.835        0.059      124.313        9.856        0.006      333.857        3.447      866.246
01/19/2014  20:56:00      -97.603      -66.820       -2.674       29.489       24.247       18.350      869.618      587.908      336.725        0.790        0.090      118.285       13.670        0.013      333.923        3.557      866.260
01/19/2014  20:57:00     -103.654      -53.174        2.710       37.123       24.728       20.516     1378.126      611.464      420.906        0.799        0.121      116.498       19.632        0.028      333.882        3.488      866.280
01/19/2014  20:58:00     -104.715      -54.540       -1.735       22.605       20.550       18.994      510.984      422.316      360.759        0.762        0.065      118.067       12.963        0.012      333.858        3.449      866.283
01/19/2014  20:59:00      -99.728      -58.474        0.629       26.689       17.434       16.090      712.291      303.930      258.893        0.732        0.064      115.607       14.081        0.015      333.772        3.306      866.289
01/19/2014  21:00:00     -115.849      -45.072        2.979       24.414       17.550       13.180      596.039      308.004      173.725        0.827        0.054      124.308       12.210        0.010      333.760        3.285      866.303
01/19/2014  21:01:00     -138.633      -53.900       -0.133       22.204       21.249       13.236      493.038      451.520      175.192        1.162        0.056      148.743       11.074        0.006      333.920        3.552      866.312
01/19/2014  21:02:00     -114.551      -59.711        1.356       26.524       22.797       16.733      703.501      519.722      280.000        0.910        0.075      129.179       13.453        0.011      333.947        3.596      866.312
01/19/2014  21:03:00     -132.406      -73.215       -0.364       36.179       24.025       20.133     1308.918      577.210      405.340        1.259        0.115      151.301       15.483        0.010      334.052        3.770      866.321
01/19/2014  21:04:00     -127.300      -66.556       -1.057       30.492       22.668       20.019      929.766      513.845      400.760        1.124        0.092      143.649       19.345        0.018      334.097        3.845      866.343
01/19/2014  21:05:00     -110.408      -65.842        0.958       40.939       27.885       19.781     1675.964      777.574      391.284        0.968        0.142      128.550       17.294        0.018      334.028        3.730      866.372
01/19/2014  21:06:00     -136.972      -58.474        0.935       42.078       26.038       18.260     1770.551      677.959      333.429        1.248        0.139      148.931       19.156        0.017      334.051        3.769      866.393
01/19/2014  21:07:00     -118.844      -59.583        3.902       38.263       30.430       23.827     1464.069      926.014      567.728        1.032        0.148      132.943       22.798        0.029      333.958        3.614      866.401
01/19/2014  21:08:00     -121.333      -50.996        0.165       35.044       23.352       14.590     1228.083      545.327      212.862        0.965        0.099      131.615       15.515        0.014      333.970        3.635      866.417
01/19/2014  21:09:00     -131.663      -43.612       -3.464       27.057       26.634       13.838      732.097      709.385      191.477        1.044        0.082      138.698       11.766        0.007      333.959        3.615      866.429
01/19/2014  21:10:00     -142.059      -57.631       -1.618       20.623       16.275       13.087      425.301      264.874      171.260        1.218        0.043      153.304       12.041        0.006      333.913        3.540      866.429
01/19/2014  21:11:00     -117.850      -65.956        1.834       35.179       25.198       21.242     1237.556      634.922      451.241        1.028        0.116      135.051       15.367        0.013      333.837        3.415      866.431
01/19/2014  21:12:00     -104.181      -70.935       -3.846       37.425       25.131       25.106     1400.633      631.560      630.288        0.928        0.133      126.037       20.346        0.026      333.723        3.226      866.454
01/19/2014  21:13:00     -136.364      -66.558      -13.700       31.171       22.746       13.828      971.643      517.386      191.217        1.245        0.084      151.740        5.694        0.001      333.645        3.095      866.455
01/19/2014  21:14:00     -151.724      -55.464       -7.598       25.685       28.209       17.914      659.711      795.730      320.909        1.396        0.089      161.544       14.710        0.008      333.716        3.213      866.456
01/19/2014  21:15:00     -150.581      -34.109      -14.917       30.179       23.803       18.120      910.764      566.576      328.351        1.293        0.090      154.396        7.442        0.002      333.597        3.016      866.458
01/19/2014  21:16:00     -113.089      -27.475       -1.916       46.402       27.202       23.145     2153.143      739.971      535.685        0.849        0.171      116.378       24.843        0.046      333.518        2.884      866.479
01/19/2014  21:17:00     -115.197      -36.070       -2.555       36.832       28.435       22.432     1356.600      808.522      503.210        0.862        0.133      120.712       21.669        0.032      333.473        2.810      866.491
01/19/2014  21:18:00      -98.077      -18.933       -1.857       46.522       29.479       25.259     2164.291      869.032      638.003        0.683        0.184       99.887       23.911        0.057      333.532        2.908      866.495
01/19/2014  21:19:00     -129.081      -17.804      -13.820       50.145       29.114       23.109     2514.571      847.619      534.044        1.053        0.195      130.303       19.331        0.022      333.486        2.832      866.498
01/19/2014  21:20:00      -89.002      -20.214      -10.007       53.843       29.464       20.587     2899.087      868.127      423.805        0.631        0.210       91.269       25.412        0.078      333.416        2.717      866.509
01/19/2014  21:21:00      -58.405       -6.236       -5.027       28.892       27.975       13.703      834.721      782.604      187.766        0.264        0.090       58.737       11.231        0.037      333.409        2.703      866.525
01/19/2014  21:22:00      -67.209        6.564       -7.197       14.880       14.907        9.443      221.412      222.229       89.170        0.257        0.027       67.528        7.513        0.012      333.486        2.830      866.538
01/19/2014  21:23:00      -79.461       -9.999      -12.586       25.040       24.239       12.109      626.999      587.521      146.623        0.397        0.068       80.087       10.995        0.019      333.647        3.099      866.539
01/19/2014  21:24:00      -96.801      -38.101      -23.851       20.166       20.901       15.090      406.681      436.867      227.712        0.623        0.054      104.030        8.165        0.006      333.275        2.485      866.533
01/19/2014  21:25:00     -112.165      -38.629      -18.592       28.718       27.679       18.851      824.719      766.114      355.353        0.818        0.097      118.630       11.629        0.010      333.181        2.327      866.536
01/19/2014  21:26:00     -105.665      -46.195       -8.768       49.864       24.470       22.093     2486.402      598.785      488.101        0.847        0.179      115.322       18.981        0.027      333.188        2.338      866.528
01/19/2014  21:27:00      -94.316      -45.144      -11.673       38.624       41.961       24.256     1491.835     1760.722      588.347        0.745        0.192      104.563       21.603        0.043      333.237        2.419      866.518
01/19/2014  21:28:00      -16.695      -25.073       23.717       51.248       27.607       40.037     2626.368      762.172     1602.992        0.323        0.250       30.123       39.289        1.701      333.204        2.365      866.519
01/19/2014  21:29:00      -96.218      -18.604       -0.889       77.332       35.934       36.853     5980.290     1291.271     1358.110        0.912        0.431       98.000       46.059        0.221      333.279        2.489      866.527
01/19/2014  21:30:00     -117.433      -52.851      -15.790       63.505       45.036       28.754     4032.914     2028.249      826.807        1.186        0.344      128.778       20.586        0.026      333.319        2.556      866.528
01/19/2014  21:31:00     -117.088      -31.059       -1.621       47.168       41.978       28.375     2224.799     1762.170      805.158        0.973        0.240      121.138       25.115        0.043      333.342        2.594      866.527
01/19/2014  21:32:00     -147.371      -82.825       -8.440       38.529       34.857       28.430     1484.483     1214.978      808.243        1.608        0.175      169.051       15.592        0.009      333.352        2.611      866.536
01/19/2014  21:33:00      -99.314      -63.051       -0.678       61.184       45.171       28.090     3743.514     2040.380      789.049        1.020        0.329      117.638       25.954        0.049      333.338        2.589      866.563
01/19/2014  21:34:00      -92.094      -51.205        2.715       40.296       38.590       25.108     1623.769     1489.159      630.426        0.743        0.187      105.372       17.908        0.029      333.266        2.467      866.596
01/19/2014  21:35:00      -83.149      -14.296       -2.891       28.883       35.762       20.173      834.210     1278.895      406.936        0.482        0.126       84.369       16.660        0.039      333.289        2.507      866.626
01/19/2014  21:36:00     -123.671      -22.207      -10.380       27.231       29.830       15.875      741.551      889.838      252.012        0.889        0.094      125.649       14.519        0.013      333.270        2.475      866.648
01/19/2014  21:37:00     -126.419       -9.115      -20.700       16.892       18.978       10.688      285.348      360.161      114.224        0.863        0.038      126.747        3.052        0.001      333.330        2.574      866.665
01/19/2014  21:38:00     -132.984      -32.419      -14.935       29.225       19.931       17.324      854.127      397.255      300.119        1.025        0.078      136.879       17.166        0.016      333.331        2.575      866.652
01/19/2014  21:39:00      -55.888      -20.748        3.500       39.451       26.149       15.907     1556.380      683.782      253.036        0.303        0.125       59.615       18.052        0.092      333.254        2.447      866.635
01/19/2014  21:40:00     -102.080      -20.624      -14.013       36.813       20.740       14.145     1355.219      430.148      200.075        0.651        0.099      104.142       15.482        0.022      333.240        2.425      866.640
01/19/2014  21:41:00     -140.578      -39.154      -18.945       28.801       22.280       15.287      829.477      496.414      233.689        1.161        0.078      145.929       15.571        0.011      333.154        2.283      866.644
01/19/2014  21:42:00      -41.523      -36.388        3.850       43.786       32.921       19.907     1917.251     1083.812      396.285        0.323        0.170       55.211       22.661        0.168      333.183        2.329      866.655
01/19/2014  21:43:00      -92.479      -46.983       -7.039       41.317       20.834       14.210     1707.056      434.072      201.935        0.658        0.117      103.729       12.310        0.014      333.172        2.313      866.663
01/19/2014  21:44:00     -102.519      -60.351       -4.662       29.045       24.222       15.654      843.638      586.702      245.032        0.792        0.084      118.964       13.267        0.012      333.167        2.305      866.675
01/19/2014  21:45:00      -92.436      -73.101       -9.603       18.359       25.182       14.920      337.051      634.139      222.594        0.759        0.060      117.848        8.471        0.005      333.294        2.514      866.670
01/19/2014  21:46:00     -101.181      -51.264      -10.556       18.627       24.099       16.444      346.961      580.738      270.417        0.709        0.060      113.427       11.084        0.010      333.344        2.597      866.671
01/19/2014  21:47:00      -88.898      -54.502       -9.471       33.491       17.552       14.490     1121.668      308.090      209.970        0.630        0.082      104.275       11.935        0.013      333.308        2.539      866.681
01/19/2014  21:48:00     -109.021      -68.109       -2.020       43.210       27.751       23.704     1867.084      770.127      561.872        0.986        0.160      128.547       24.414        0.036      333.199        2.358      866.708
01/19/2014  21:49:00     -144.839      -88.035       -4.818       34.162       24.726       22.098     1167.032      611.393      488.311        1.551        0.113      169.495       18.466        0.012      333.213        2.381      866.724
01/19/2014  21:50:00     -126.226      -63.185       -7.386       37.495       22.625       17.545     1405.843      511.890      307.811        1.110        0.111      141.157       15.789        0.013      333.141        2.263      866.724
01/19/2014  21:51:00     -143.747      -64.434       -7.452       25.338       22.992       16.527      642.012      528.609      273.132        1.316        0.072      157.528       16.570        0.011      333.129        2.240      866.741
01/19/2014  21:52:00     -105.771      -60.167        3.025       36.088       26.907       23.907     1302.353      723.965      571.529        0.871        0.130      121.686       22.264        0.033      333.138        2.257      866.753
01/19/2014  21:53:00     -100.757      -49.780       -1.118       32.562       28.083       20.652     1060.260      788.660      426.503        0.745        0.114      112.384       19.150        0.029      333.335        2.583      866.752
01/19/2014  21:54:00      -69.928      -31.924        5.993       25.303       26.778       18.911      640.222      717.083      357.641        0.383        0.086       76.871       13.219        0.030      333.394        2.679      866.757
01/19/2014  21:55:00      -75.065      -48.090        1.976       25.471       18.310       12.381      648.755      335.265      153.281        0.454        0.057       89.148       12.258        0.019      333.414        2.712      866.774
01/19/2014  21:56:00      -98.259      -51.565       -7.742       26.252       19.813       17.076      689.175      392.550      291.598        0.687        0.069      110.968       16.506        0.022      333.445        2.763      866.771
01/19/2014  21:57:00     -108.992      -33.413       -6.893       32.781       20.765       13.498     1074.563      431.167      182.190        0.737        0.084      113.999       15.906        0.019      333.500        2.855      866.760
01/19/2014  21:58:00     -124.396      -54.601       -3.426       27.813       21.929       12.962      773.552      480.892      168.007        0.994        0.071      135.852       12.005        0.008      333.473        2.810      866.758
01/19/2014  21:59:00     -140.527      -60.028       -7.234       17.411       16.028       12.854      303.136      256.911      165.213        1.206        0.036      152.811        9.138        0.004      333.488        2.834      866.758
01/19/2014  22:00:00     -129.311      -50.661       -7.104       12.323       13.022       10.871      151.866      169.579      118.171        0.989        0.022      138.881        7.441        0.003      333.484        2.827      866.758
01/19/2014  22:01:00     -131.586      -65.254       -4.957       15.946       15.970       10.752      254.267      255.051      115.606        1.111        0.031      146.878        8.552        0.003      333.481        2.823      866.773
01/19/2014  22:02:00     -126.300      -65.007       -4.888       20.057       19.256       18.738      402.288      370.778      351.113        1.066        0.056      142.048       14.802        0.011      333.459        2.785      866.791
01/19/2014  22:03:00     -111.304      -48.685       -0.499       29.537       16.843       11.585      872.451      283.672      134.202        0.802        0.065      121.486       13.901        0.013      333.465        2.797      866.808
01/19/2014  22:04:00      -94.134      -36.747       -3.706       24.113       15.757       12.860      581.426      248.283      165.390        0.561        0.050      101.052       12.232        0.015      333.418        2.719      866.819
01/19/2014  22:05:00     -100.156      -42.721       -4.628       20.661       15.483       12.273      426.882      239.715      150.627        0.635        0.041      108.887       12.948        0.014      333.312        2.546      866.840
01/19/2014  22:06:00      -86.893      -20.141       -3.666       31.583       24.898       14.108      997.469      619.911      199.036        0.489        0.091       89.197       11.844        0.018      333.266        2.469      866.861
01/19/2014  22:07:00     -112.795      -14.970       -7.711       44.295       15.807       18.159     1962.070      249.852      329.756        0.777        0.127      113.784       23.198        0.042      333.277        2.485      866.873
01/19/2014  22:08:00     -112.935      -19.262      -12.783       33.366       18.406       14.986     1113.274      338.765      224.594        0.748        0.084      114.566       16.161        0.020      333.239        2.424      866.877
01/19/2014  22:09:00     -109.956      -18.187      -16.660       15.521       15.674       14.362      240.904      245.674      206.275        0.670        0.035      111.450        5.517        0.002      333.246        2.434      866.880
01/19/2014  22:10:00     -115.141      -23.597      -14.200        9.132        9.287        7.278       83.402       86.257       52.976        0.712        0.011      117.534        3.995        0.001      333.261        2.460      866.887
01/19/2014  22:11:00      -76.936      -41.562       -1.095       20.798       13.502       10.224      432.559      182.301      104.540        0.418        0.036       87.445       10.397        0.014      333.253        2.446      866.900
01/19/2014  22:12:00      -76.799      -31.367        0.248       20.138       13.854        9.696      405.539      191.931       94.004        0.379        0.035       82.958        6.874        0.007      333.237        2.420      866.902
01/19/2014  22:13:00      -93.347      -27.807       -6.871       14.196       14.284       10.779      201.526      204.033      116.182        0.503        0.026       97.401       10.473        0.012      333.237        2.421      866.889
01/19/2014  22:14:00     -104.639      -18.103      -12.885       14.152       11.995       10.249      200.286      143.889      105.050        0.595        0.022      106.194        8.613        0.007      333.280        2.491      866.877
01/19/2014  22:15:00     -101.839      -16.627      -10.863       10.578        9.687        9.522      111.895       93.838       90.662        0.553        0.015      103.187        5.979        0.003      333.229        2.405      866.878
01/19/2014  22:16:00     -107.866      -26.282       -7.939       19.035       14.110       12.612      362.339      199.081      159.068        0.655        0.036      111.022       11.293        0.010      333.254        2.448      866.906
01/19/2014  22:17:00      -91.704      -23.129       -2.770       20.717       15.871       12.054      429.197      251.893      145.288        0.489        0.041       94.575        9.925        0.011      333.199        2.357      866.935
01/19/2014  22:18:00      -98.116      -22.875       -4.443       19.767       13.400       10.906      390.741      179.559      118.939        0.543        0.034      100.747        8.860        0.008      333.127        2.238      866.965
01/19/2014  22:19:00     -104.032      -11.812       -7.564       19.132       14.667       12.534      366.052      215.129      157.110        0.588        0.037      104.700       11.362        0.012      333.114        2.216      866.990
01/19/2014  22:20:00     -116.461       12.445      -19.230        9.681       13.308       10.812       93.722      177.102      116.909        0.724        0.019      117.124        6.922        0.003      333.146        2.269      867.005
01/19/2014  22:21:00      -94.499        7.735      -14.735       17.314       10.941       12.127      299.763      119.696      147.062        0.489        0.028       94.815        6.886        0.005      333.123        2.232      867.011
01/19/2014  22:22:00      -77.860       -8.640      -14.660       13.460        9.441        5.799      181.172       89.127       33.625        0.333        0.015       78.338        2.027        0.001      333.112        2.213      867.023
01/19/2014  22:23:00      -55.819      -41.353       -8.569       17.429       14.036       10.281      303.787      197.021      105.703        0.275        0.030       69.468        5.994        0.007      333.041        2.096      867.037
01/19/2014  22:24:00      -62.096      -38.988      -11.252       17.628       16.341       10.397      310.746      267.020      108.089        0.309        0.034       73.321        2.725        0.001      332.980        1.996      867.056
01/19/2014  22:25:00      -75.684      -23.554      -12.021       11.835       11.433        7.067      140.063      130.720       49.939        0.337        0.016       79.265        5.615        0.005      332.922        1.901      867.061
01/19/2014  22:26:00      -82.935      -14.460      -15.613        9.654        8.747        6.658       93.190       76.512       44.329        0.377        0.011       84.186        3.640        0.002      332.987        2.007      867.054
01/19/2014  22:27:00      -70.659       -5.740      -13.555        8.469        6.732        7.235       71.727       45.322       52.345        0.269        0.008       70.891        3.612        0.003      332.996        2.022      867.049
01/19/2014  22:28:00      -85.152       -8.971      -11.271       10.645        9.831        9.731      113.316       96.645       94.701        0.388        0.015       85.623        4.853        0.003      332.986        2.005      867.049
01/19/2014  22:29:00     -107.584       -7.816      -14.372       14.366       12.047        9.459      206.374      145.122       89.480        0.614        0.022      107.868        2.597        0.001      332.925        1.906      867.056
01/19/2014  22:30:00      -68.783      -10.671      -14.771       14.212        9.546        8.935      201.991       91.130       79.836        0.272        0.019       69.606        4.901        0.005      332.820        1.732      867.069
01/19/2014  22:31:00      -89.069      -12.360      -15.058       22.588        8.179        8.546      510.201       66.894       73.027        0.448        0.033       89.923        6.676        0.006      332.822        1.734      867.083
01/19/2014  22:32:00     -127.353       -1.558      -16.968       12.468       10.544        8.358      155.449      111.176       69.859        0.842        0.017      127.362        6.501        0.003      332.918        1.894      867.103
01/19/2014  22:33:00     -107.284       -4.160      -16.682       29.161       16.237       12.733      850.336      263.635      162.126        0.654        0.064      107.365       10.543        0.010      332.720        1.565      867.109
01/19/2014  22:34:00     -154.975      -18.284      -22.830       17.080       33.998       17.327      291.709     1155.878      300.219        1.331        0.087      156.050        3.708        0.001      332.682        1.503      867.113
01/19/2014  22:35:00     -141.559      -32.592       -8.377       37.723       38.364       26.162     1423.003     1471.775      684.444        1.237        0.179      145.263       24.282        0.028      332.547        1.280      867.111
01/19/2014  22:36:00     -113.830      -26.920      -10.743       37.716       29.639       20.507     1422.492      878.496      420.554        0.826        0.136      116.969       17.194        0.022      332.591        1.353      867.113
01/19/2014  22:37:00      -97.037      -16.902       -6.252       34.713       36.898       24.898     1205.026     1361.445      619.914        0.646        0.159       98.498       15.287        0.024      332.639        1.432      867.112
01/19/2014  22:38:00     -114.315      -26.539       -5.258       39.242       34.772       18.205     1539.905     1209.079      331.423        0.844        0.154      117.355       17.492        0.022      332.674        1.489      867.114
01/19/2014  22:39:00      -91.906      -53.853      -13.517       30.988       22.211       19.067      960.276      493.331      363.540        0.667        0.091      106.521        5.575        0.003      332.637        1.428      867.122
01/19/2014  22:40:00     -105.495      -23.274      -16.793       37.849       31.831       15.685     1432.546     1013.241      246.007        0.732        0.135      108.032       14.066        0.017      332.675        1.491      867.133
01/19/2014  22:41:00      -93.512       -1.300       -7.953       44.407       37.974       22.439     1971.971     1441.990      503.528        0.636        0.196       93.521       24.161        0.067      332.729        1.582      867.145
01/19/2014  22:42:00     -114.576       25.142       -6.535       60.830       34.986       26.499     3700.327     1224.004      702.217        0.971        0.281      117.302       28.577        0.059      332.819        1.731      867.158
01/19/2014  22:43:00      -69.414      -13.840        0.376       50.345       33.222       29.680     2534.613     1103.693      880.879        0.476        0.226       70.780       30.358        0.184      332.789        1.681      867.173
01/19/2014  22:44:00      -80.750      -54.994       -3.887       46.099       27.859       21.806     2125.144      776.126      475.517        0.647        0.169       97.698       17.837        0.033      332.690        1.516      867.194
01/19/2014  22:45:00     -131.025      -38.265        1.017       36.528       42.249       22.284     1334.263     1784.943      496.568        1.112        0.181      136.498       18.436        0.018      332.667        1.479      867.193
01/19/2014  22:46:00     -132.154      -10.134       -8.509       52.785       26.711       26.932     2786.303      713.476      725.337        1.093        0.211      132.542       30.933        0.054      332.743        1.605      867.191
01/19/2014  22:47:00     -135.520        1.560      -12.501       46.212       30.093       23.103     2135.548      905.617      533.749        1.105        0.179      135.529       21.278        0.025      332.736        1.592      867.180
01/19/2014  22:48:00     -116.646       -1.579       -4.790       47.475       40.735       30.565     2253.838     1659.380      934.214        0.924        0.242      116.657       22.488        0.037      332.797        1.694      867.168
01/19/2014  22:49:00     -125.196       13.880      -11.266       52.878       43.410       24.238     2796.110     1884.399      587.467        1.063        0.263      125.963       18.689        0.022      332.859        1.797      867.159
01/19/2014  22:50:00      -65.363        3.599        0.701       52.984       32.832       23.519     2807.258     1077.942      553.154        0.436        0.222       65.462       20.951        0.102      332.826        1.741      867.150
01/19/2014  22:51:00      -85.815      -17.632       -5.758       39.498       29.593       18.405     1560.059      875.769      338.739        0.524        0.139       87.608       19.263        0.048      332.833        1.753      867.149
01/19/2014  22:52:00      -28.018      -46.098       11.179       50.790       36.246       24.468     2579.643     1313.790      598.696        0.376        0.225       53.945       31.516        0.341      332.723        1.570      867.163
01/19/2014  22:53:00      -86.775      -45.375       -9.255       17.238       24.502       13.191      297.163      600.370      173.991        0.537        0.054       97.922        3.981        0.002      332.625        1.409      867.174
01/19/2014  22:54:00      -85.211      -51.793       -8.978       26.622       19.437       22.262      708.714      377.810      495.606        0.580        0.079       99.717       18.552        0.035      332.606        1.379      867.192
01/19/2014  22:55:00     -105.980      -43.452      -13.899       10.959       12.514        9.905      120.090      156.612       98.106        0.684        0.019      114.542        5.607        0.002      332.610        1.384      867.205
01/19/2014  22:56:00      -97.475      -26.279      -12.269       16.557       16.663       12.545      274.134      277.660      157.375        0.553        0.035      100.955       10.897        0.012      332.611        1.386      867.222
01/19/2014  22:57:00      -92.156      -28.754       -7.729       16.940       16.483       18.708      286.955      271.687      349.995        0.514        0.045       96.537       12.509        0.017      332.566        1.312      867.227
01/19/2014  22:58:00      -89.476      -10.506      -12.684       20.347       19.471       17.619      413.982      379.102      310.445        0.469        0.055       90.090       13.900        0.024      332.629        1.415      867.231
01/19/2014  22:59:00      -80.999      -10.039      -13.323       17.333       16.584       12.686      300.445      275.030      160.939        0.379        0.037       81.619        8.569        0.011      332.656        1.461      867.234
01/19/2014  23:00:00      -68.304      -18.693       -7.957       12.630       15.647        9.683      159.514      244.832       93.752        0.279        0.025       70.816        6.238        0.008      332.674        1.489      867.242
01/19/2014  23:01:00      -63.662      -36.217      -13.808       14.135       14.307       12.897      199.794      204.694      166.342        0.306        0.029       73.243        6.137        0.007      332.662        1.469      867.240
01/19/2014  23:02:00      -83.568      -26.903      -14.584       10.738        7.360        6.331      115.311       54.164       40.083        0.406        0.010       87.792        4.187        0.002      332.628        1.412      867.236
01/19/2014  23:03:00      -74.281      -29.002       -9.422       11.603       11.920        6.231      134.639      142.083       38.830        0.338        0.016       79.741        4.803        0.004      332.660        1.466      867.239
01/19/2014  23:04:00      -75.932      -15.811      -11.583       12.991       14.545        9.181      168.759      211.562       84.290        0.331        0.023       77.560        7.722        0.010      332.677        1.494      867.244
01/19/2014  23:05:00      -79.433      -19.027       -2.408       24.498       17.685       13.119      600.151      312.762      172.119        0.388        0.054       81.680       11.147        0.019      332.697        1.529      867.241
01/19/2014  23:06:00     -105.378      -50.905      -10.850       10.876       12.633        8.516      118.282      159.599       72.515        0.708        0.018      117.029        5.103        0.002      332.692        1.519      867.249
01/19/2014  23:07:00     -135.245      -48.598      -10.164       15.058       15.380       11.024      226.739      236.556      121.531        1.067        0.029      143.711        7.363        0.003      332.668        1.479      867.261
01/19/2014  23:08:00     -134.284      -43.040      -15.000        9.478       14.824        9.824       89.837      219.758       96.512        1.026        0.020      141.013        4.977        0.001      332.523        1.241      867.265
01/19/2014  23:09:00     -125.877      -34.578      -17.737       14.068       14.752       10.514      197.922      217.608      110.542        0.894        0.026      130.540        2.295        0.000      332.509        1.217      867.259
01/19/2014  23:10:00      -95.917      -31.143       -5.722       34.238       14.774       18.319     1172.270      218.276      335.602        0.596        0.086      100.846       19.527        0.037      332.518        1.234      867.255
01/19/2014  23:11:00      -43.207      -23.384        1.956       23.342       16.474       11.989      544.866      271.405      143.741        0.169        0.048       49.129       10.505        0.046      332.566        1.311      867.254
01/19/2014  23:12:00      -96.475      -27.988       -6.769       22.276       10.403       10.431      496.211      108.223      108.802        0.542        0.036      100.453       11.379        0.013      332.692        1.521      867.259
01/19/2014  23:13:00     -120.678      -35.055       -9.970       14.563       12.793        9.775      212.077      163.669       95.551        0.818        0.024      125.666        7.983        0.004      332.667        1.479      867.266
01/19/2014  23:14:00     -112.054      -41.676       -5.746       11.316       10.232        8.232      128.043      104.684       67.771        0.731        0.015      119.553        6.021        0.003      332.589        1.351      867.270
01/19/2014  23:15:00      -99.002      -47.907       -9.214       12.125       11.089        7.972      147.011      122.962       63.548        0.626        0.017      109.984        6.467        0.003      332.498        1.199      867.268
01/19/2014  23:16:00      -92.500      -52.714       -5.322       26.857       18.659       16.283      721.276      348.149      265.130        0.635        0.067      106.466       14.398        0.018      332.434        1.093      867.271
01/19/2014  23:17:00     -114.733      -59.922       -5.191       20.187       19.179       11.820      407.500      367.816      139.723        0.885        0.046      129.439        7.840        0.004      332.441        1.106      867.267
01/19/2014  23:18:00     -128.953      -39.241      -12.366       14.992       13.926       11.064      224.765      193.936      122.408        0.943        0.027      134.791        8.619        0.004      332.492        1.187      867.264
01/19/2014  23:19:00     -131.806      -33.480      -12.831       20.858       17.661       15.585      435.052      311.916      242.879        0.982        0.049      135.992       12.424        0.008      332.503        1.208      867.260
01/19/2014  23:20:00     -112.002      -33.539      -19.389       26.509       33.144       12.354      702.747     1098.516      152.629        0.800        0.098      116.916        5.317        0.002      332.406        1.048      867.277
01/19/2014  23:21:00      -71.075      -52.434       -7.360       30.467       20.372       14.663      928.239      414.998      214.996        0.471        0.078       88.323       14.676        0.028      332.330        0.922      867.283
01/19/2014  23:22:00      -39.556      -42.809        2.957       42.303       27.862       24.507     1789.532      776.271      600.579        0.329        0.158       58.287       21.804        0.140      332.257        0.803      867.291
01/19/2014  23:23:00      -85.723      -59.519       -4.557       33.094       25.993       15.715     1095.219      675.630      246.958        0.646        0.101      104.360       16.239        0.024      332.279        0.838      867.296
01/19/2014  23:24:00      -98.954      -40.508       -9.347       22.674       21.962       12.030      514.093      482.311      144.725        0.633        0.057      106.924        8.200        0.006      332.334        0.930      867.301
01/19/2014  23:25:00     -105.913      -28.861      -14.473       10.930       10.422        9.469      119.466      108.619       89.659        0.629        0.016      109.775        7.204        0.004      332.289        0.853      867.302
01/19/2014  23:26:00     -100.014      -47.364       -4.858       21.465       21.219       12.832      460.748      450.251      164.656        0.667        0.054      110.662        5.869        0.003      332.454        1.126      867.300
01/19/2014  23:27:00     -111.224      -60.172      -15.617       27.978       20.423       15.170      782.770      417.086      230.122        0.883        0.071      126.457        5.364        0.002      332.451        1.120      867.297
01/19/2014  23:28:00     -115.074      -73.102       -7.846       19.895       19.762       16.068      395.818      390.522      258.196        0.985        0.052      136.330       12.851        0.009      332.477        1.163      867.295
01/19/2014  23:29:00      -97.857      -67.412       -6.746       19.933       15.510       13.870      397.305      240.548      192.375        0.750        0.042      118.829        8.580        0.005      332.438        1.100      867.297
01/19/2014  23:30:00     -121.581      -62.235      -12.492       23.229       16.564       13.597      539.607      274.370      184.874        0.990        0.050      136.583       10.569        0.006      332.444        1.111      867.308
01/19/2014  23:31:00     -130.128      -51.866       -9.654       16.936       17.292       13.947      286.845      299.016      194.522        1.025        0.039      140.083       10.162        0.005      332.445        1.113      867.321
01/19/2014  23:32:00     -106.809      -58.185      -10.113       20.691       13.417        9.960      428.098      180.012       99.202        0.780        0.035      121.629        5.389        0.002      332.465        1.143      867.324
01/19/2014  23:33:00      -95.847      -40.898        0.323       14.664       13.314       10.601      215.040      177.268      112.371        0.568        0.025      104.208        8.811        0.007      332.489        1.185      867.325
01/19/2014  23:34:00     -111.596      -34.491       -9.135       11.735       15.513        7.428      137.722      240.652       55.182        0.708        0.022      116.804        7.345        0.004      332.489        1.184      867.323
01/19/2014  23:35:00     -131.256      -44.236       -8.207       17.037       19.520        9.927      290.276      381.019       98.552        1.001        0.038      138.510        7.374        0.003      332.451        1.122      867.320
01/19/2014  23:36:00     -142.848      -45.866      -14.457       10.583       12.624        8.871      111.990      159.353       78.690        1.153        0.018      150.030        5.766        0.001      332.375        0.997      867.310
01/19/2014  23:37:00     -146.242      -31.710      -21.444       13.466       11.824       10.976      181.328      139.800      120.482        1.165        0.022      149.641        7.632        0.003      332.370        0.989      867.284
01/19/2014  23:38:00     -139.680      -27.853      -22.343       11.806       11.848        9.146      139.386      140.373       83.641        1.057        0.018      142.430        3.309        0.001      332.276        0.834      867.265
01/19/2014  23:39:00     -115.439      -41.952      -16.853       29.764       19.478       11.302      885.907      379.379      127.734        0.838        0.070      122.825        9.490        0.006      332.195        0.701      867.256
01/19/2014  23:40:00     -102.273      -61.276       -7.070       66.523       25.671       23.084     4425.314      658.994      532.894        0.994        0.281      119.225       21.361        0.032      332.162        0.645      867.269
01/19/2014  23:41:00     -147.276      -61.938        3.041       47.897       32.087       22.817     2294.098     1029.586      520.634        1.469        0.192      159.771       23.846        0.022      332.263        0.812      867.296
01/19/2014  23:42:00     -131.365      -47.015       -7.702       20.005       18.575       14.693      400.207      345.036      215.883        1.024        0.048      139.525       10.822        0.006      332.315        0.896      867.301
01/19/2014  23:43:00     -110.010      -28.206      -16.733       13.504       15.946       10.344      182.347      254.286      106.997        0.686        0.027      113.568        7.126        0.004      332.313        0.894      867.297
01/19/2014  23:44:00     -109.689      -49.376      -12.037       12.266       13.470        7.902      150.446      181.432       62.449        0.750        0.020      120.290        4.621        0.001      332.415        1.063      867.291
01/19/2014  23:45:00      -84.596      -62.739       -8.922       23.994       16.135       14.737      575.707      260.347      217.178        0.611        0.053      105.321       12.254        0.014      332.420        1.071      867.301
01/19/2014  23:46:00     -119.642      -37.646      -13.693       16.220       15.295       10.381      263.083      233.926      107.771        0.826        0.030      125.425        8.469        0.005      332.382        1.007      867.304
01/19/2014  23:47:00      -98.338      -32.384      -16.026       15.566       19.743       10.150      242.307      389.781      103.021        0.586        0.037      103.533       10.604        0.010      332.335        0.929      867.294
01/19/2014  23:48:00      -97.899      -15.137      -15.106       15.533       16.920       13.175      241.265      286.278      173.571        0.537        0.035       99.062       10.839        0.012      332.308        0.886      867.286
01/19/2014  23:49:00     -107.095      -30.502      -15.785       15.301       13.014       10.492      234.123      169.365      110.084        0.658        0.026      111.354        6.240        0.003      332.274        0.831      867.287
01/19/2014  23:50:00     -103.482      -36.229      -10.140       12.106       17.669       11.033      146.546      312.201      121.729        0.635        0.029      109.641        6.781        0.004      332.189        0.690      867.287
01/19/2014  23:51:00      -69.871      -26.831       -8.569       26.087       19.430       15.245      680.550      377.537      232.405        0.348        0.065       74.846       12.465        0.028      332.142        0.613      867.280
01/19/2014  23:52:00      -99.109       -8.429      -10.366       21.091       22.493       13.283      444.836      505.943      176.447        0.556        0.056       99.467        6.994        0.005      332.126        0.586      867.269
01/19/2014  23:53:00      -77.827      -14.961      -11.361       15.763       17.866       13.654      248.473      319.200      186.420        0.358        0.038       79.252        4.576        0.003      332.172        0.662      867.264
01/19/2014  23:54:00      -82.126      -15.501      -13.514       10.169       20.535        8.263      103.399      421.681       68.276        0.388        0.030       83.576        5.930        0.005      332.245        0.783      867.264
01/19/2014  23:55:00      -78.423      -21.995      -18.739       10.753       14.548        9.553      115.631      211.640       91.257        0.370        0.021       81.449        5.083        0.004      332.278        0.837      867.262
01/19/2014  23:56:00     -110.087      -17.167      -15.176       25.458       20.312       13.849      648.133      412.586      191.806        0.695        0.063      111.418       14.452        0.017      332.207        0.722      867.261
01/19/2014  23:57:00      -89.954       -3.429      -18.611       28.209       15.043       15.133      795.736      226.281      229.005        0.485        0.063       90.020       12.056        0.018      332.148        0.622      867.267
01/19/2014  23:58:00     -106.859        4.395      -19.133       28.547       13.747       14.797      814.910      188.985      218.941        0.651        0.061      106.950       12.229        0.013      332.284        0.846      867.272
01/19/2014  23:59:00      -81.528      -18.110      -19.424       24.745       22.037       16.403      612.291      485.618      269.051        0.436        0.068       83.515       14.528        0.030      332.257        0.802      867.281
